<?xml version="1.0" encoding="UTF-8" standalone="no" ?>
<gpx xmlns="http://www.topografix.com/GPX/1/1" xmlns:xsi="http://www.w3.org/2001/XMLSchema-instance" xsi:schemaLocation="http://www.topografix.com/GPX/1/1 http://www.topografix.com/GPX/1/1/gpx.xsd" version="1.1" creator="VisuGPX - https://www.visugpx.com">
  <metadata>
    <name>mrt lamballe 07 06 2016</name>
    <desc><![CDATA[lamballe 07 06 2016]]></desc>
  </metadata>
  <trk>
    <name><![CDATA[mrt lamballe 07 06 2016_1]]></name>
    <trkseg>
      <trkpt lat="48.47142" lon="-2.50377">
        <ele>49</ele>
        <time>2016-06-07T12:19:15Z</time>
      </trkpt>
      <trkpt lat="48.47165" lon="-2.50354">
        <ele>50</ele>
        <time>2016-06-07T12:19:47Z</time>
      </trkpt>
      <trkpt lat="48.47168" lon="-2.50351">
        <ele>50</ele>
        <time>2016-06-07T12:19:51Z</time>
      </trkpt>
      <trkpt lat="48.47172" lon="-2.50349">
        <ele>49</ele>
        <time>2016-06-07T12:19:55Z</time>
      </trkpt>
      <trkpt lat="48.47175" lon="-2.50346">
        <ele>49</ele>
        <time>2016-06-07T12:19:59Z</time>
      </trkpt>
      <trkpt lat="48.47179" lon="-2.50342">
        <ele>48</ele>
        <time>2016-06-07T12:20:03Z</time>
      </trkpt>
      <trkpt lat="48.47183" lon="-2.50339">
        <ele>48</ele>
        <time>2016-06-07T12:20:07Z</time>
      </trkpt>
      <trkpt lat="48.47186" lon="-2.50335">
        <ele>47</ele>
        <time>2016-06-07T12:20:11Z</time>
      </trkpt>
      <trkpt lat="48.47189" lon="-2.50331">
        <ele>47</ele>
        <time>2016-06-07T12:20:15Z</time>
      </trkpt>
      <trkpt lat="48.47192" lon="-2.50326">
        <ele>46</ele>
        <time>2016-06-07T12:20:19Z</time>
      </trkpt>
      <trkpt lat="48.47193" lon="-2.50322">
        <ele>46</ele>
        <time>2016-06-07T12:20:22Z</time>
      </trkpt>
      <trkpt lat="48.47194" lon="-2.50316">
        <ele>46</ele>
        <time>2016-06-07T12:20:26Z</time>
      </trkpt>
      <trkpt lat="48.47196" lon="-2.5031">
        <ele>46</ele>
        <time>2016-06-07T12:20:30Z</time>
      </trkpt>
      <trkpt lat="48.47197" lon="-2.50305">
        <ele>46</ele>
        <time>2016-06-07T12:20:34Z</time>
      </trkpt>
      <trkpt lat="48.47199" lon="-2.503">
        <ele>46</ele>
        <time>2016-06-07T12:20:38Z</time>
      </trkpt>
      <trkpt lat="48.47202" lon="-2.50295">
        <ele>46</ele>
        <time>2016-06-07T12:20:42Z</time>
      </trkpt>
      <trkpt lat="48.47205" lon="-2.5029">
        <ele>46</ele>
        <time>2016-06-07T12:20:46Z</time>
      </trkpt>
      <trkpt lat="48.47208" lon="-2.50286">
        <ele>46</ele>
        <time>2016-06-07T12:20:50Z</time>
      </trkpt>
      <trkpt lat="48.47211" lon="-2.50281">
        <ele>46</ele>
        <time>2016-06-07T12:20:54Z</time>
      </trkpt>
      <trkpt lat="48.47213" lon="-2.50276">
        <ele>46</ele>
        <time>2016-06-07T12:20:58Z</time>
      </trkpt>
      <trkpt lat="48.47216" lon="-2.50271">
        <ele>46</ele>
        <time>2016-06-07T12:21:02Z</time>
      </trkpt>
      <trkpt lat="48.47218" lon="-2.50265">
        <ele>46</ele>
        <time>2016-06-07T12:21:06Z</time>
      </trkpt>
      <trkpt lat="48.47219" lon="-2.5026">
        <ele>46</ele>
        <time>2016-06-07T12:21:09Z</time>
      </trkpt>
      <trkpt lat="48.4722" lon="-2.50255">
        <ele>46</ele>
        <time>2016-06-07T12:21:12Z</time>
      </trkpt>
      <trkpt lat="48.47221" lon="-2.50251">
        <ele>46</ele>
        <time>2016-06-07T12:21:15Z</time>
      </trkpt>
      <trkpt lat="48.47221" lon="-2.50246">
        <ele>46</ele>
        <time>2016-06-07T12:21:18Z</time>
      </trkpt>
      <trkpt lat="48.47221" lon="-2.50241">
        <ele>46</ele>
        <time>2016-06-07T12:21:21Z</time>
      </trkpt>
      <trkpt lat="48.47221" lon="-2.50237">
        <ele>46</ele>
        <time>2016-06-07T12:21:24Z</time>
      </trkpt>
      <trkpt lat="48.47221" lon="-2.50232">
        <ele>46</ele>
        <time>2016-06-07T12:21:27Z</time>
      </trkpt>
      <trkpt lat="48.47221" lon="-2.50227">
        <ele>46</ele>
        <time>2016-06-07T12:21:30Z</time>
      </trkpt>
      <trkpt lat="48.47222" lon="-2.50222">
        <ele>46</ele>
        <time>2016-06-07T12:21:33Z</time>
      </trkpt>
      <trkpt lat="48.47223" lon="-2.50216">
        <ele>46</ele>
        <time>2016-06-07T12:21:37Z</time>
      </trkpt>
      <trkpt lat="48.47222" lon="-2.50211">
        <ele>46</ele>
        <time>2016-06-07T12:21:40Z</time>
      </trkpt>
      <trkpt lat="48.47219" lon="-2.50206">
        <ele>46</ele>
        <time>2016-06-07T12:21:44Z</time>
      </trkpt>
      <trkpt lat="48.47216" lon="-2.50201">
        <ele>46</ele>
        <time>2016-06-07T12:21:48Z</time>
      </trkpt>
      <trkpt lat="48.47214" lon="-2.50196">
        <ele>46</ele>
        <time>2016-06-07T12:21:52Z</time>
      </trkpt>
      <trkpt lat="48.47211" lon="-2.50191">
        <ele>46</ele>
        <time>2016-06-07T12:21:56Z</time>
      </trkpt>
      <trkpt lat="48.47208" lon="-2.50186">
        <ele>46</ele>
        <time>2016-06-07T12:22:00Z</time>
      </trkpt>
      <trkpt lat="48.47206" lon="-2.50181">
        <ele>46</ele>
        <time>2016-06-07T12:22:04Z</time>
      </trkpt>
      <trkpt lat="48.47203" lon="-2.50176">
        <ele>46</ele>
        <time>2016-06-07T12:22:08Z</time>
      </trkpt>
      <trkpt lat="48.47201" lon="-2.5017">
        <ele>46</ele>
        <time>2016-06-07T12:22:12Z</time>
      </trkpt>
      <trkpt lat="48.47199" lon="-2.50165">
        <ele>46</ele>
        <time>2016-06-07T12:22:16Z</time>
      </trkpt>
      <trkpt lat="48.47196" lon="-2.5016">
        <ele>46</ele>
        <time>2016-06-07T12:22:20Z</time>
      </trkpt>
      <trkpt lat="48.47194" lon="-2.50155">
        <ele>46</ele>
        <time>2016-06-07T12:22:24Z</time>
      </trkpt>
      <trkpt lat="48.47191" lon="-2.5015">
        <ele>46</ele>
        <time>2016-06-07T12:22:28Z</time>
      </trkpt>
      <trkpt lat="48.47189" lon="-2.50145">
        <ele>46</ele>
        <time>2016-06-07T12:22:32Z</time>
      </trkpt>
      <trkpt lat="48.47186" lon="-2.5014">
        <ele>46</ele>
        <time>2016-06-07T12:22:36Z</time>
      </trkpt>
      <trkpt lat="48.47183" lon="-2.50135">
        <ele>46</ele>
        <time>2016-06-07T12:22:40Z</time>
      </trkpt>
      <trkpt lat="48.4718" lon="-2.50131">
        <ele>46</ele>
        <time>2016-06-07T12:22:44Z</time>
      </trkpt>
      <trkpt lat="48.47177" lon="-2.50126">
        <ele>46</ele>
        <time>2016-06-07T12:22:48Z</time>
      </trkpt>
      <trkpt lat="48.47173" lon="-2.50122">
        <ele>46</ele>
        <time>2016-06-07T12:22:52Z</time>
      </trkpt>
      <trkpt lat="48.4717" lon="-2.50118">
        <ele>46</ele>
        <time>2016-06-07T12:22:56Z</time>
      </trkpt>
      <trkpt lat="48.47167" lon="-2.50114">
        <ele>46</ele>
        <time>2016-06-07T12:23:00Z</time>
      </trkpt>
      <trkpt lat="48.47163" lon="-2.5011">
        <ele>46</ele>
        <time>2016-06-07T12:23:04Z</time>
      </trkpt>
      <trkpt lat="48.4716" lon="-2.50106">
        <ele>46</ele>
        <time>2016-06-07T12:23:08Z</time>
      </trkpt>
      <trkpt lat="48.47156" lon="-2.50102">
        <ele>46</ele>
        <time>2016-06-07T12:23:12Z</time>
      </trkpt>
      <trkpt lat="48.47153" lon="-2.50098">
        <ele>46</ele>
        <time>2016-06-07T12:23:16Z</time>
      </trkpt>
      <trkpt lat="48.47149" lon="-2.50094">
        <ele>46</ele>
        <time>2016-06-07T12:23:20Z</time>
      </trkpt>
      <trkpt lat="48.47145" lon="-2.5009">
        <ele>46</ele>
        <time>2016-06-07T12:23:24Z</time>
      </trkpt>
      <trkpt lat="48.47142" lon="-2.50086">
        <ele>46</ele>
        <time>2016-06-07T12:23:28Z</time>
      </trkpt>
      <trkpt lat="48.47139" lon="-2.50082">
        <ele>46</ele>
        <time>2016-06-07T12:23:32Z</time>
      </trkpt>
      <trkpt lat="48.47136" lon="-2.50077">
        <ele>46</ele>
        <time>2016-06-07T12:23:36Z</time>
      </trkpt>
      <trkpt lat="48.47132" lon="-2.50073">
        <ele>46</ele>
        <time>2016-06-07T12:23:40Z</time>
      </trkpt>
      <trkpt lat="48.47129" lon="-2.50067">
        <ele>46</ele>
        <time>2016-06-07T12:23:44Z</time>
      </trkpt>
      <trkpt lat="48.47126" lon="-2.50063">
        <ele>46</ele>
        <time>2016-06-07T12:23:48Z</time>
      </trkpt>
      <trkpt lat="48.47124" lon="-2.50057">
        <ele>46</ele>
        <time>2016-06-07T12:23:52Z</time>
      </trkpt>
      <trkpt lat="48.47122" lon="-2.50052">
        <ele>46</ele>
        <time>2016-06-07T12:23:56Z</time>
      </trkpt>
      <trkpt lat="48.4712" lon="-2.50047">
        <ele>46</ele>
        <time>2016-06-07T12:24:00Z</time>
      </trkpt>
      <trkpt lat="48.47118" lon="-2.50041">
        <ele>46</ele>
        <time>2016-06-07T12:24:04Z</time>
      </trkpt>
      <trkpt lat="48.47116" lon="-2.50035">
        <ele>46</ele>
        <time>2016-06-07T12:24:08Z</time>
      </trkpt>
      <trkpt lat="48.47116" lon="-2.5003">
        <ele>46</ele>
        <time>2016-06-07T12:24:11Z</time>
      </trkpt>
      <trkpt lat="48.47114" lon="-2.50024">
        <ele>46</ele>
        <time>2016-06-07T12:24:15Z</time>
      </trkpt>
      <trkpt lat="48.47113" lon="-2.50019">
        <ele>46</ele>
        <time>2016-06-07T12:24:18Z</time>
      </trkpt>
      <trkpt lat="48.47112" lon="-2.50013">
        <ele>46</ele>
        <time>2016-06-07T12:24:22Z</time>
      </trkpt>
      <trkpt lat="48.47112" lon="-2.50008">
        <ele>46</ele>
        <time>2016-06-07T12:24:26Z</time>
      </trkpt>
      <trkpt lat="48.47111" lon="-2.50002">
        <ele>46</ele>
        <time>2016-06-07T12:24:30Z</time>
      </trkpt>
      <trkpt lat="48.4711" lon="-2.49997">
        <ele>46</ele>
        <time>2016-06-07T12:24:33Z</time>
      </trkpt>
      <trkpt lat="48.4711" lon="-2.49992">
        <ele>46</ele>
        <time>2016-06-07T12:24:36Z</time>
      </trkpt>
      <trkpt lat="48.47109" lon="-2.49987">
        <ele>46</ele>
        <time>2016-06-07T12:24:39Z</time>
      </trkpt>
      <trkpt lat="48.47108" lon="-2.49983">
        <ele>46</ele>
        <time>2016-06-07T12:24:42Z</time>
      </trkpt>
      <trkpt lat="48.47108" lon="-2.49978">
        <ele>46</ele>
        <time>2016-06-07T12:24:45Z</time>
      </trkpt>
      <trkpt lat="48.47107" lon="-2.49972">
        <ele>46</ele>
        <time>2016-06-07T12:24:48Z</time>
      </trkpt>
      <trkpt lat="48.47107" lon="-2.49965">
        <ele>46</ele>
        <time>2016-06-07T12:24:51Z</time>
      </trkpt>
      <trkpt lat="48.47105" lon="-2.49959">
        <ele>46</ele>
        <time>2016-06-07T12:24:55Z</time>
      </trkpt>
      <trkpt lat="48.47104" lon="-2.49956">
        <ele>46</ele>
        <time>2016-06-07T12:24:58Z</time>
      </trkpt>
      <trkpt lat="48.47103" lon="-2.49951">
        <ele>46</ele>
        <time>2016-06-07T12:25:01Z</time>
      </trkpt>
      <trkpt lat="48.47102" lon="-2.49944">
        <ele>46</ele>
        <time>2016-06-07T12:25:05Z</time>
      </trkpt>
      <trkpt lat="48.471" lon="-2.49939">
        <ele>46</ele>
        <time>2016-06-07T12:25:09Z</time>
      </trkpt>
      <trkpt lat="48.47099" lon="-2.49933">
        <ele>46</ele>
        <time>2016-06-07T12:25:13Z</time>
      </trkpt>
      <trkpt lat="48.47098" lon="-2.49928">
        <ele>46</ele>
        <time>2016-06-07T12:25:16Z</time>
      </trkpt>
      <trkpt lat="48.47097" lon="-2.49924">
        <ele>46</ele>
        <time>2016-06-07T12:25:19Z</time>
      </trkpt>
      <trkpt lat="48.47095" lon="-2.49918">
        <ele>46</ele>
        <time>2016-06-07T12:25:23Z</time>
      </trkpt>
      <trkpt lat="48.47094" lon="-2.49912">
        <ele>46</ele>
        <time>2016-06-07T12:25:27Z</time>
      </trkpt>
      <trkpt lat="48.47092" lon="-2.49907">
        <ele>46</ele>
        <time>2016-06-07T12:25:30Z</time>
      </trkpt>
      <trkpt lat="48.47091" lon="-2.49901">
        <ele>46</ele>
        <time>2016-06-07T12:25:34Z</time>
      </trkpt>
      <trkpt lat="48.4709" lon="-2.49896">
        <ele>46</ele>
        <time>2016-06-07T12:25:38Z</time>
      </trkpt>
      <trkpt lat="48.47088" lon="-2.4989">
        <ele>46</ele>
        <time>2016-06-07T12:25:42Z</time>
      </trkpt>
      <trkpt lat="48.47086" lon="-2.49884">
        <ele>46</ele>
        <time>2016-06-07T12:25:46Z</time>
      </trkpt>
      <trkpt lat="48.47085" lon="-2.49878">
        <ele>46</ele>
        <time>2016-06-07T12:25:50Z</time>
      </trkpt>
      <trkpt lat="48.47083" lon="-2.49872">
        <ele>46</ele>
        <time>2016-06-07T12:25:54Z</time>
      </trkpt>
      <trkpt lat="48.47082" lon="-2.49866">
        <ele>46</ele>
        <time>2016-06-07T12:25:58Z</time>
      </trkpt>
      <trkpt lat="48.47081" lon="-2.49862">
        <ele>46</ele>
        <time>2016-06-07T12:26:01Z</time>
      </trkpt>
      <trkpt lat="48.47079" lon="-2.49856">
        <ele>46</ele>
        <time>2016-06-07T12:26:05Z</time>
      </trkpt>
      <trkpt lat="48.47078" lon="-2.4985">
        <ele>46</ele>
        <time>2016-06-07T12:26:09Z</time>
      </trkpt>
      <trkpt lat="48.47077" lon="-2.49845">
        <ele>46</ele>
        <time>2016-06-07T12:26:12Z</time>
      </trkpt>
      <trkpt lat="48.47076" lon="-2.4984">
        <ele>46</ele>
        <time>2016-06-07T12:26:15Z</time>
      </trkpt>
      <trkpt lat="48.47075" lon="-2.49834">
        <ele>46</ele>
        <time>2016-06-07T12:26:19Z</time>
      </trkpt>
      <trkpt lat="48.47074" lon="-2.49829">
        <ele>46</ele>
        <time>2016-06-07T12:26:22Z</time>
      </trkpt>
      <trkpt lat="48.47074" lon="-2.49825">
        <ele>46</ele>
        <time>2016-06-07T12:26:25Z</time>
      </trkpt>
      <trkpt lat="48.47075" lon="-2.49818">
        <ele>46</ele>
        <time>2016-06-07T12:26:29Z</time>
      </trkpt>
      <trkpt lat="48.47076" lon="-2.49813">
        <ele>46</ele>
        <time>2016-06-07T12:26:32Z</time>
      </trkpt>
      <trkpt lat="48.47077" lon="-2.49807">
        <ele>46</ele>
        <time>2016-06-07T12:26:36Z</time>
      </trkpt>
      <trkpt lat="48.47078" lon="-2.49802">
        <ele>46</ele>
        <time>2016-06-07T12:26:39Z</time>
      </trkpt>
      <trkpt lat="48.47078" lon="-2.49797">
        <ele>46</ele>
        <time>2016-06-07T12:26:42Z</time>
      </trkpt>
      <trkpt lat="48.47078" lon="-2.49792">
        <ele>46</ele>
        <time>2016-06-07T12:26:45Z</time>
      </trkpt>
      <trkpt lat="48.47077" lon="-2.49787">
        <ele>46</ele>
        <time>2016-06-07T12:26:48Z</time>
      </trkpt>
      <trkpt lat="48.47076" lon="-2.49782">
        <ele>46</ele>
        <time>2016-06-07T12:26:51Z</time>
      </trkpt>
      <trkpt lat="48.47075" lon="-2.49776">
        <ele>46</ele>
        <time>2016-06-07T12:26:55Z</time>
      </trkpt>
      <trkpt lat="48.47073" lon="-2.49771">
        <ele>46</ele>
        <time>2016-06-07T12:26:59Z</time>
      </trkpt>
      <trkpt lat="48.47071" lon="-2.49765">
        <ele>46</ele>
        <time>2016-06-07T12:27:03Z</time>
      </trkpt>
      <trkpt lat="48.4707" lon="-2.49759">
        <ele>46</ele>
        <time>2016-06-07T12:27:07Z</time>
      </trkpt>
      <trkpt lat="48.47069" lon="-2.49752">
        <ele>46</ele>
        <time>2016-06-07T12:27:11Z</time>
      </trkpt>
      <trkpt lat="48.47069" lon="-2.49746">
        <ele>46</ele>
        <time>2016-06-07T12:27:15Z</time>
      </trkpt>
      <trkpt lat="48.47068" lon="-2.49741">
        <ele>46</ele>
        <time>2016-06-07T12:27:19Z</time>
      </trkpt>
      <trkpt lat="48.47068" lon="-2.49735">
        <ele>46</ele>
        <time>2016-06-07T12:27:23Z</time>
      </trkpt>
      <trkpt lat="48.47067" lon="-2.49728">
        <ele>46</ele>
        <time>2016-06-07T12:27:27Z</time>
      </trkpt>
      <trkpt lat="48.47067" lon="-2.49722">
        <ele>46</ele>
        <time>2016-06-07T12:27:31Z</time>
      </trkpt>
      <trkpt lat="48.47067" lon="-2.49717">
        <ele>46</ele>
        <time>2016-06-07T12:27:34Z</time>
      </trkpt>
      <trkpt lat="48.47067" lon="-2.49713">
        <ele>46</ele>
        <time>2016-06-07T12:27:37Z</time>
      </trkpt>
      <trkpt lat="48.47068" lon="-2.49709">
        <ele>46</ele>
        <time>2016-06-07T12:27:40Z</time>
      </trkpt>
      <trkpt lat="48.47068" lon="-2.49703">
        <ele>46</ele>
        <time>2016-06-07T12:27:44Z</time>
      </trkpt>
      <trkpt lat="48.47069" lon="-2.49696">
        <ele>46</ele>
        <time>2016-06-07T12:27:48Z</time>
      </trkpt>
      <trkpt lat="48.4707" lon="-2.49692">
        <ele>46</ele>
        <time>2016-06-07T12:27:51Z</time>
      </trkpt>
      <trkpt lat="48.47071" lon="-2.49686">
        <ele>46</ele>
        <time>2016-06-07T12:27:55Z</time>
      </trkpt>
      <trkpt lat="48.47072" lon="-2.49681">
        <ele>46</ele>
        <time>2016-06-07T12:27:58Z</time>
      </trkpt>
      <trkpt lat="48.47071" lon="-2.49677">
        <ele>46</ele>
        <time>2016-06-07T12:28:01Z</time>
      </trkpt>
      <trkpt lat="48.47073" lon="-2.49671">
        <ele>46</ele>
        <time>2016-06-07T12:28:05Z</time>
      </trkpt>
      <trkpt lat="48.47075" lon="-2.49665">
        <ele>46</ele>
        <time>2016-06-07T12:28:09Z</time>
      </trkpt>
      <trkpt lat="48.47077" lon="-2.4966">
        <ele>46</ele>
        <time>2016-06-07T12:28:13Z</time>
      </trkpt>
      <trkpt lat="48.47079" lon="-2.49655">
        <ele>46</ele>
        <time>2016-06-07T12:28:17Z</time>
      </trkpt>
      <trkpt lat="48.47081" lon="-2.4965">
        <ele>46</ele>
        <time>2016-06-07T12:28:21Z</time>
      </trkpt>
      <trkpt lat="48.47083" lon="-2.49644">
        <ele>46</ele>
        <time>2016-06-07T12:28:25Z</time>
      </trkpt>
      <trkpt lat="48.47084" lon="-2.49639">
        <ele>46</ele>
        <time>2016-06-07T12:28:28Z</time>
      </trkpt>
      <trkpt lat="48.47085" lon="-2.49634">
        <ele>46</ele>
        <time>2016-06-07T12:28:31Z</time>
      </trkpt>
      <trkpt lat="48.47086" lon="-2.49629">
        <ele>46</ele>
        <time>2016-06-07T12:28:34Z</time>
      </trkpt>
      <trkpt lat="48.47086" lon="-2.49624">
        <ele>46</ele>
        <time>2016-06-07T12:28:37Z</time>
      </trkpt>
      <trkpt lat="48.47086" lon="-2.49619">
        <ele>46</ele>
        <time>2016-06-07T12:28:40Z</time>
      </trkpt>
      <trkpt lat="48.47086" lon="-2.49615">
        <ele>46</ele>
        <time>2016-06-07T12:28:43Z</time>
      </trkpt>
      <trkpt lat="48.47085" lon="-2.49608">
        <ele>46</ele>
        <time>2016-06-07T12:28:47Z</time>
      </trkpt>
      <trkpt lat="48.47085" lon="-2.49603">
        <ele>46</ele>
        <time>2016-06-07T12:28:50Z</time>
      </trkpt>
      <trkpt lat="48.47084" lon="-2.49598">
        <ele>46</ele>
        <time>2016-06-07T12:28:54Z</time>
      </trkpt>
      <trkpt lat="48.47083" lon="-2.49592">
        <ele>46</ele>
        <time>2016-06-07T12:28:58Z</time>
      </trkpt>
      <trkpt lat="48.47082" lon="-2.49587">
        <ele>46</ele>
        <time>2016-06-07T12:29:01Z</time>
      </trkpt>
      <trkpt lat="48.47081" lon="-2.49582">
        <ele>46</ele>
        <time>2016-06-07T12:29:05Z</time>
      </trkpt>
      <trkpt lat="48.47079" lon="-2.49576">
        <ele>46</ele>
        <time>2016-06-07T12:29:09Z</time>
      </trkpt>
      <trkpt lat="48.47078" lon="-2.49571">
        <ele>46</ele>
        <time>2016-06-07T12:29:12Z</time>
      </trkpt>
      <trkpt lat="48.47077" lon="-2.49565">
        <ele>46</ele>
        <time>2016-06-07T12:29:16Z</time>
      </trkpt>
      <trkpt lat="48.47075" lon="-2.4956">
        <ele>46</ele>
        <time>2016-06-07T12:29:19Z</time>
      </trkpt>
      <trkpt lat="48.47073" lon="-2.49555">
        <ele>46</ele>
        <time>2016-06-07T12:29:22Z</time>
      </trkpt>
      <trkpt lat="48.47071" lon="-2.49549">
        <ele>46</ele>
        <time>2016-06-07T12:29:26Z</time>
      </trkpt>
      <trkpt lat="48.4707" lon="-2.49544">
        <ele>46</ele>
        <time>2016-06-07T12:29:29Z</time>
      </trkpt>
      <trkpt lat="48.47068" lon="-2.49538">
        <ele>46</ele>
        <time>2016-06-07T12:29:33Z</time>
      </trkpt>
      <trkpt lat="48.47066" lon="-2.49532">
        <ele>46</ele>
        <time>2016-06-07T12:29:37Z</time>
      </trkpt>
      <trkpt lat="48.47063" lon="-2.49527">
        <ele>46</ele>
        <time>2016-06-07T12:29:41Z</time>
      </trkpt>
      <trkpt lat="48.4706" lon="-2.49523">
        <ele>46</ele>
        <time>2016-06-07T12:29:45Z</time>
      </trkpt>
      <trkpt lat="48.47056" lon="-2.49519">
        <ele>46</ele>
        <time>2016-06-07T12:29:49Z</time>
      </trkpt>
      <trkpt lat="48.47052" lon="-2.49517">
        <ele>46</ele>
        <time>2016-06-07T12:29:53Z</time>
      </trkpt>
      <trkpt lat="48.47048" lon="-2.49515">
        <ele>46</ele>
        <time>2016-06-07T12:29:57Z</time>
      </trkpt>
      <trkpt lat="48.47044" lon="-2.49512">
        <ele>46</ele>
        <time>2016-06-07T12:30:01Z</time>
      </trkpt>
      <trkpt lat="48.4704" lon="-2.49509">
        <ele>46</ele>
        <time>2016-06-07T12:30:05Z</time>
      </trkpt>
      <trkpt lat="48.47037" lon="-2.49507">
        <ele>46</ele>
        <time>2016-06-07T12:30:08Z</time>
      </trkpt>
      <trkpt lat="48.47033" lon="-2.49503">
        <ele>46</ele>
        <time>2016-06-07T12:30:12Z</time>
      </trkpt>
      <trkpt lat="48.47029" lon="-2.495">
        <ele>46</ele>
        <time>2016-06-07T12:30:16Z</time>
      </trkpt>
      <trkpt lat="48.47025" lon="-2.49498">
        <ele>46</ele>
        <time>2016-06-07T12:30:20Z</time>
      </trkpt>
      <trkpt lat="48.47021" lon="-2.49495">
        <ele>46</ele>
        <time>2016-06-07T12:30:24Z</time>
      </trkpt>
      <trkpt lat="48.47018" lon="-2.49492">
        <ele>46</ele>
        <time>2016-06-07T12:30:27Z</time>
      </trkpt>
      <trkpt lat="48.47015" lon="-2.49489">
        <ele>46</ele>
        <time>2016-06-07T12:30:31Z</time>
      </trkpt>
      <trkpt lat="48.47011" lon="-2.49487">
        <ele>46</ele>
        <time>2016-06-07T12:30:34Z</time>
      </trkpt>
      <trkpt lat="48.47008" lon="-2.49485">
        <ele>46</ele>
        <time>2016-06-07T12:30:37Z</time>
      </trkpt>
      <trkpt lat="48.47004" lon="-2.49483">
        <ele>46</ele>
        <time>2016-06-07T12:30:41Z</time>
      </trkpt>
      <trkpt lat="48.47001" lon="-2.49482">
        <ele>46</ele>
        <time>2016-06-07T12:30:44Z</time>
      </trkpt>
      <trkpt lat="48.46997" lon="-2.4948">
        <ele>46</ele>
        <time>2016-06-07T12:30:47Z</time>
      </trkpt>
      <trkpt lat="48.46993" lon="-2.49477">
        <ele>46</ele>
        <time>2016-06-07T12:30:51Z</time>
      </trkpt>
      <trkpt lat="48.4699" lon="-2.49477">
        <ele>46</ele>
        <time>2016-06-07T12:30:54Z</time>
      </trkpt>
      <trkpt lat="48.46987" lon="-2.49476">
        <ele>46</ele>
        <time>2016-06-07T12:30:57Z</time>
      </trkpt>
      <trkpt lat="48.46983" lon="-2.49475">
        <ele>46</ele>
        <time>2016-06-07T12:31:01Z</time>
      </trkpt>
      <trkpt lat="48.46979" lon="-2.49475">
        <ele>46</ele>
        <time>2016-06-07T12:31:04Z</time>
      </trkpt>
      <trkpt lat="48.46976" lon="-2.49476">
        <ele>46</ele>
        <time>2016-06-07T12:31:07Z</time>
      </trkpt>
      <trkpt lat="48.46972" lon="-2.49478">
        <ele>46</ele>
        <time>2016-06-07T12:31:10Z</time>
      </trkpt>
      <trkpt lat="48.46969" lon="-2.4948">
        <ele>46</ele>
        <time>2016-06-07T12:31:13Z</time>
      </trkpt>
      <trkpt lat="48.46965" lon="-2.49482">
        <ele>46</ele>
        <time>2016-06-07T12:31:17Z</time>
      </trkpt>
      <trkpt lat="48.46961" lon="-2.49484">
        <ele>48</ele>
        <time>2016-06-07T12:31:20Z</time>
      </trkpt>
      <trkpt lat="48.46958" lon="-2.49486">
        <ele>50</ele>
        <time>2016-06-07T12:31:23Z</time>
      </trkpt>
      <trkpt lat="48.46954" lon="-2.4949">
        <ele>51</ele>
        <time>2016-06-07T12:31:27Z</time>
      </trkpt>
      <trkpt lat="48.4695" lon="-2.49494">
        <ele>53</ele>
        <time>2016-06-07T12:31:31Z</time>
      </trkpt>
      <trkpt lat="48.46946" lon="-2.49499">
        <ele>54</ele>
        <time>2016-06-07T12:31:35Z</time>
      </trkpt>
      <trkpt lat="48.46943" lon="-2.49504">
        <ele>56</ele>
        <time>2016-06-07T12:31:39Z</time>
      </trkpt>
      <trkpt lat="48.4694" lon="-2.49508">
        <ele>56</ele>
        <time>2016-06-07T12:31:43Z</time>
      </trkpt>
      <trkpt lat="48.46937" lon="-2.49513">
        <ele>56</ele>
        <time>2016-06-07T12:31:47Z</time>
      </trkpt>
      <trkpt lat="48.46935" lon="-2.49518">
        <ele>56</ele>
        <time>2016-06-07T12:31:51Z</time>
      </trkpt>
      <trkpt lat="48.46933" lon="-2.49523">
        <ele>56</ele>
        <time>2016-06-07T12:31:55Z</time>
      </trkpt>
      <trkpt lat="48.4693" lon="-2.49526">
        <ele>56</ele>
        <time>2016-06-07T12:31:59Z</time>
      </trkpt>
      <trkpt lat="48.46928" lon="-2.4953">
        <ele>56</ele>
        <time>2016-06-07T12:32:03Z</time>
      </trkpt>
      <trkpt lat="48.46926" lon="-2.49532">
        <ele>56</ele>
        <time>2016-06-07T12:32:06Z</time>
      </trkpt>
      <trkpt lat="48.46924" lon="-2.49535">
        <ele>54</ele>
        <time>2016-06-07T12:32:11Z</time>
      </trkpt>
      <trkpt lat="48.46923" lon="-2.49536">
        <ele>53</ele>
        <time>2016-06-07T12:32:14Z</time>
      </trkpt>
      <trkpt lat="48.46921" lon="-2.49538">
        <ele>52</ele>
        <time>2016-06-07T12:32:17Z</time>
      </trkpt>
      <trkpt lat="48.46918" lon="-2.49541">
        <ele>52</ele>
        <time>2016-06-07T12:32:22Z</time>
      </trkpt>
      <trkpt lat="48.46917" lon="-2.49543">
        <ele>52</ele>
        <time>2016-06-07T12:32:25Z</time>
      </trkpt>
      <trkpt lat="48.46913" lon="-2.49545">
        <ele>52</ele>
        <time>2016-06-07T12:32:29Z</time>
      </trkpt>
      <trkpt lat="48.4691" lon="-2.49547">
        <ele>52</ele>
        <time>2016-06-07T12:32:33Z</time>
      </trkpt>
      <trkpt lat="48.46908" lon="-2.49548">
        <ele>51</ele>
        <time>2016-06-07T12:32:37Z</time>
      </trkpt>
      <trkpt lat="48.46904" lon="-2.4955">
        <ele>51</ele>
        <time>2016-06-07T12:32:41Z</time>
      </trkpt>
      <trkpt lat="48.46901" lon="-2.49551">
        <ele>50</ele>
        <time>2016-06-07T12:32:45Z</time>
      </trkpt>
      <trkpt lat="48.46897" lon="-2.49548">
        <ele>50</ele>
        <time>2016-06-07T12:32:49Z</time>
      </trkpt>
      <trkpt lat="48.46894" lon="-2.49545">
        <ele>50</ele>
        <time>2016-06-07T12:32:53Z</time>
      </trkpt>
      <trkpt lat="48.4689" lon="-2.49541">
        <ele>50</ele>
        <time>2016-06-07T12:32:57Z</time>
      </trkpt>
      <trkpt lat="48.46886" lon="-2.49538">
        <ele>50</ele>
        <time>2016-06-07T12:33:00Z</time>
      </trkpt>
      <trkpt lat="48.46883" lon="-2.49534">
        <ele>50</ele>
        <time>2016-06-07T12:33:05Z</time>
      </trkpt>
      <trkpt lat="48.4688" lon="-2.49529">
        <ele>50</ele>
        <time>2016-06-07T12:33:09Z</time>
      </trkpt>
      <trkpt lat="48.46876" lon="-2.49523">
        <ele>50</ele>
        <time>2016-06-07T12:33:13Z</time>
      </trkpt>
      <trkpt lat="48.46873" lon="-2.49519">
        <ele>50</ele>
        <time>2016-06-07T12:33:17Z</time>
      </trkpt>
      <trkpt lat="48.4687" lon="-2.49516">
        <ele>50</ele>
        <time>2016-06-07T12:33:21Z</time>
      </trkpt>
      <trkpt lat="48.46868" lon="-2.49514">
        <ele>50</ele>
        <time>2016-06-07T12:33:24Z</time>
      </trkpt>
      <trkpt lat="48.46866" lon="-2.49509">
        <ele>50</ele>
        <time>2016-06-07T12:33:28Z</time>
      </trkpt>
      <trkpt lat="48.46863" lon="-2.49504">
        <ele>50</ele>
        <time>2016-06-07T12:33:32Z</time>
      </trkpt>
      <trkpt lat="48.46861" lon="-2.49501">
        <ele>50</ele>
        <time>2016-06-07T12:33:35Z</time>
      </trkpt>
      <trkpt lat="48.46859" lon="-2.49497">
        <ele>49</ele>
        <time>2016-06-07T12:33:39Z</time>
      </trkpt>
      <trkpt lat="48.46855" lon="-2.49494">
        <ele>49</ele>
        <time>2016-06-07T12:33:42Z</time>
      </trkpt>
      <trkpt lat="48.46852" lon="-2.49496">
        <ele>49</ele>
        <time>2016-06-07T12:33:46Z</time>
      </trkpt>
      <trkpt lat="48.46849" lon="-2.49499">
        <ele>49</ele>
        <time>2016-06-07T12:33:50Z</time>
      </trkpt>
      <trkpt lat="48.46846" lon="-2.49501">
        <ele>49</ele>
        <time>2016-06-07T12:33:53Z</time>
      </trkpt>
      <trkpt lat="48.46843" lon="-2.49505">
        <ele>49</ele>
        <time>2016-06-07T12:33:57Z</time>
      </trkpt>
      <trkpt lat="48.46839" lon="-2.49508">
        <ele>49</ele>
        <time>2016-06-07T12:34:01Z</time>
      </trkpt>
      <trkpt lat="48.46836" lon="-2.49512">
        <ele>49</ele>
        <time>2016-06-07T12:34:05Z</time>
      </trkpt>
      <trkpt lat="48.46833" lon="-2.49518">
        <ele>49</ele>
        <time>2016-06-07T12:34:09Z</time>
      </trkpt>
      <trkpt lat="48.46831" lon="-2.49523">
        <ele>49</ele>
        <time>2016-06-07T12:34:13Z</time>
      </trkpt>
      <trkpt lat="48.46828" lon="-2.49527">
        <ele>49</ele>
        <time>2016-06-07T12:34:17Z</time>
      </trkpt>
      <trkpt lat="48.46825" lon="-2.49531">
        <ele>51</ele>
        <time>2016-06-07T12:34:21Z</time>
      </trkpt>
      <trkpt lat="48.46821" lon="-2.49534">
        <ele>53</ele>
        <time>2016-06-07T12:34:25Z</time>
      </trkpt>
      <trkpt lat="48.46818" lon="-2.49538">
        <ele>54</ele>
        <time>2016-06-07T12:34:29Z</time>
      </trkpt>
      <trkpt lat="48.46814" lon="-2.49542">
        <ele>55</ele>
        <time>2016-06-07T12:34:33Z</time>
      </trkpt>
      <trkpt lat="48.46813" lon="-2.49546">
        <ele>55</ele>
        <time>2016-06-07T12:34:36Z</time>
      </trkpt>
      <trkpt lat="48.46811" lon="-2.49551">
        <ele>55</ele>
        <time>2016-06-07T12:34:40Z</time>
      </trkpt>
      <trkpt lat="48.46808" lon="-2.49555">
        <ele>55</ele>
        <time>2016-06-07T12:34:43Z</time>
      </trkpt>
      <trkpt lat="48.46807" lon="-2.49561">
        <ele>55</ele>
        <time>2016-06-07T12:34:47Z</time>
      </trkpt>
      <trkpt lat="48.46804" lon="-2.49565">
        <ele>55</ele>
        <time>2016-06-07T12:34:51Z</time>
      </trkpt>
      <trkpt lat="48.46801" lon="-2.4957">
        <ele>55</ele>
        <time>2016-06-07T12:34:55Z</time>
      </trkpt>
      <trkpt lat="48.46799" lon="-2.49574">
        <ele>55</ele>
        <time>2016-06-07T12:34:58Z</time>
      </trkpt>
      <trkpt lat="48.46796" lon="-2.49578">
        <ele>55</ele>
        <time>2016-06-07T12:35:02Z</time>
      </trkpt>
      <trkpt lat="48.46795" lon="-2.49583">
        <ele>55</ele>
        <time>2016-06-07T12:35:06Z</time>
      </trkpt>
      <trkpt lat="48.46791" lon="-2.49587">
        <ele>55</ele>
        <time>2016-06-07T12:35:10Z</time>
      </trkpt>
      <trkpt lat="48.46788" lon="-2.49592">
        <ele>55</ele>
        <time>2016-06-07T12:35:13Z</time>
      </trkpt>
      <trkpt lat="48.46786" lon="-2.49597">
        <ele>55</ele>
        <time>2016-06-07T12:35:17Z</time>
      </trkpt>
      <trkpt lat="48.46784" lon="-2.49601">
        <ele>55</ele>
        <time>2016-06-07T12:35:20Z</time>
      </trkpt>
      <trkpt lat="48.46782" lon="-2.49607">
        <ele>55</ele>
        <time>2016-06-07T12:35:24Z</time>
      </trkpt>
      <trkpt lat="48.46779" lon="-2.49613">
        <ele>54</ele>
        <time>2016-06-07T12:35:28Z</time>
      </trkpt>
      <trkpt lat="48.46779" lon="-2.49618">
        <ele>53</ele>
        <time>2016-06-07T12:35:31Z</time>
      </trkpt>
      <trkpt lat="48.46779" lon="-2.49623">
        <ele>50</ele>
        <time>2016-06-07T12:35:35Z</time>
      </trkpt>
      <trkpt lat="48.46781" lon="-2.49628">
        <ele>48</ele>
        <time>2016-06-07T12:35:39Z</time>
      </trkpt>
      <trkpt lat="48.46784" lon="-2.49632">
        <ele>47</ele>
        <time>2016-06-07T12:35:43Z</time>
      </trkpt>
      <trkpt lat="48.46787" lon="-2.49634">
        <ele>45</ele>
        <time>2016-06-07T12:35:46Z</time>
      </trkpt>
      <trkpt lat="48.4679" lon="-2.49635">
        <ele>44</ele>
        <time>2016-06-07T12:35:49Z</time>
      </trkpt>
      <trkpt lat="48.46793" lon="-2.49636">
        <ele>43</ele>
        <time>2016-06-07T12:35:53Z</time>
      </trkpt>
      <trkpt lat="48.46797" lon="-2.49636">
        <ele>42</ele>
        <time>2016-06-07T12:35:57Z</time>
      </trkpt>
      <trkpt lat="48.46801" lon="-2.49636">
        <ele>42</ele>
        <time>2016-06-07T12:36:01Z</time>
      </trkpt>
      <trkpt lat="48.46804" lon="-2.49636">
        <ele>42</ele>
        <time>2016-06-07T12:36:04Z</time>
      </trkpt>
      <trkpt lat="48.46807" lon="-2.49637">
        <ele>42</ele>
        <time>2016-06-07T12:36:07Z</time>
      </trkpt>
      <trkpt lat="48.46812" lon="-2.49638">
        <ele>42</ele>
        <time>2016-06-07T12:36:10Z</time>
      </trkpt>
      <trkpt lat="48.46817" lon="-2.49639">
        <ele>42</ele>
        <time>2016-06-07T12:36:14Z</time>
      </trkpt>
      <trkpt lat="48.46819" lon="-2.49639">
        <ele>42</ele>
        <time>2016-06-07T12:36:17Z</time>
      </trkpt>
      <trkpt lat="48.46824" lon="-2.49639">
        <ele>42</ele>
        <time>2016-06-07T12:36:21Z</time>
      </trkpt>
      <trkpt lat="48.46827" lon="-2.4964">
        <ele>42</ele>
        <time>2016-06-07T12:36:24Z</time>
      </trkpt>
      <trkpt lat="48.46832" lon="-2.4964">
        <ele>42</ele>
        <time>2016-06-07T12:36:28Z</time>
      </trkpt>
      <trkpt lat="48.46835" lon="-2.4964">
        <ele>42</ele>
        <time>2016-06-07T12:36:31Z</time>
      </trkpt>
      <trkpt lat="48.4684" lon="-2.4964">
        <ele>42</ele>
        <time>2016-06-07T12:36:35Z</time>
      </trkpt>
      <trkpt lat="48.46842" lon="-2.49639">
        <ele>42</ele>
        <time>2016-06-07T12:36:38Z</time>
      </trkpt>
      <trkpt lat="48.46845" lon="-2.49639">
        <ele>42</ele>
        <time>2016-06-07T12:36:42Z</time>
      </trkpt>
      <trkpt lat="48.46848" lon="-2.49642">
        <ele>42</ele>
        <time>2016-06-07T12:36:46Z</time>
      </trkpt>
      <trkpt lat="48.46849" lon="-2.49647">
        <ele>42</ele>
        <time>2016-06-07T12:36:50Z</time>
      </trkpt>
      <trkpt lat="48.46849" lon="-2.49654">
        <ele>42</ele>
        <time>2016-06-07T12:36:54Z</time>
      </trkpt>
      <trkpt lat="48.46849" lon="-2.49658">
        <ele>42</ele>
        <time>2016-06-07T12:36:57Z</time>
      </trkpt>
      <trkpt lat="48.4685" lon="-2.49663">
        <ele>42</ele>
        <time>2016-06-07T12:37:00Z</time>
      </trkpt>
      <trkpt lat="48.4685" lon="-2.49668">
        <ele>42</ele>
        <time>2016-06-07T12:37:03Z</time>
      </trkpt>
      <trkpt lat="48.46851" lon="-2.49673">
        <ele>42</ele>
        <time>2016-06-07T12:37:06Z</time>
      </trkpt>
      <trkpt lat="48.46851" lon="-2.49679">
        <ele>42</ele>
        <time>2016-06-07T12:37:10Z</time>
      </trkpt>
      <trkpt lat="48.46852" lon="-2.49683">
        <ele>42</ele>
        <time>2016-06-07T12:37:13Z</time>
      </trkpt>
      <trkpt lat="48.46853" lon="-2.4969">
        <ele>43</ele>
        <time>2016-06-07T12:37:17Z</time>
      </trkpt>
      <trkpt lat="48.46854" lon="-2.49695">
        <ele>44</ele>
        <time>2016-06-07T12:37:21Z</time>
      </trkpt>
      <trkpt lat="48.46855" lon="-2.49701">
        <ele>44</ele>
        <time>2016-06-07T12:37:25Z</time>
      </trkpt>
      <trkpt lat="48.46856" lon="-2.49707">
        <ele>44</ele>
        <time>2016-06-07T12:37:29Z</time>
      </trkpt>
      <trkpt lat="48.46857" lon="-2.49712">
        <ele>44</ele>
        <time>2016-06-07T12:37:32Z</time>
      </trkpt>
      <trkpt lat="48.46858" lon="-2.49717">
        <ele>44</ele>
        <time>2016-06-07T12:37:36Z</time>
      </trkpt>
      <trkpt lat="48.46859" lon="-2.49723">
        <ele>44</ele>
        <time>2016-06-07T12:37:40Z</time>
      </trkpt>
      <trkpt lat="48.46861" lon="-2.49729">
        <ele>44</ele>
        <time>2016-06-07T12:37:44Z</time>
      </trkpt>
      <trkpt lat="48.46862" lon="-2.49734">
        <ele>44</ele>
        <time>2016-06-07T12:37:48Z</time>
      </trkpt>
      <trkpt lat="48.46864" lon="-2.4974">
        <ele>44</ele>
        <time>2016-06-07T12:37:52Z</time>
      </trkpt>
      <trkpt lat="48.46865" lon="-2.49746">
        <ele>44</ele>
        <time>2016-06-07T12:37:56Z</time>
      </trkpt>
      <trkpt lat="48.46866" lon="-2.49752">
        <ele>44</ele>
        <time>2016-06-07T12:38:00Z</time>
      </trkpt>
      <trkpt lat="48.46864" lon="-2.49757">
        <ele>44</ele>
        <time>2016-06-07T12:38:04Z</time>
      </trkpt>
      <trkpt lat="48.4686" lon="-2.4976">
        <ele>44</ele>
        <time>2016-06-07T12:38:08Z</time>
      </trkpt>
      <trkpt lat="48.46857" lon="-2.49761">
        <ele>44</ele>
        <time>2016-06-07T12:38:12Z</time>
      </trkpt>
      <trkpt lat="48.46853" lon="-2.49762">
        <ele>44</ele>
        <time>2016-06-07T12:38:16Z</time>
      </trkpt>
      <trkpt lat="48.46849" lon="-2.49764">
        <ele>44</ele>
        <time>2016-06-07T12:38:20Z</time>
      </trkpt>
      <trkpt lat="48.46846" lon="-2.49766">
        <ele>44</ele>
        <time>2016-06-07T12:38:24Z</time>
      </trkpt>
      <trkpt lat="48.46843" lon="-2.49767">
        <ele>44</ele>
        <time>2016-06-07T12:38:27Z</time>
      </trkpt>
      <trkpt lat="48.4684" lon="-2.49768">
        <ele>44</ele>
        <time>2016-06-07T12:38:30Z</time>
      </trkpt>
      <trkpt lat="48.46836" lon="-2.49771">
        <ele>44</ele>
        <time>2016-06-07T12:38:33Z</time>
      </trkpt>
      <trkpt lat="48.46833" lon="-2.49771">
        <ele>44</ele>
        <time>2016-06-07T12:38:36Z</time>
      </trkpt>
      <trkpt lat="48.4683" lon="-2.49773">
        <ele>44</ele>
        <time>2016-06-07T12:38:39Z</time>
      </trkpt>
      <trkpt lat="48.46826" lon="-2.49772">
        <ele>44</ele>
        <time>2016-06-07T12:38:42Z</time>
      </trkpt>
      <trkpt lat="48.46823" lon="-2.49771">
        <ele>44</ele>
        <time>2016-06-07T12:38:45Z</time>
      </trkpt>
      <trkpt lat="48.46819" lon="-2.49771">
        <ele>44</ele>
        <time>2016-06-07T12:38:48Z</time>
      </trkpt>
      <trkpt lat="48.46816" lon="-2.49771">
        <ele>44</ele>
        <time>2016-06-07T12:38:51Z</time>
      </trkpt>
      <trkpt lat="48.46812" lon="-2.49771">
        <ele>44</ele>
        <time>2016-06-07T12:38:55Z</time>
      </trkpt>
      <trkpt lat="48.46809" lon="-2.49772">
        <ele>44</ele>
        <time>2016-06-07T12:38:58Z</time>
      </trkpt>
      <trkpt lat="48.46805" lon="-2.4977">
        <ele>45</ele>
        <time>2016-06-07T12:39:02Z</time>
      </trkpt>
      <trkpt lat="48.46802" lon="-2.49769">
        <ele>45</ele>
        <time>2016-06-07T12:39:05Z</time>
      </trkpt>
      <trkpt lat="48.46797" lon="-2.49768">
        <ele>45</ele>
        <time>2016-06-07T12:39:09Z</time>
      </trkpt>
      <trkpt lat="48.46793" lon="-2.49768">
        <ele>45</ele>
        <time>2016-06-07T12:39:13Z</time>
      </trkpt>
      <trkpt lat="48.4679" lon="-2.49769">
        <ele>45</ele>
        <time>2016-06-07T12:39:17Z</time>
      </trkpt>
      <trkpt lat="48.46787" lon="-2.49767">
        <ele>46</ele>
        <time>2016-06-07T12:39:21Z</time>
      </trkpt>
      <trkpt lat="48.46783" lon="-2.49764">
        <ele>46</ele>
        <time>2016-06-07T12:39:25Z</time>
      </trkpt>
      <trkpt lat="48.4678" lon="-2.4976">
        <ele>46</ele>
        <time>2016-06-07T12:39:29Z</time>
      </trkpt>
      <trkpt lat="48.46777" lon="-2.49757">
        <ele>46</ele>
        <time>2016-06-07T12:39:33Z</time>
      </trkpt>
      <trkpt lat="48.46774" lon="-2.49755">
        <ele>46</ele>
        <time>2016-06-07T12:39:37Z</time>
      </trkpt>
      <trkpt lat="48.46769" lon="-2.49754">
        <ele>46</ele>
        <time>2016-06-07T12:39:41Z</time>
      </trkpt>
      <trkpt lat="48.46766" lon="-2.49753">
        <ele>46</ele>
        <time>2016-06-07T12:39:44Z</time>
      </trkpt>
      <trkpt lat="48.46763" lon="-2.49754">
        <ele>46</ele>
        <time>2016-06-07T12:39:47Z</time>
      </trkpt>
      <trkpt lat="48.46759" lon="-2.49756">
        <ele>46</ele>
        <time>2016-06-07T12:39:50Z</time>
      </trkpt>
      <trkpt lat="48.46755" lon="-2.49757">
        <ele>46</ele>
        <time>2016-06-07T12:39:53Z</time>
      </trkpt>
      <trkpt lat="48.46752" lon="-2.49758">
        <ele>46</ele>
        <time>2016-06-07T12:39:56Z</time>
      </trkpt>
      <trkpt lat="48.46749" lon="-2.49761">
        <ele>46</ele>
        <time>2016-06-07T12:39:59Z</time>
      </trkpt>
      <trkpt lat="48.46747" lon="-2.49763">
        <ele>47</ele>
        <time>2016-06-07T12:40:02Z</time>
      </trkpt>
      <trkpt lat="48.46743" lon="-2.49768">
        <ele>47</ele>
        <time>2016-06-07T12:40:06Z</time>
      </trkpt>
      <trkpt lat="48.4674" lon="-2.49773">
        <ele>49</ele>
        <time>2016-06-07T12:40:09Z</time>
      </trkpt>
      <trkpt lat="48.46737" lon="-2.49776">
        <ele>51</ele>
        <time>2016-06-07T12:40:13Z</time>
      </trkpt>
      <trkpt lat="48.46733" lon="-2.4978">
        <ele>52</ele>
        <time>2016-06-07T12:40:18Z</time>
      </trkpt>
      <trkpt lat="48.4673" lon="-2.49783">
        <ele>54</ele>
        <time>2016-06-07T12:40:22Z</time>
      </trkpt>
      <trkpt lat="48.46727" lon="-2.49787">
        <ele>54</ele>
        <time>2016-06-07T12:40:26Z</time>
      </trkpt>
      <trkpt lat="48.46725" lon="-2.49791">
        <ele>55</ele>
        <time>2016-06-07T12:40:30Z</time>
      </trkpt>
      <trkpt lat="48.46721" lon="-2.49795">
        <ele>55</ele>
        <time>2016-06-07T12:40:34Z</time>
      </trkpt>
      <trkpt lat="48.46718" lon="-2.49798">
        <ele>55</ele>
        <time>2016-06-07T12:40:38Z</time>
      </trkpt>
      <trkpt lat="48.46715" lon="-2.49802">
        <ele>55</ele>
        <time>2016-06-07T12:40:42Z</time>
      </trkpt>
      <trkpt lat="48.46712" lon="-2.49806">
        <ele>55</ele>
        <time>2016-06-07T12:40:46Z</time>
      </trkpt>
      <trkpt lat="48.46709" lon="-2.4981">
        <ele>55</ele>
        <time>2016-06-07T12:40:50Z</time>
      </trkpt>
      <trkpt lat="48.46705" lon="-2.49814">
        <ele>55</ele>
        <time>2016-06-07T12:40:54Z</time>
      </trkpt>
      <trkpt lat="48.46701" lon="-2.49818">
        <ele>55</ele>
        <time>2016-06-07T12:40:58Z</time>
      </trkpt>
      <trkpt lat="48.46697" lon="-2.4982">
        <ele>55</ele>
        <time>2016-06-07T12:41:02Z</time>
      </trkpt>
      <trkpt lat="48.46694" lon="-2.49823">
        <ele>55</ele>
        <time>2016-06-07T12:41:06Z</time>
      </trkpt>
      <trkpt lat="48.4669" lon="-2.49827">
        <ele>55</ele>
        <time>2016-06-07T12:41:10Z</time>
      </trkpt>
      <trkpt lat="48.46686" lon="-2.49831">
        <ele>55</ele>
        <time>2016-06-07T12:41:14Z</time>
      </trkpt>
      <trkpt lat="48.46683" lon="-2.49833">
        <ele>55</ele>
        <time>2016-06-07T12:41:17Z</time>
      </trkpt>
      <trkpt lat="48.46679" lon="-2.49835">
        <ele>56</ele>
        <time>2016-06-07T12:41:21Z</time>
      </trkpt>
      <trkpt lat="48.46675" lon="-2.49837">
        <ele>56</ele>
        <time>2016-06-07T12:41:25Z</time>
      </trkpt>
      <trkpt lat="48.46675" lon="-2.49835">
        <ele>56</ele>
        <time>2016-06-07T12:41:48Z</time>
      </trkpt>
      <trkpt lat="48.46674" lon="-2.49835">
        <ele>56</ele>
        <time>2016-06-07T12:41:55Z</time>
      </trkpt>
      <trkpt lat="48.4667" lon="-2.49837">
        <ele>56</ele>
        <time>2016-06-07T12:41:58Z</time>
      </trkpt>
      <trkpt lat="48.46666" lon="-2.49839">
        <ele>56</ele>
        <time>2016-06-07T12:42:01Z</time>
      </trkpt>
      <trkpt lat="48.46662" lon="-2.49841">
        <ele>56</ele>
        <time>2016-06-07T12:42:04Z</time>
      </trkpt>
      <trkpt lat="48.46659" lon="-2.49844">
        <ele>56</ele>
        <time>2016-06-07T12:42:07Z</time>
      </trkpt>
      <trkpt lat="48.46655" lon="-2.49847">
        <ele>56</ele>
        <time>2016-06-07T12:42:11Z</time>
      </trkpt>
      <trkpt lat="48.46651" lon="-2.49852">
        <ele>56</ele>
        <time>2016-06-07T12:42:15Z</time>
      </trkpt>
      <trkpt lat="48.46648" lon="-2.49858">
        <ele>56</ele>
        <time>2016-06-07T12:42:19Z</time>
      </trkpt>
      <trkpt lat="48.46643" lon="-2.49863">
        <ele>56</ele>
        <time>2016-06-07T12:42:22Z</time>
      </trkpt>
      <trkpt lat="48.4664" lon="-2.49868">
        <ele>56</ele>
        <time>2016-06-07T12:42:25Z</time>
      </trkpt>
      <trkpt lat="48.46637" lon="-2.49872">
        <ele>56</ele>
        <time>2016-06-07T12:42:28Z</time>
      </trkpt>
      <trkpt lat="48.46635" lon="-2.4988">
        <ele>56</ele>
        <time>2016-06-07T12:42:32Z</time>
      </trkpt>
      <trkpt lat="48.46635" lon="-2.49887">
        <ele>56</ele>
        <time>2016-06-07T12:42:35Z</time>
      </trkpt>
      <trkpt lat="48.46634" lon="-2.49894">
        <ele>56</ele>
        <time>2016-06-07T12:42:38Z</time>
      </trkpt>
      <trkpt lat="48.46634" lon="-2.49899">
        <ele>56</ele>
        <time>2016-06-07T12:42:41Z</time>
      </trkpt>
      <trkpt lat="48.46635" lon="-2.49903">
        <ele>56</ele>
        <time>2016-06-07T12:42:44Z</time>
      </trkpt>
      <trkpt lat="48.46635" lon="-2.4991">
        <ele>56</ele>
        <time>2016-06-07T12:42:47Z</time>
      </trkpt>
      <trkpt lat="48.46634" lon="-2.49916">
        <ele>56</ele>
        <time>2016-06-07T12:42:50Z</time>
      </trkpt>
      <trkpt lat="48.46634" lon="-2.49922">
        <ele>57</ele>
        <time>2016-06-07T12:42:53Z</time>
      </trkpt>
      <trkpt lat="48.46633" lon="-2.49927">
        <ele>58</ele>
        <time>2016-06-07T12:42:56Z</time>
      </trkpt>
      <trkpt lat="48.46634" lon="-2.49933">
        <ele>58</ele>
        <time>2016-06-07T12:42:59Z</time>
      </trkpt>
      <trkpt lat="48.46632" lon="-2.49937">
        <ele>58</ele>
        <time>2016-06-07T12:43:02Z</time>
      </trkpt>
      <trkpt lat="48.46632" lon="-2.49942">
        <ele>58</ele>
        <time>2016-06-07T12:43:05Z</time>
      </trkpt>
      <trkpt lat="48.46632" lon="-2.49948">
        <ele>58</ele>
        <time>2016-06-07T12:43:08Z</time>
      </trkpt>
      <trkpt lat="48.46632" lon="-2.49953">
        <ele>58</ele>
        <time>2016-06-07T12:43:11Z</time>
      </trkpt>
      <trkpt lat="48.46632" lon="-2.49958">
        <ele>58</ele>
        <time>2016-06-07T12:43:14Z</time>
      </trkpt>
      <trkpt lat="48.4663" lon="-2.49962">
        <ele>58</ele>
        <time>2016-06-07T12:43:17Z</time>
      </trkpt>
      <trkpt lat="48.46628" lon="-2.49969">
        <ele>58</ele>
        <time>2016-06-07T12:43:21Z</time>
      </trkpt>
      <trkpt lat="48.46625" lon="-2.49974">
        <ele>58</ele>
        <time>2016-06-07T12:43:25Z</time>
      </trkpt>
      <trkpt lat="48.46621" lon="-2.49976">
        <ele>58</ele>
        <time>2016-06-07T12:43:29Z</time>
      </trkpt>
      <trkpt lat="48.46618" lon="-2.49977">
        <ele>58</ele>
        <time>2016-06-07T12:43:32Z</time>
      </trkpt>
      <trkpt lat="48.46613" lon="-2.4998">
        <ele>58</ele>
        <time>2016-06-07T12:43:36Z</time>
      </trkpt>
      <trkpt lat="48.46609" lon="-2.4998">
        <ele>58</ele>
        <time>2016-06-07T12:43:39Z</time>
      </trkpt>
      <trkpt lat="48.46606" lon="-2.49979">
        <ele>58</ele>
        <time>2016-06-07T12:43:42Z</time>
      </trkpt>
      <trkpt lat="48.46603" lon="-2.49979">
        <ele>58</ele>
        <time>2016-06-07T12:43:45Z</time>
      </trkpt>
      <trkpt lat="48.46601" lon="-2.49978">
        <ele>58</ele>
        <time>2016-06-07T12:43:49Z</time>
      </trkpt>
      <trkpt lat="48.466" lon="-2.49977">
        <ele>58</ele>
        <time>2016-06-07T12:44:07Z</time>
      </trkpt>
      <trkpt lat="48.46599" lon="-2.49976">
        <ele>58</ele>
        <time>2016-06-07T12:44:13Z</time>
      </trkpt>
      <trkpt lat="48.46598" lon="-2.49975">
        <ele>58</ele>
        <time>2016-06-07T12:44:16Z</time>
      </trkpt>
      <trkpt lat="48.46596" lon="-2.49976">
        <ele>58</ele>
        <time>2016-06-07T12:44:20Z</time>
      </trkpt>
      <trkpt lat="48.46593" lon="-2.49975">
        <ele>59</ele>
        <time>2016-06-07T12:44:24Z</time>
      </trkpt>
      <trkpt lat="48.46589" lon="-2.49971">
        <ele>61</ele>
        <time>2016-06-07T12:44:28Z</time>
      </trkpt>
      <trkpt lat="48.46586" lon="-2.49966">
        <ele>61</ele>
        <time>2016-06-07T12:44:32Z</time>
      </trkpt>
      <trkpt lat="48.46583" lon="-2.4996">
        <ele>61</ele>
        <time>2016-06-07T12:44:36Z</time>
      </trkpt>
      <trkpt lat="48.46582" lon="-2.49955">
        <ele>61</ele>
        <time>2016-06-07T12:44:39Z</time>
      </trkpt>
      <trkpt lat="48.46582" lon="-2.4995">
        <ele>61</ele>
        <time>2016-06-07T12:44:45Z</time>
      </trkpt>
      <trkpt lat="48.46581" lon="-2.49948">
        <ele>61</ele>
        <time>2016-06-07T12:44:51Z</time>
      </trkpt>
      <trkpt lat="48.46579" lon="-2.49944">
        <ele>61</ele>
        <time>2016-06-07T12:44:54Z</time>
      </trkpt>
      <trkpt lat="48.46577" lon="-2.49939">
        <ele>61</ele>
        <time>2016-06-07T12:44:57Z</time>
      </trkpt>
      <trkpt lat="48.46576" lon="-2.49933">
        <ele>61</ele>
        <time>2016-06-07T12:45:01Z</time>
      </trkpt>
      <trkpt lat="48.46574" lon="-2.49927">
        <ele>61</ele>
        <time>2016-06-07T12:45:05Z</time>
      </trkpt>
      <trkpt lat="48.46572" lon="-2.49923">
        <ele>61</ele>
        <time>2016-06-07T12:45:08Z</time>
      </trkpt>
      <trkpt lat="48.4657" lon="-2.49916">
        <ele>61</ele>
        <time>2016-06-07T12:45:12Z</time>
      </trkpt>
      <trkpt lat="48.46569" lon="-2.49911">
        <ele>61</ele>
        <time>2016-06-07T12:45:15Z</time>
      </trkpt>
      <trkpt lat="48.46567" lon="-2.49906">
        <ele>61</ele>
        <time>2016-06-07T12:45:18Z</time>
      </trkpt>
      <trkpt lat="48.46566" lon="-2.49902">
        <ele>61</ele>
        <time>2016-06-07T12:45:21Z</time>
      </trkpt>
      <trkpt lat="48.46564" lon="-2.49897">
        <ele>61</ele>
        <time>2016-06-07T12:45:25Z</time>
      </trkpt>
      <trkpt lat="48.46562" lon="-2.49892">
        <ele>61</ele>
        <time>2016-06-07T12:45:28Z</time>
      </trkpt>
      <trkpt lat="48.4656" lon="-2.49886">
        <ele>61</ele>
        <time>2016-06-07T12:45:32Z</time>
      </trkpt>
      <trkpt lat="48.46558" lon="-2.49881">
        <ele>61</ele>
        <time>2016-06-07T12:45:35Z</time>
      </trkpt>
      <trkpt lat="48.46557" lon="-2.49876">
        <ele>61</ele>
        <time>2016-06-07T12:45:38Z</time>
      </trkpt>
      <trkpt lat="48.46555" lon="-2.4987">
        <ele>60</ele>
        <time>2016-06-07T12:45:42Z</time>
      </trkpt>
      <trkpt lat="48.46553" lon="-2.49865">
        <ele>60</ele>
        <time>2016-06-07T12:45:46Z</time>
      </trkpt>
      <trkpt lat="48.46551" lon="-2.49859">
        <ele>60</ele>
        <time>2016-06-07T12:45:50Z</time>
      </trkpt>
      <trkpt lat="48.46548" lon="-2.49853">
        <ele>59</ele>
        <time>2016-06-07T12:45:54Z</time>
      </trkpt>
      <trkpt lat="48.46547" lon="-2.49849">
        <ele>59</ele>
        <time>2016-06-07T12:45:57Z</time>
      </trkpt>
      <trkpt lat="48.46545" lon="-2.49844">
        <ele>59</ele>
        <time>2016-06-07T12:46:01Z</time>
      </trkpt>
      <trkpt lat="48.46543" lon="-2.49838">
        <ele>59</ele>
        <time>2016-06-07T12:46:05Z</time>
      </trkpt>
      <trkpt lat="48.46541" lon="-2.49832">
        <ele>59</ele>
        <time>2016-06-07T12:46:09Z</time>
      </trkpt>
      <trkpt lat="48.46539" lon="-2.49827">
        <ele>59</ele>
        <time>2016-06-07T12:46:13Z</time>
      </trkpt>
      <trkpt lat="48.46536" lon="-2.49821">
        <ele>58</ele>
        <time>2016-06-07T12:46:17Z</time>
      </trkpt>
      <trkpt lat="48.46534" lon="-2.49816">
        <ele>58</ele>
        <time>2016-06-07T12:46:21Z</time>
      </trkpt>
      <trkpt lat="48.46532" lon="-2.4981">
        <ele>58</ele>
        <time>2016-06-07T12:46:25Z</time>
      </trkpt>
      <trkpt lat="48.46529" lon="-2.49804">
        <ele>58</ele>
        <time>2016-06-07T12:46:29Z</time>
      </trkpt>
      <trkpt lat="48.46527" lon="-2.49799">
        <ele>58</ele>
        <time>2016-06-07T12:46:33Z</time>
      </trkpt>
      <trkpt lat="48.46526" lon="-2.49794">
        <ele>58</ele>
        <time>2016-06-07T12:46:37Z</time>
      </trkpt>
      <trkpt lat="48.46523" lon="-2.49789">
        <ele>58</ele>
        <time>2016-06-07T12:46:41Z</time>
      </trkpt>
      <trkpt lat="48.46521" lon="-2.49784">
        <ele>58</ele>
        <time>2016-06-07T12:46:45Z</time>
      </trkpt>
      <trkpt lat="48.4652" lon="-2.49779">
        <ele>58</ele>
        <time>2016-06-07T12:46:49Z</time>
      </trkpt>
      <trkpt lat="48.46518" lon="-2.49774">
        <ele>58</ele>
        <time>2016-06-07T12:46:53Z</time>
      </trkpt>
      <trkpt lat="48.46515" lon="-2.49768">
        <ele>58</ele>
        <time>2016-06-07T12:46:57Z</time>
      </trkpt>
      <trkpt lat="48.46513" lon="-2.49763">
        <ele>58</ele>
        <time>2016-06-07T12:47:01Z</time>
      </trkpt>
      <trkpt lat="48.46511" lon="-2.49757">
        <ele>58</ele>
        <time>2016-06-07T12:47:05Z</time>
      </trkpt>
      <trkpt lat="48.46508" lon="-2.49752">
        <ele>58</ele>
        <time>2016-06-07T12:47:09Z</time>
      </trkpt>
      <trkpt lat="48.46505" lon="-2.49746">
        <ele>58</ele>
        <time>2016-06-07T12:47:13Z</time>
      </trkpt>
      <trkpt lat="48.46503" lon="-2.49741">
        <ele>58</ele>
        <time>2016-06-07T12:47:17Z</time>
      </trkpt>
      <trkpt lat="48.46501" lon="-2.49735">
        <ele>58</ele>
        <time>2016-06-07T12:47:21Z</time>
      </trkpt>
      <trkpt lat="48.46498" lon="-2.49729">
        <ele>58</ele>
        <time>2016-06-07T12:47:25Z</time>
      </trkpt>
      <trkpt lat="48.46496" lon="-2.49724">
        <ele>57</ele>
        <time>2016-06-07T12:47:29Z</time>
      </trkpt>
      <trkpt lat="48.46494" lon="-2.49718">
        <ele>57</ele>
        <time>2016-06-07T12:47:33Z</time>
      </trkpt>
      <trkpt lat="48.46491" lon="-2.49713">
        <ele>57</ele>
        <time>2016-06-07T12:47:38Z</time>
      </trkpt>
      <trkpt lat="48.46489" lon="-2.49708">
        <ele>57</ele>
        <time>2016-06-07T12:47:42Z</time>
      </trkpt>
      <trkpt lat="48.46487" lon="-2.49703">
        <ele>57</ele>
        <time>2016-06-07T12:47:45Z</time>
      </trkpt>
      <trkpt lat="48.46485" lon="-2.49698">
        <ele>57</ele>
        <time>2016-06-07T12:47:49Z</time>
      </trkpt>
      <trkpt lat="48.46482" lon="-2.49693">
        <ele>57</ele>
        <time>2016-06-07T12:47:53Z</time>
      </trkpt>
      <trkpt lat="48.46481" lon="-2.49689">
        <ele>57</ele>
        <time>2016-06-07T12:47:56Z</time>
      </trkpt>
      <trkpt lat="48.46478" lon="-2.49682">
        <ele>57</ele>
        <time>2016-06-07T12:48:00Z</time>
      </trkpt>
      <trkpt lat="48.46475" lon="-2.49676">
        <ele>57</ele>
        <time>2016-06-07T12:48:04Z</time>
      </trkpt>
      <trkpt lat="48.46473" lon="-2.49671">
        <ele>57</ele>
        <time>2016-06-07T12:48:08Z</time>
      </trkpt>
      <trkpt lat="48.46471" lon="-2.49667">
        <ele>57</ele>
        <time>2016-06-07T12:48:11Z</time>
      </trkpt>
      <trkpt lat="48.46469" lon="-2.49662">
        <ele>57</ele>
        <time>2016-06-07T12:48:15Z</time>
      </trkpt>
      <trkpt lat="48.46469" lon="-2.49657">
        <ele>57</ele>
        <time>2016-06-07T12:48:18Z</time>
      </trkpt>
      <trkpt lat="48.46466" lon="-2.49652">
        <ele>57</ele>
        <time>2016-06-07T12:48:22Z</time>
      </trkpt>
      <trkpt lat="48.46464" lon="-2.49646">
        <ele>57</ele>
        <time>2016-06-07T12:48:26Z</time>
      </trkpt>
      <trkpt lat="48.46463" lon="-2.49641">
        <ele>57</ele>
        <time>2016-06-07T12:48:29Z</time>
      </trkpt>
      <trkpt lat="48.46461" lon="-2.49636">
        <ele>57</ele>
        <time>2016-06-07T12:48:32Z</time>
      </trkpt>
      <trkpt lat="48.46459" lon="-2.49631">
        <ele>57</ele>
        <time>2016-06-07T12:48:36Z</time>
      </trkpt>
      <trkpt lat="48.46457" lon="-2.49626">
        <ele>57</ele>
        <time>2016-06-07T12:48:40Z</time>
      </trkpt>
      <trkpt lat="48.46454" lon="-2.49622">
        <ele>57</ele>
        <time>2016-06-07T12:48:44Z</time>
      </trkpt>
      <trkpt lat="48.46451" lon="-2.49617">
        <ele>57</ele>
        <time>2016-06-07T12:48:48Z</time>
      </trkpt>
      <trkpt lat="48.46448" lon="-2.49613">
        <ele>57</ele>
        <time>2016-06-07T12:48:52Z</time>
      </trkpt>
      <trkpt lat="48.46446" lon="-2.49608">
        <ele>57</ele>
        <time>2016-06-07T12:48:56Z</time>
      </trkpt>
      <trkpt lat="48.46444" lon="-2.49604">
        <ele>57</ele>
        <time>2016-06-07T12:48:59Z</time>
      </trkpt>
      <trkpt lat="48.46441" lon="-2.49599">
        <ele>57</ele>
        <time>2016-06-07T12:49:03Z</time>
      </trkpt>
      <trkpt lat="48.46439" lon="-2.49596">
        <ele>57</ele>
        <time>2016-06-07T12:49:07Z</time>
      </trkpt>
      <trkpt lat="48.46435" lon="-2.49593">
        <ele>57</ele>
        <time>2016-06-07T12:49:11Z</time>
      </trkpt>
      <trkpt lat="48.46432" lon="-2.49591">
        <ele>57</ele>
        <time>2016-06-07T12:49:14Z</time>
      </trkpt>
      <trkpt lat="48.46429" lon="-2.49587">
        <ele>57</ele>
        <time>2016-06-07T12:49:17Z</time>
      </trkpt>
      <trkpt lat="48.46426" lon="-2.49584">
        <ele>57</ele>
        <time>2016-06-07T12:49:20Z</time>
      </trkpt>
      <trkpt lat="48.46422" lon="-2.49582">
        <ele>57</ele>
        <time>2016-06-07T12:49:23Z</time>
      </trkpt>
      <trkpt lat="48.46419" lon="-2.49578">
        <ele>57</ele>
        <time>2016-06-07T12:49:26Z</time>
      </trkpt>
      <trkpt lat="48.46415" lon="-2.49573">
        <ele>57</ele>
        <time>2016-06-07T12:49:30Z</time>
      </trkpt>
      <trkpt lat="48.46412" lon="-2.49569">
        <ele>57</ele>
        <time>2016-06-07T12:49:33Z</time>
      </trkpt>
      <trkpt lat="48.46409" lon="-2.49564">
        <ele>57</ele>
        <time>2016-06-07T12:49:37Z</time>
      </trkpt>
      <trkpt lat="48.46407" lon="-2.49559">
        <ele>57</ele>
        <time>2016-06-07T12:49:41Z</time>
      </trkpt>
      <trkpt lat="48.46403" lon="-2.49553">
        <ele>57</ele>
        <time>2016-06-07T12:49:45Z</time>
      </trkpt>
      <trkpt lat="48.464" lon="-2.49547">
        <ele>57</ele>
        <time>2016-06-07T12:49:49Z</time>
      </trkpt>
      <trkpt lat="48.46397" lon="-2.49541">
        <ele>56</ele>
        <time>2016-06-07T12:49:53Z</time>
      </trkpt>
      <trkpt lat="48.46394" lon="-2.49536">
        <ele>55</ele>
        <time>2016-06-07T12:49:57Z</time>
      </trkpt>
      <trkpt lat="48.46392" lon="-2.49531">
        <ele>55</ele>
        <time>2016-06-07T12:50:01Z</time>
      </trkpt>
      <trkpt lat="48.4639" lon="-2.49525">
        <ele>55</ele>
        <time>2016-06-07T12:50:05Z</time>
      </trkpt>
      <trkpt lat="48.46388" lon="-2.4952">
        <ele>55</ele>
        <time>2016-06-07T12:50:09Z</time>
      </trkpt>
      <trkpt lat="48.46385" lon="-2.49516">
        <ele>55</ele>
        <time>2016-06-07T12:50:12Z</time>
      </trkpt>
      <trkpt lat="48.46383" lon="-2.49511">
        <ele>55</ele>
        <time>2016-06-07T12:50:16Z</time>
      </trkpt>
      <trkpt lat="48.4638" lon="-2.49506">
        <ele>55</ele>
        <time>2016-06-07T12:50:20Z</time>
      </trkpt>
      <trkpt lat="48.46377" lon="-2.49501">
        <ele>55</ele>
        <time>2016-06-07T12:50:24Z</time>
      </trkpt>
      <trkpt lat="48.46374" lon="-2.49495">
        <ele>55</ele>
        <time>2016-06-07T12:50:28Z</time>
      </trkpt>
      <trkpt lat="48.4637" lon="-2.4949">
        <ele>55</ele>
        <time>2016-06-07T12:50:31Z</time>
      </trkpt>
      <trkpt lat="48.46369" lon="-2.49485">
        <ele>55</ele>
        <time>2016-06-07T12:50:35Z</time>
      </trkpt>
      <trkpt lat="48.46366" lon="-2.49482">
        <ele>55</ele>
        <time>2016-06-07T12:50:40Z</time>
      </trkpt>
      <trkpt lat="48.46364" lon="-2.4948">
        <ele>55</ele>
        <time>2016-06-07T12:50:43Z</time>
      </trkpt>
      <trkpt lat="48.46363" lon="-2.49475">
        <ele>55</ele>
        <time>2016-06-07T12:50:46Z</time>
      </trkpt>
      <trkpt lat="48.4636" lon="-2.49468">
        <ele>55</ele>
        <time>2016-06-07T12:50:49Z</time>
      </trkpt>
      <trkpt lat="48.46357" lon="-2.49463">
        <ele>55</ele>
        <time>2016-06-07T12:50:53Z</time>
      </trkpt>
      <trkpt lat="48.46353" lon="-2.49458">
        <ele>54</ele>
        <time>2016-06-07T12:50:56Z</time>
      </trkpt>
      <trkpt lat="48.46349" lon="-2.49451">
        <ele>52</ele>
        <time>2016-06-07T12:50:59Z</time>
      </trkpt>
      <trkpt lat="48.46346" lon="-2.49446">
        <ele>51</ele>
        <time>2016-06-07T12:51:03Z</time>
      </trkpt>
      <trkpt lat="48.46343" lon="-2.49443">
        <ele>49</ele>
        <time>2016-06-07T12:51:06Z</time>
      </trkpt>
      <trkpt lat="48.4634" lon="-2.49437">
        <ele>48</ele>
        <time>2016-06-07T12:51:10Z</time>
      </trkpt>
      <trkpt lat="48.46338" lon="-2.49432">
        <ele>48</ele>
        <time>2016-06-07T12:51:14Z</time>
      </trkpt>
      <trkpt lat="48.46335" lon="-2.49428">
        <ele>48</ele>
        <time>2016-06-07T12:51:18Z</time>
      </trkpt>
      <trkpt lat="48.46333" lon="-2.49424">
        <ele>48</ele>
        <time>2016-06-07T12:51:22Z</time>
      </trkpt>
      <trkpt lat="48.46331" lon="-2.49419">
        <ele>48</ele>
        <time>2016-06-07T12:51:25Z</time>
      </trkpt>
      <trkpt lat="48.46328" lon="-2.49414">
        <ele>48</ele>
        <time>2016-06-07T12:51:30Z</time>
      </trkpt>
      <trkpt lat="48.46325" lon="-2.49409">
        <ele>48</ele>
        <time>2016-06-07T12:51:34Z</time>
      </trkpt>
      <trkpt lat="48.46322" lon="-2.49404">
        <ele>48</ele>
        <time>2016-06-07T12:51:38Z</time>
      </trkpt>
      <trkpt lat="48.46319" lon="-2.494">
        <ele>49</ele>
        <time>2016-06-07T12:51:41Z</time>
      </trkpt>
      <trkpt lat="48.46318" lon="-2.49396">
        <ele>49</ele>
        <time>2016-06-07T12:51:45Z</time>
      </trkpt>
      <trkpt lat="48.46313" lon="-2.49391">
        <ele>49</ele>
        <time>2016-06-07T12:51:49Z</time>
      </trkpt>
      <trkpt lat="48.46311" lon="-2.49387">
        <ele>50</ele>
        <time>2016-06-07T12:51:54Z</time>
      </trkpt>
      <trkpt lat="48.46308" lon="-2.49383">
        <ele>50</ele>
        <time>2016-06-07T12:51:58Z</time>
      </trkpt>
      <trkpt lat="48.46305" lon="-2.49377">
        <ele>51</ele>
        <time>2016-06-07T12:52:01Z</time>
      </trkpt>
      <trkpt lat="48.46302" lon="-2.49373">
        <ele>52</ele>
        <time>2016-06-07T12:52:05Z</time>
      </trkpt>
      <trkpt lat="48.463" lon="-2.49369">
        <ele>52</ele>
        <time>2016-06-07T12:52:09Z</time>
      </trkpt>
      <trkpt lat="48.46296" lon="-2.49361">
        <ele>52</ele>
        <time>2016-06-07T12:52:13Z</time>
      </trkpt>
      <trkpt lat="48.46293" lon="-2.49356">
        <ele>52</ele>
        <time>2016-06-07T12:52:18Z</time>
      </trkpt>
      <trkpt lat="48.46291" lon="-2.49351">
        <ele>52</ele>
        <time>2016-06-07T12:52:22Z</time>
      </trkpt>
      <trkpt lat="48.46288" lon="-2.49346">
        <ele>52</ele>
        <time>2016-06-07T12:52:26Z</time>
      </trkpt>
      <trkpt lat="48.46285" lon="-2.49342">
        <ele>52</ele>
        <time>2016-06-07T12:52:29Z</time>
      </trkpt>
      <trkpt lat="48.46282" lon="-2.49339">
        <ele>52</ele>
        <time>2016-06-07T12:52:34Z</time>
      </trkpt>
      <trkpt lat="48.4628" lon="-2.49334">
        <ele>52</ele>
        <time>2016-06-07T12:52:38Z</time>
      </trkpt>
      <trkpt lat="48.46276" lon="-2.49329">
        <ele>52</ele>
        <time>2016-06-07T12:52:42Z</time>
      </trkpt>
      <trkpt lat="48.46273" lon="-2.49325">
        <ele>52</ele>
        <time>2016-06-07T12:52:46Z</time>
      </trkpt>
      <trkpt lat="48.46271" lon="-2.49321">
        <ele>52</ele>
        <time>2016-06-07T12:52:50Z</time>
      </trkpt>
      <trkpt lat="48.46268" lon="-2.49317">
        <ele>52</ele>
        <time>2016-06-07T12:52:53Z</time>
      </trkpt>
      <trkpt lat="48.46266" lon="-2.49313">
        <ele>52</ele>
        <time>2016-06-07T12:52:58Z</time>
      </trkpt>
      <trkpt lat="48.46263" lon="-2.49308">
        <ele>52</ele>
        <time>2016-06-07T12:53:02Z</time>
      </trkpt>
      <trkpt lat="48.4626" lon="-2.49302">
        <ele>52</ele>
        <time>2016-06-07T12:53:06Z</time>
      </trkpt>
      <trkpt lat="48.46258" lon="-2.49298">
        <ele>52</ele>
        <time>2016-06-07T12:53:09Z</time>
      </trkpt>
      <trkpt lat="48.46255" lon="-2.49293">
        <ele>52</ele>
        <time>2016-06-07T12:53:13Z</time>
      </trkpt>
      <trkpt lat="48.46252" lon="-2.49288">
        <ele>52</ele>
        <time>2016-06-07T12:53:17Z</time>
      </trkpt>
      <trkpt lat="48.46249" lon="-2.49284">
        <ele>52</ele>
        <time>2016-06-07T12:53:21Z</time>
      </trkpt>
      <trkpt lat="48.46246" lon="-2.49279">
        <ele>52</ele>
        <time>2016-06-07T12:53:25Z</time>
      </trkpt>
      <trkpt lat="48.46244" lon="-2.49273">
        <ele>52</ele>
        <time>2016-06-07T12:53:29Z</time>
      </trkpt>
      <trkpt lat="48.46241" lon="-2.49268">
        <ele>52</ele>
        <time>2016-06-07T12:53:33Z</time>
      </trkpt>
      <trkpt lat="48.46237" lon="-2.49262">
        <ele>52</ele>
        <time>2016-06-07T12:53:37Z</time>
      </trkpt>
      <trkpt lat="48.46235" lon="-2.49257">
        <ele>52</ele>
        <time>2016-06-07T12:53:42Z</time>
      </trkpt>
      <trkpt lat="48.46232" lon="-2.49252">
        <ele>52</ele>
        <time>2016-06-07T12:53:46Z</time>
      </trkpt>
      <trkpt lat="48.4623" lon="-2.49246">
        <ele>52</ele>
        <time>2016-06-07T12:53:50Z</time>
      </trkpt>
      <trkpt lat="48.46228" lon="-2.49242">
        <ele>52</ele>
        <time>2016-06-07T12:53:53Z</time>
      </trkpt>
      <trkpt lat="48.46225" lon="-2.49236">
        <ele>52</ele>
        <time>2016-06-07T12:53:57Z</time>
      </trkpt>
      <trkpt lat="48.46222" lon="-2.4923">
        <ele>52</ele>
        <time>2016-06-07T12:54:00Z</time>
      </trkpt>
      <trkpt lat="48.4622" lon="-2.49224">
        <ele>52</ele>
        <time>2016-06-07T12:54:04Z</time>
      </trkpt>
      <trkpt lat="48.46217" lon="-2.49219">
        <ele>52</ele>
        <time>2016-06-07T12:54:09Z</time>
      </trkpt>
      <trkpt lat="48.46215" lon="-2.49213">
        <ele>52</ele>
        <time>2016-06-07T12:54:13Z</time>
      </trkpt>
      <trkpt lat="48.46213" lon="-2.49208">
        <ele>52</ele>
        <time>2016-06-07T12:54:16Z</time>
      </trkpt>
      <trkpt lat="48.4621" lon="-2.49203">
        <ele>52</ele>
        <time>2016-06-07T12:54:21Z</time>
      </trkpt>
      <trkpt lat="48.46209" lon="-2.49198">
        <ele>52</ele>
        <time>2016-06-07T12:54:25Z</time>
      </trkpt>
      <trkpt lat="48.46207" lon="-2.49194">
        <ele>52</ele>
        <time>2016-06-07T12:54:28Z</time>
      </trkpt>
      <trkpt lat="48.46206" lon="-2.49188">
        <ele>52</ele>
        <time>2016-06-07T12:54:33Z</time>
      </trkpt>
      <trkpt lat="48.46206" lon="-2.49184">
        <ele>52</ele>
        <time>2016-06-07T12:54:36Z</time>
      </trkpt>
      <trkpt lat="48.46205" lon="-2.4918">
        <ele>52</ele>
        <time>2016-06-07T12:54:50Z</time>
      </trkpt>
      <trkpt lat="48.46206" lon="-2.49177">
        <ele>52</ele>
        <time>2016-06-07T12:55:04Z</time>
      </trkpt>
      <trkpt lat="48.46207" lon="-2.49176">
        <ele>52</ele>
        <time>2016-06-07T12:55:09Z</time>
      </trkpt>
      <trkpt lat="48.46207" lon="-2.49174">
        <ele>52</ele>
        <time>2016-06-07T12:55:14Z</time>
      </trkpt>
      <trkpt lat="48.46206" lon="-2.49176">
        <ele>52</ele>
        <time>2016-06-07T12:55:22Z</time>
      </trkpt>
      <trkpt lat="48.46206" lon="-2.4918">
        <ele>52</ele>
        <time>2016-06-07T12:55:33Z</time>
      </trkpt>
      <trkpt lat="48.46207" lon="-2.49184">
        <ele>52</ele>
        <time>2016-06-07T12:55:38Z</time>
      </trkpt>
      <trkpt lat="48.46208" lon="-2.49189">
        <ele>52</ele>
        <time>2016-06-07T12:55:41Z</time>
      </trkpt>
      <trkpt lat="48.46209" lon="-2.49195">
        <ele>52</ele>
        <time>2016-06-07T12:55:45Z</time>
      </trkpt>
      <trkpt lat="48.46211" lon="-2.49199">
        <ele>52</ele>
        <time>2016-06-07T12:55:50Z</time>
      </trkpt>
      <trkpt lat="48.46213" lon="-2.49204">
        <ele>52</ele>
        <time>2016-06-07T12:55:53Z</time>
      </trkpt>
      <trkpt lat="48.46215" lon="-2.49209">
        <ele>52</ele>
        <time>2016-06-07T12:55:57Z</time>
      </trkpt>
      <trkpt lat="48.46217" lon="-2.49215">
        <ele>52</ele>
        <time>2016-06-07T12:56:02Z</time>
      </trkpt>
      <trkpt lat="48.46219" lon="-2.4922">
        <ele>52</ele>
        <time>2016-06-07T12:56:05Z</time>
      </trkpt>
      <trkpt lat="48.46222" lon="-2.49225">
        <ele>52</ele>
        <time>2016-06-07T12:56:09Z</time>
      </trkpt>
      <trkpt lat="48.46224" lon="-2.4923">
        <ele>52</ele>
        <time>2016-06-07T12:56:13Z</time>
      </trkpt>
      <trkpt lat="48.46227" lon="-2.49236">
        <ele>52</ele>
        <time>2016-06-07T12:56:16Z</time>
      </trkpt>
      <trkpt lat="48.4623" lon="-2.4924">
        <ele>52</ele>
        <time>2016-06-07T12:56:20Z</time>
      </trkpt>
      <trkpt lat="48.46232" lon="-2.49244">
        <ele>52</ele>
        <time>2016-06-07T12:56:25Z</time>
      </trkpt>
      <trkpt lat="48.46233" lon="-2.49249">
        <ele>52</ele>
        <time>2016-06-07T12:56:28Z</time>
      </trkpt>
      <trkpt lat="48.46236" lon="-2.49253">
        <ele>52</ele>
        <time>2016-06-07T12:56:32Z</time>
      </trkpt>
      <trkpt lat="48.46238" lon="-2.49258">
        <ele>52</ele>
        <time>2016-06-07T12:56:37Z</time>
      </trkpt>
      <trkpt lat="48.46241" lon="-2.4926">
        <ele>52</ele>
        <time>2016-06-07T12:56:40Z</time>
      </trkpt>
      <trkpt lat="48.46243" lon="-2.49265">
        <ele>52</ele>
        <time>2016-06-07T12:56:44Z</time>
      </trkpt>
      <trkpt lat="48.46245" lon="-2.49269">
        <ele>52</ele>
        <time>2016-06-07T12:56:48Z</time>
      </trkpt>
      <trkpt lat="48.46247" lon="-2.49274">
        <ele>52</ele>
        <time>2016-06-07T12:56:52Z</time>
      </trkpt>
      <trkpt lat="48.46249" lon="-2.49276">
        <ele>52</ele>
        <time>2016-06-07T12:56:56Z</time>
      </trkpt>
      <trkpt lat="48.46252" lon="-2.49282">
        <ele>52</ele>
        <time>2016-06-07T12:56:59Z</time>
      </trkpt>
      <trkpt lat="48.46254" lon="-2.49286">
        <ele>52</ele>
        <time>2016-06-07T12:57:03Z</time>
      </trkpt>
      <trkpt lat="48.46255" lon="-2.49291">
        <ele>52</ele>
        <time>2016-06-07T12:57:08Z</time>
      </trkpt>
      <trkpt lat="48.46258" lon="-2.49294">
        <ele>52</ele>
        <time>2016-06-07T12:57:11Z</time>
      </trkpt>
      <trkpt lat="48.4626" lon="-2.49298">
        <ele>52</ele>
        <time>2016-06-07T12:57:15Z</time>
      </trkpt>
      <trkpt lat="48.46263" lon="-2.49302">
        <ele>52</ele>
        <time>2016-06-07T12:57:20Z</time>
      </trkpt>
      <trkpt lat="48.46265" lon="-2.49306">
        <ele>52</ele>
        <time>2016-06-07T12:57:23Z</time>
      </trkpt>
      <trkpt lat="48.46268" lon="-2.4931">
        <ele>52</ele>
        <time>2016-06-07T12:57:27Z</time>
      </trkpt>
      <trkpt lat="48.4627" lon="-2.49314">
        <ele>52</ele>
        <time>2016-06-07T12:57:32Z</time>
      </trkpt>
      <trkpt lat="48.46272" lon="-2.49319">
        <ele>52</ele>
        <time>2016-06-07T12:57:35Z</time>
      </trkpt>
      <trkpt lat="48.46275" lon="-2.49323">
        <ele>52</ele>
        <time>2016-06-07T12:57:39Z</time>
      </trkpt>
      <trkpt lat="48.46277" lon="-2.49326">
        <ele>52</ele>
        <time>2016-06-07T12:57:44Z</time>
      </trkpt>
      <trkpt lat="48.46281" lon="-2.49329">
        <ele>52</ele>
        <time>2016-06-07T12:57:47Z</time>
      </trkpt>
      <trkpt lat="48.46282" lon="-2.49333">
        <ele>52</ele>
        <time>2016-06-07T12:57:50Z</time>
      </trkpt>
      <trkpt lat="48.46285" lon="-2.49339">
        <ele>52</ele>
        <time>2016-06-07T12:57:54Z</time>
      </trkpt>
      <trkpt lat="48.46288" lon="-2.49343">
        <ele>52</ele>
        <time>2016-06-07T12:57:58Z</time>
      </trkpt>
      <trkpt lat="48.46289" lon="-2.49347">
        <ele>52</ele>
        <time>2016-06-07T12:58:01Z</time>
      </trkpt>
      <trkpt lat="48.46292" lon="-2.49353">
        <ele>52</ele>
        <time>2016-06-07T12:58:06Z</time>
      </trkpt>
      <trkpt lat="48.46294" lon="-2.49357">
        <ele>52</ele>
        <time>2016-06-07T12:58:09Z</time>
      </trkpt>
      <trkpt lat="48.46297" lon="-2.49362">
        <ele>53</ele>
        <time>2016-06-07T12:58:13Z</time>
      </trkpt>
      <trkpt lat="48.46299" lon="-2.49366">
        <ele>53</ele>
        <time>2016-06-07T12:58:18Z</time>
      </trkpt>
      <trkpt lat="48.46302" lon="-2.49371">
        <ele>53</ele>
        <time>2016-06-07T12:58:21Z</time>
      </trkpt>
      <trkpt lat="48.46304" lon="-2.49375">
        <ele>54</ele>
        <time>2016-06-07T12:58:25Z</time>
      </trkpt>
      <trkpt lat="48.46307" lon="-2.49379">
        <ele>54</ele>
        <time>2016-06-07T12:58:29Z</time>
      </trkpt>
      <trkpt lat="48.46309" lon="-2.49383">
        <ele>55</ele>
        <time>2016-06-07T12:58:33Z</time>
      </trkpt>
      <trkpt lat="48.46312" lon="-2.49387">
        <ele>56</ele>
        <time>2016-06-07T12:58:37Z</time>
      </trkpt>
      <trkpt lat="48.46315" lon="-2.49391">
        <ele>56</ele>
        <time>2016-06-07T12:58:41Z</time>
      </trkpt>
      <trkpt lat="48.46318" lon="-2.49392">
        <ele>56</ele>
        <time>2016-06-07T12:58:45Z</time>
      </trkpt>
      <trkpt lat="48.46318" lon="-2.49391">
        <ele>56</ele>
        <time>2016-06-07T12:58:49Z</time>
      </trkpt>
      <trkpt lat="48.46317" lon="-2.4939">
        <ele>56</ele>
        <time>2016-06-07T12:58:55Z</time>
      </trkpt>
      <trkpt lat="48.46318" lon="-2.49389">
        <ele>58</ele>
        <time>2016-06-07T12:59:05Z</time>
      </trkpt>
      <trkpt lat="48.4632" lon="-2.49386">
        <ele>58</ele>
        <time>2016-06-07T12:59:10Z</time>
      </trkpt>
      <trkpt lat="48.46323" lon="-2.4939">
        <ele>58</ele>
        <time>2016-06-07T12:59:14Z</time>
      </trkpt>
      <trkpt lat="48.46321" lon="-2.49386">
        <ele>58</ele>
        <time>2016-06-07T12:59:18Z</time>
      </trkpt>
      <trkpt lat="48.46318" lon="-2.49382">
        <ele>58</ele>
        <time>2016-06-07T12:59:23Z</time>
      </trkpt>
      <trkpt lat="48.46315" lon="-2.4938">
        <ele>58</ele>
        <time>2016-06-07T12:59:27Z</time>
      </trkpt>
      <trkpt lat="48.46315" lon="-2.49382">
        <ele>58</ele>
        <time>2016-06-07T12:59:31Z</time>
      </trkpt>
      <trkpt lat="48.46313" lon="-2.49387">
        <ele>58</ele>
        <time>2016-06-07T12:59:34Z</time>
      </trkpt>
      <trkpt lat="48.46314" lon="-2.49394">
        <ele>58</ele>
        <time>2016-06-07T12:59:37Z</time>
      </trkpt>
      <trkpt lat="48.46317" lon="-2.49398">
        <ele>58</ele>
        <time>2016-06-07T12:59:40Z</time>
      </trkpt>
      <trkpt lat="48.46318" lon="-2.49401">
        <ele>58</ele>
        <time>2016-06-07T12:59:43Z</time>
      </trkpt>
      <trkpt lat="48.46322" lon="-2.49404">
        <ele>58</ele>
        <time>2016-06-07T12:59:46Z</time>
      </trkpt>
      <trkpt lat="48.46323" lon="-2.4941">
        <ele>58</ele>
        <time>2016-06-07T12:59:49Z</time>
      </trkpt>
      <trkpt lat="48.46328" lon="-2.49415">
        <ele>58</ele>
        <time>2016-06-07T12:59:53Z</time>
      </trkpt>
      <trkpt lat="48.46331" lon="-2.49417">
        <ele>58</ele>
        <time>2016-06-07T12:59:56Z</time>
      </trkpt>
      <trkpt lat="48.46336" lon="-2.49419">
        <ele>58</ele>
        <time>2016-06-07T12:59:59Z</time>
      </trkpt>
      <trkpt lat="48.46339" lon="-2.49423">
        <ele>58</ele>
        <time>2016-06-07T13:00:02Z</time>
      </trkpt>
      <trkpt lat="48.46343" lon="-2.49426">
        <ele>58</ele>
        <time>2016-06-07T13:00:05Z</time>
      </trkpt>
      <trkpt lat="48.46345" lon="-2.49431">
        <ele>58</ele>
        <time>2016-06-07T13:00:08Z</time>
      </trkpt>
      <trkpt lat="48.46347" lon="-2.49436">
        <ele>58</ele>
        <time>2016-06-07T13:00:11Z</time>
      </trkpt>
      <trkpt lat="48.4635" lon="-2.49441">
        <ele>58</ele>
        <time>2016-06-07T13:00:15Z</time>
      </trkpt>
      <trkpt lat="48.46353" lon="-2.49446">
        <ele>58</ele>
        <time>2016-06-07T13:00:19Z</time>
      </trkpt>
      <trkpt lat="48.46355" lon="-2.49451">
        <ele>58</ele>
        <time>2016-06-07T13:00:23Z</time>
      </trkpt>
      <trkpt lat="48.46357" lon="-2.49456">
        <ele>58</ele>
        <time>2016-06-07T13:00:27Z</time>
      </trkpt>
      <trkpt lat="48.4636" lon="-2.49461">
        <ele>58</ele>
        <time>2016-06-07T13:00:30Z</time>
      </trkpt>
      <trkpt lat="48.46362" lon="-2.49465">
        <ele>58</ele>
        <time>2016-06-07T13:00:33Z</time>
      </trkpt>
      <trkpt lat="48.46364" lon="-2.4947">
        <ele>58</ele>
        <time>2016-06-07T13:00:37Z</time>
      </trkpt>
      <trkpt lat="48.46365" lon="-2.49475">
        <ele>58</ele>
        <time>2016-06-07T13:00:41Z</time>
      </trkpt>
      <trkpt lat="48.46368" lon="-2.49478">
        <ele>57</ele>
        <time>2016-06-07T13:00:45Z</time>
      </trkpt>
      <trkpt lat="48.4637" lon="-2.49482">
        <ele>57</ele>
        <time>2016-06-07T13:00:49Z</time>
      </trkpt>
      <trkpt lat="48.46373" lon="-2.49487">
        <ele>57</ele>
        <time>2016-06-07T13:00:53Z</time>
      </trkpt>
      <trkpt lat="48.46376" lon="-2.49491">
        <ele>57</ele>
        <time>2016-06-07T13:00:57Z</time>
      </trkpt>
      <trkpt lat="48.4638" lon="-2.49495">
        <ele>57</ele>
        <time>2016-06-07T13:01:01Z</time>
      </trkpt>
      <trkpt lat="48.46382" lon="-2.495">
        <ele>57</ele>
        <time>2016-06-07T13:01:05Z</time>
      </trkpt>
      <trkpt lat="48.46384" lon="-2.49505">
        <ele>57</ele>
        <time>2016-06-07T13:01:09Z</time>
      </trkpt>
      <trkpt lat="48.46386" lon="-2.4951">
        <ele>57</ele>
        <time>2016-06-07T13:01:13Z</time>
      </trkpt>
      <trkpt lat="48.46388" lon="-2.49515">
        <ele>57</ele>
        <time>2016-06-07T13:01:17Z</time>
      </trkpt>
      <trkpt lat="48.46391" lon="-2.4952">
        <ele>57</ele>
        <time>2016-06-07T13:01:21Z</time>
      </trkpt>
      <trkpt lat="48.46393" lon="-2.49525">
        <ele>57</ele>
        <time>2016-06-07T13:01:25Z</time>
      </trkpt>
      <trkpt lat="48.46394" lon="-2.49531">
        <ele>57</ele>
        <time>2016-06-07T13:01:29Z</time>
      </trkpt>
      <trkpt lat="48.46397" lon="-2.49536">
        <ele>57</ele>
        <time>2016-06-07T13:01:33Z</time>
      </trkpt>
      <trkpt lat="48.464" lon="-2.49541">
        <ele>57</ele>
        <time>2016-06-07T13:01:37Z</time>
      </trkpt>
      <trkpt lat="48.46403" lon="-2.49546">
        <ele>57</ele>
        <time>2016-06-07T13:01:41Z</time>
      </trkpt>
      <trkpt lat="48.46405" lon="-2.49552">
        <ele>57</ele>
        <time>2016-06-07T13:01:45Z</time>
      </trkpt>
      <trkpt lat="48.46408" lon="-2.49556">
        <ele>57</ele>
        <time>2016-06-07T13:01:49Z</time>
      </trkpt>
      <trkpt lat="48.46411" lon="-2.49561">
        <ele>57</ele>
        <time>2016-06-07T13:01:53Z</time>
      </trkpt>
      <trkpt lat="48.46413" lon="-2.49566">
        <ele>57</ele>
        <time>2016-06-07T13:01:57Z</time>
      </trkpt>
      <trkpt lat="48.46415" lon="-2.49569">
        <ele>57</ele>
        <time>2016-06-07T13:02:01Z</time>
      </trkpt>
      <trkpt lat="48.46418" lon="-2.49572">
        <ele>57</ele>
        <time>2016-06-07T13:02:05Z</time>
      </trkpt>
      <trkpt lat="48.4642" lon="-2.49575">
        <ele>57</ele>
        <time>2016-06-07T13:02:08Z</time>
      </trkpt>
      <trkpt lat="48.46422" lon="-2.49576">
        <ele>57</ele>
        <time>2016-06-07T13:02:14Z</time>
      </trkpt>
      <trkpt lat="48.46425" lon="-2.49577">
        <ele>57</ele>
        <time>2016-06-07T13:02:17Z</time>
      </trkpt>
      <trkpt lat="48.46428" lon="-2.49578">
        <ele>57</ele>
        <time>2016-06-07T13:02:20Z</time>
      </trkpt>
      <trkpt lat="48.46431" lon="-2.49583">
        <ele>57</ele>
        <time>2016-06-07T13:02:24Z</time>
      </trkpt>
      <trkpt lat="48.46434" lon="-2.49585">
        <ele>57</ele>
        <time>2016-06-07T13:02:27Z</time>
      </trkpt>
      <trkpt lat="48.46437" lon="-2.49587">
        <ele>57</ele>
        <time>2016-06-07T13:02:30Z</time>
      </trkpt>
      <trkpt lat="48.46439" lon="-2.49591">
        <ele>57</ele>
        <time>2016-06-07T13:02:33Z</time>
      </trkpt>
      <trkpt lat="48.46443" lon="-2.49596">
        <ele>57</ele>
        <time>2016-06-07T13:02:36Z</time>
      </trkpt>
      <trkpt lat="48.46446" lon="-2.49601">
        <ele>57</ele>
        <time>2016-06-07T13:02:39Z</time>
      </trkpt>
      <trkpt lat="48.46448" lon="-2.49607">
        <ele>57</ele>
        <time>2016-06-07T13:02:43Z</time>
      </trkpt>
      <trkpt lat="48.46449" lon="-2.49612">
        <ele>57</ele>
        <time>2016-06-07T13:02:48Z</time>
      </trkpt>
      <trkpt lat="48.46448" lon="-2.49614">
        <ele>57</ele>
        <time>2016-06-07T13:03:17Z</time>
      </trkpt>
      <trkpt lat="48.46447" lon="-2.49616">
        <ele>57</ele>
        <time>2016-06-07T13:03:23Z</time>
      </trkpt>
      <trkpt lat="48.46448" lon="-2.49618">
        <ele>58</ele>
        <time>2016-06-07T13:03:27Z</time>
      </trkpt>
      <trkpt lat="48.46451" lon="-2.49621">
        <ele>58</ele>
        <time>2016-06-07T13:03:31Z</time>
      </trkpt>
      <trkpt lat="48.46454" lon="-2.49625">
        <ele>58</ele>
        <time>2016-06-07T13:03:35Z</time>
      </trkpt>
      <trkpt lat="48.46455" lon="-2.49627">
        <ele>58</ele>
        <time>2016-06-07T13:03:45Z</time>
      </trkpt>
      <trkpt lat="48.46455" lon="-2.49627">
        <ele>58</ele>
        <time>2016-06-07T13:03:55Z</time>
      </trkpt>
      <trkpt lat="48.46454" lon="-2.49625">
        <ele>58</ele>
        <time>2016-06-07T13:04:02Z</time>
      </trkpt>
      <trkpt lat="48.46456" lon="-2.49625">
        <ele>58</ele>
        <time>2016-06-07T13:04:28Z</time>
      </trkpt>
      <trkpt lat="48.46459" lon="-2.49625">
        <ele>59</ele>
        <time>2016-06-07T13:04:34Z</time>
      </trkpt>
      <trkpt lat="48.46459" lon="-2.49628">
        <ele>59</ele>
        <time>2016-06-07T13:04:43Z</time>
      </trkpt>
      <trkpt lat="48.4646" lon="-2.49632">
        <ele>59</ele>
        <time>2016-06-07T13:04:47Z</time>
      </trkpt>
      <trkpt lat="48.46462" lon="-2.49637">
        <ele>59</ele>
        <time>2016-06-07T13:04:51Z</time>
      </trkpt>
      <trkpt lat="48.46464" lon="-2.49642">
        <ele>59</ele>
        <time>2016-06-07T13:04:55Z</time>
      </trkpt>
      <trkpt lat="48.46466" lon="-2.49647">
        <ele>59</ele>
        <time>2016-06-07T13:04:59Z</time>
      </trkpt>
      <trkpt lat="48.46468" lon="-2.49651">
        <ele>59</ele>
        <time>2016-06-07T13:05:03Z</time>
      </trkpt>
      <trkpt lat="48.46469" lon="-2.49657">
        <ele>59</ele>
        <time>2016-06-07T13:05:07Z</time>
      </trkpt>
      <trkpt lat="48.46472" lon="-2.49663">
        <ele>59</ele>
        <time>2016-06-07T13:05:11Z</time>
      </trkpt>
      <trkpt lat="48.46474" lon="-2.49669">
        <ele>59</ele>
        <time>2016-06-07T13:05:15Z</time>
      </trkpt>
      <trkpt lat="48.46476" lon="-2.49675">
        <ele>59</ele>
        <time>2016-06-07T13:05:19Z</time>
      </trkpt>
      <trkpt lat="48.46479" lon="-2.49682">
        <ele>59</ele>
        <time>2016-06-07T13:05:23Z</time>
      </trkpt>
      <trkpt lat="48.4648" lon="-2.49687">
        <ele>59</ele>
        <time>2016-06-07T13:05:26Z</time>
      </trkpt>
      <trkpt lat="48.46482" lon="-2.49691">
        <ele>59</ele>
        <time>2016-06-07T13:05:29Z</time>
      </trkpt>
      <trkpt lat="48.46484" lon="-2.49696">
        <ele>59</ele>
        <time>2016-06-07T13:05:32Z</time>
      </trkpt>
      <trkpt lat="48.46486" lon="-2.49701">
        <ele>59</ele>
        <time>2016-06-07T13:05:36Z</time>
      </trkpt>
      <trkpt lat="48.46488" lon="-2.49707">
        <ele>59</ele>
        <time>2016-06-07T13:05:40Z</time>
      </trkpt>
      <trkpt lat="48.4649" lon="-2.49712">
        <ele>59</ele>
        <time>2016-06-07T13:05:43Z</time>
      </trkpt>
      <trkpt lat="48.46493" lon="-2.49717">
        <ele>59</ele>
        <time>2016-06-07T13:05:47Z</time>
      </trkpt>
      <trkpt lat="48.46495" lon="-2.49723">
        <ele>59</ele>
        <time>2016-06-07T13:05:51Z</time>
      </trkpt>
      <trkpt lat="48.46498" lon="-2.49728">
        <ele>59</ele>
        <time>2016-06-07T13:05:55Z</time>
      </trkpt>
      <trkpt lat="48.465" lon="-2.49733">
        <ele>59</ele>
        <time>2016-06-07T13:05:59Z</time>
      </trkpt>
      <trkpt lat="48.46503" lon="-2.49739">
        <ele>59</ele>
        <time>2016-06-07T13:06:03Z</time>
      </trkpt>
      <trkpt lat="48.46505" lon="-2.49745">
        <ele>59</ele>
        <time>2016-06-07T13:06:07Z</time>
      </trkpt>
      <trkpt lat="48.46506" lon="-2.49749">
        <ele>59</ele>
        <time>2016-06-07T13:06:10Z</time>
      </trkpt>
      <trkpt lat="48.46508" lon="-2.49755">
        <ele>59</ele>
        <time>2016-06-07T13:06:14Z</time>
      </trkpt>
      <trkpt lat="48.4651" lon="-2.4976">
        <ele>59</ele>
        <time>2016-06-07T13:06:17Z</time>
      </trkpt>
      <trkpt lat="48.46513" lon="-2.49765">
        <ele>59</ele>
        <time>2016-06-07T13:06:21Z</time>
      </trkpt>
      <trkpt lat="48.46516" lon="-2.49771">
        <ele>59</ele>
        <time>2016-06-07T13:06:25Z</time>
      </trkpt>
      <trkpt lat="48.46518" lon="-2.49776">
        <ele>59</ele>
        <time>2016-06-07T13:06:29Z</time>
      </trkpt>
      <trkpt lat="48.4652" lon="-2.49781">
        <ele>59</ele>
        <time>2016-06-07T13:06:33Z</time>
      </trkpt>
      <trkpt lat="48.46522" lon="-2.49786">
        <ele>59</ele>
        <time>2016-06-07T13:06:37Z</time>
      </trkpt>
      <trkpt lat="48.46524" lon="-2.49792">
        <ele>59</ele>
        <time>2016-06-07T13:06:41Z</time>
      </trkpt>
      <trkpt lat="48.46526" lon="-2.49798">
        <ele>59</ele>
        <time>2016-06-07T13:06:45Z</time>
      </trkpt>
      <trkpt lat="48.46529" lon="-2.49803">
        <ele>59</ele>
        <time>2016-06-07T13:06:49Z</time>
      </trkpt>
      <trkpt lat="48.46531" lon="-2.49809">
        <ele>59</ele>
        <time>2016-06-07T13:06:53Z</time>
      </trkpt>
      <trkpt lat="48.46533" lon="-2.49815">
        <ele>59</ele>
        <time>2016-06-07T13:06:57Z</time>
      </trkpt>
      <trkpt lat="48.46535" lon="-2.49819">
        <ele>59</ele>
        <time>2016-06-07T13:07:01Z</time>
      </trkpt>
      <trkpt lat="48.46537" lon="-2.49825">
        <ele>59</ele>
        <time>2016-06-07T13:07:05Z</time>
      </trkpt>
      <trkpt lat="48.46539" lon="-2.4983">
        <ele>59</ele>
        <time>2016-06-07T13:07:09Z</time>
      </trkpt>
      <trkpt lat="48.46541" lon="-2.49834">
        <ele>59</ele>
        <time>2016-06-07T13:07:13Z</time>
      </trkpt>
      <trkpt lat="48.46543" lon="-2.4984">
        <ele>59</ele>
        <time>2016-06-07T13:07:17Z</time>
      </trkpt>
      <trkpt lat="48.46545" lon="-2.49845">
        <ele>59</ele>
        <time>2016-06-07T13:07:21Z</time>
      </trkpt>
      <trkpt lat="48.46548" lon="-2.4985">
        <ele>59</ele>
        <time>2016-06-07T13:07:25Z</time>
      </trkpt>
      <trkpt lat="48.4655" lon="-2.49856">
        <ele>59</ele>
        <time>2016-06-07T13:07:29Z</time>
      </trkpt>
      <trkpt lat="48.46551" lon="-2.49862">
        <ele>59</ele>
        <time>2016-06-07T13:07:33Z</time>
      </trkpt>
      <trkpt lat="48.46553" lon="-2.49868">
        <ele>59</ele>
        <time>2016-06-07T13:07:37Z</time>
      </trkpt>
      <trkpt lat="48.46555" lon="-2.49873">
        <ele>59</ele>
        <time>2016-06-07T13:07:41Z</time>
      </trkpt>
      <trkpt lat="48.46556" lon="-2.49879">
        <ele>59</ele>
        <time>2016-06-07T13:07:44Z</time>
      </trkpt>
      <trkpt lat="48.46558" lon="-2.49884">
        <ele>59</ele>
        <time>2016-06-07T13:07:48Z</time>
      </trkpt>
      <trkpt lat="48.4656" lon="-2.4989">
        <ele>59</ele>
        <time>2016-06-07T13:07:52Z</time>
      </trkpt>
      <trkpt lat="48.46561" lon="-2.49895">
        <ele>59</ele>
        <time>2016-06-07T13:07:56Z</time>
      </trkpt>
      <trkpt lat="48.46563" lon="-2.49899">
        <ele>59</ele>
        <time>2016-06-07T13:08:00Z</time>
      </trkpt>
      <trkpt lat="48.46565" lon="-2.49904">
        <ele>59</ele>
        <time>2016-06-07T13:08:04Z</time>
      </trkpt>
      <trkpt lat="48.46566" lon="-2.49909">
        <ele>59</ele>
        <time>2016-06-07T13:08:07Z</time>
      </trkpt>
      <trkpt lat="48.46567" lon="-2.49914">
        <ele>59</ele>
        <time>2016-06-07T13:08:10Z</time>
      </trkpt>
      <trkpt lat="48.46569" lon="-2.4992">
        <ele>59</ele>
        <time>2016-06-07T13:08:14Z</time>
      </trkpt>
      <trkpt lat="48.4657" lon="-2.49925">
        <ele>59</ele>
        <time>2016-06-07T13:08:18Z</time>
      </trkpt>
      <trkpt lat="48.46572" lon="-2.4993">
        <ele>59</ele>
        <time>2016-06-07T13:08:21Z</time>
      </trkpt>
      <trkpt lat="48.46574" lon="-2.49936">
        <ele>59</ele>
        <time>2016-06-07T13:08:25Z</time>
      </trkpt>
      <trkpt lat="48.46576" lon="-2.49941">
        <ele>59</ele>
        <time>2016-06-07T13:08:28Z</time>
      </trkpt>
      <trkpt lat="48.46577" lon="-2.49945">
        <ele>60</ele>
        <time>2016-06-07T13:08:31Z</time>
      </trkpt>
      <trkpt lat="48.4658" lon="-2.4995">
        <ele>60</ele>
        <time>2016-06-07T13:08:34Z</time>
      </trkpt>
      <trkpt lat="48.46582" lon="-2.49956">
        <ele>60</ele>
        <time>2016-06-07T13:08:38Z</time>
      </trkpt>
      <trkpt lat="48.46584" lon="-2.49961">
        <ele>60</ele>
        <time>2016-06-07T13:08:42Z</time>
      </trkpt>
      <trkpt lat="48.46587" lon="-2.49965">
        <ele>60</ele>
        <time>2016-06-07T13:08:46Z</time>
      </trkpt>
      <trkpt lat="48.4659" lon="-2.49968">
        <ele>60</ele>
        <time>2016-06-07T13:08:50Z</time>
      </trkpt>
      <trkpt lat="48.46594" lon="-2.49971">
        <ele>60</ele>
        <time>2016-06-07T13:08:53Z</time>
      </trkpt>
      <trkpt lat="48.46598" lon="-2.49971">
        <ele>60</ele>
        <time>2016-06-07T13:08:57Z</time>
      </trkpt>
      <trkpt lat="48.46601" lon="-2.49972">
        <ele>60</ele>
        <time>2016-06-07T13:09:01Z</time>
      </trkpt>
      <trkpt lat="48.46603" lon="-2.49973">
        <ele>60</ele>
        <time>2016-06-07T13:09:05Z</time>
      </trkpt>
      <trkpt lat="48.46608" lon="-2.49974">
        <ele>60</ele>
        <time>2016-06-07T13:09:09Z</time>
      </trkpt>
      <trkpt lat="48.46611" lon="-2.49974">
        <ele>60</ele>
        <time>2016-06-07T13:09:13Z</time>
      </trkpt>
      <trkpt lat="48.46614" lon="-2.49974">
        <ele>60</ele>
        <time>2016-06-07T13:09:17Z</time>
      </trkpt>
      <trkpt lat="48.46617" lon="-2.49975">
        <ele>61</ele>
        <time>2016-06-07T13:09:21Z</time>
      </trkpt>
      <trkpt lat="48.4662" lon="-2.49975">
        <ele>61</ele>
        <time>2016-06-07T13:09:24Z</time>
      </trkpt>
      <trkpt lat="48.46623" lon="-2.49975">
        <ele>61</ele>
        <time>2016-06-07T13:09:30Z</time>
      </trkpt>
      <trkpt lat="48.46624" lon="-2.49975">
        <ele>63</ele>
        <time>2016-06-07T13:09:39Z</time>
      </trkpt>
      <trkpt lat="48.46624" lon="-2.49977">
        <ele>64</ele>
        <time>2016-06-07T13:09:46Z</time>
      </trkpt>
      <trkpt lat="48.46625" lon="-2.49978">
        <ele>65</ele>
        <time>2016-06-07T13:09:50Z</time>
      </trkpt>
      <trkpt lat="48.46625" lon="-2.49976">
        <ele>66</ele>
        <time>2016-06-07T13:10:05Z</time>
      </trkpt>
      <trkpt lat="48.46626" lon="-2.49974">
        <ele>66</ele>
        <time>2016-06-07T13:10:08Z</time>
      </trkpt>
      <trkpt lat="48.46626" lon="-2.49972">
        <ele>66</ele>
        <time>2016-06-07T13:10:11Z</time>
      </trkpt>
      <trkpt lat="48.46627" lon="-2.49968">
        <ele>66</ele>
        <time>2016-06-07T13:10:15Z</time>
      </trkpt>
      <trkpt lat="48.46626" lon="-2.49964">
        <ele>66</ele>
        <time>2016-06-07T13:10:19Z</time>
      </trkpt>
      <trkpt lat="48.46626" lon="-2.49959">
        <ele>66</ele>
        <time>2016-06-07T13:10:22Z</time>
      </trkpt>
      <trkpt lat="48.46624" lon="-2.49954">
        <ele>66</ele>
        <time>2016-06-07T13:10:25Z</time>
      </trkpt>
      <trkpt lat="48.46624" lon="-2.4995">
        <ele>65</ele>
        <time>2016-06-07T13:10:28Z</time>
      </trkpt>
      <trkpt lat="48.46625" lon="-2.49945">
        <ele>64</ele>
        <time>2016-06-07T13:10:31Z</time>
      </trkpt>
      <trkpt lat="48.46626" lon="-2.49939">
        <ele>62</ele>
        <time>2016-06-07T13:10:35Z</time>
      </trkpt>
      <trkpt lat="48.46627" lon="-2.49935">
        <ele>61</ele>
        <time>2016-06-07T13:10:38Z</time>
      </trkpt>
      <trkpt lat="48.46627" lon="-2.49929">
        <ele>61</ele>
        <time>2016-06-07T13:10:42Z</time>
      </trkpt>
      <trkpt lat="48.46627" lon="-2.49923">
        <ele>61</ele>
        <time>2016-06-07T13:10:45Z</time>
      </trkpt>
      <trkpt lat="48.46627" lon="-2.49917">
        <ele>61</ele>
        <time>2016-06-07T13:10:48Z</time>
      </trkpt>
      <trkpt lat="48.46627" lon="-2.49911">
        <ele>61</ele>
        <time>2016-06-07T13:10:51Z</time>
      </trkpt>
      <trkpt lat="48.46627" lon="-2.49904">
        <ele>61</ele>
        <time>2016-06-07T13:10:55Z</time>
      </trkpt>
      <trkpt lat="48.46628" lon="-2.49898">
        <ele>61</ele>
        <time>2016-06-07T13:10:58Z</time>
      </trkpt>
      <trkpt lat="48.4663" lon="-2.49893">
        <ele>61</ele>
        <time>2016-06-07T13:11:01Z</time>
      </trkpt>
      <trkpt lat="48.46632" lon="-2.49887">
        <ele>61</ele>
        <time>2016-06-07T13:11:05Z</time>
      </trkpt>
      <trkpt lat="48.46632" lon="-2.49881">
        <ele>61</ele>
        <time>2016-06-07T13:11:08Z</time>
      </trkpt>
      <trkpt lat="48.46634" lon="-2.49876">
        <ele>61</ele>
        <time>2016-06-07T13:11:11Z</time>
      </trkpt>
      <trkpt lat="48.46637" lon="-2.49873">
        <ele>61</ele>
        <time>2016-06-07T13:11:14Z</time>
      </trkpt>
      <trkpt lat="48.46639" lon="-2.49868">
        <ele>61</ele>
        <time>2016-06-07T13:11:18Z</time>
      </trkpt>
      <trkpt lat="48.46642" lon="-2.49862">
        <ele>61</ele>
        <time>2016-06-07T13:11:22Z</time>
      </trkpt>
      <trkpt lat="48.46643" lon="-2.49858">
        <ele>60</ele>
        <time>2016-06-07T13:11:25Z</time>
      </trkpt>
      <trkpt lat="48.46646" lon="-2.49854">
        <ele>60</ele>
        <time>2016-06-07T13:11:28Z</time>
      </trkpt>
      <trkpt lat="48.46649" lon="-2.49851">
        <ele>59</ele>
        <time>2016-06-07T13:11:31Z</time>
      </trkpt>
      <trkpt lat="48.46653" lon="-2.49847">
        <ele>58</ele>
        <time>2016-06-07T13:11:35Z</time>
      </trkpt>
      <trkpt lat="48.46657" lon="-2.49845">
        <ele>57</ele>
        <time>2016-06-07T13:11:39Z</time>
      </trkpt>
      <trkpt lat="48.46661" lon="-2.49841">
        <ele>57</ele>
        <time>2016-06-07T13:11:43Z</time>
      </trkpt>
      <trkpt lat="48.46664" lon="-2.49839">
        <ele>56</ele>
        <time>2016-06-07T13:11:46Z</time>
      </trkpt>
      <trkpt lat="48.46669" lon="-2.49837">
        <ele>56</ele>
        <time>2016-06-07T13:11:50Z</time>
      </trkpt>
      <trkpt lat="48.46672" lon="-2.49836">
        <ele>56</ele>
        <time>2016-06-07T13:11:53Z</time>
      </trkpt>
      <trkpt lat="48.46676" lon="-2.49834">
        <ele>56</ele>
        <time>2016-06-07T13:11:56Z</time>
      </trkpt>
      <trkpt lat="48.4668" lon="-2.49832">
        <ele>56</ele>
        <time>2016-06-07T13:12:00Z</time>
      </trkpt>
      <trkpt lat="48.46684" lon="-2.49829">
        <ele>56</ele>
        <time>2016-06-07T13:12:04Z</time>
      </trkpt>
      <trkpt lat="48.46687" lon="-2.49828">
        <ele>56</ele>
        <time>2016-06-07T13:12:07Z</time>
      </trkpt>
      <trkpt lat="48.46692" lon="-2.49825">
        <ele>56</ele>
        <time>2016-06-07T13:12:11Z</time>
      </trkpt>
      <trkpt lat="48.46694" lon="-2.49822">
        <ele>56</ele>
        <time>2016-06-07T13:12:14Z</time>
      </trkpt>
      <trkpt lat="48.46698" lon="-2.4982">
        <ele>56</ele>
        <time>2016-06-07T13:12:17Z</time>
      </trkpt>
      <trkpt lat="48.46701" lon="-2.49818">
        <ele>56</ele>
        <time>2016-06-07T13:12:21Z</time>
      </trkpt>
      <trkpt lat="48.46704" lon="-2.49814">
        <ele>56</ele>
        <time>2016-06-07T13:12:25Z</time>
      </trkpt>
      <trkpt lat="48.46707" lon="-2.49812">
        <ele>56</ele>
        <time>2016-06-07T13:12:29Z</time>
      </trkpt>
      <trkpt lat="48.4671" lon="-2.49808">
        <ele>56</ele>
        <time>2016-06-07T13:12:33Z</time>
      </trkpt>
      <trkpt lat="48.46714" lon="-2.49803">
        <ele>56</ele>
        <time>2016-06-07T13:12:37Z</time>
      </trkpt>
      <trkpt lat="48.46719" lon="-2.49799">
        <ele>56</ele>
        <time>2016-06-07T13:12:41Z</time>
      </trkpt>
      <trkpt lat="48.46722" lon="-2.49794">
        <ele>56</ele>
        <time>2016-06-07T13:12:45Z</time>
      </trkpt>
      <trkpt lat="48.46724" lon="-2.49792">
        <ele>56</ele>
        <time>2016-06-07T13:12:48Z</time>
      </trkpt>
      <trkpt lat="48.46725" lon="-2.49786">
        <ele>56</ele>
        <time>2016-06-07T13:12:51Z</time>
      </trkpt>
      <trkpt lat="48.46728" lon="-2.49783">
        <ele>56</ele>
        <time>2016-06-07T13:12:54Z</time>
      </trkpt>
      <trkpt lat="48.46731" lon="-2.4978">
        <ele>55</ele>
        <time>2016-06-07T13:12:57Z</time>
      </trkpt>
      <trkpt lat="48.46734" lon="-2.49776">
        <ele>55</ele>
        <time>2016-06-07T13:13:01Z</time>
      </trkpt>
      <trkpt lat="48.46736" lon="-2.49771">
        <ele>55</ele>
        <time>2016-06-07T13:13:05Z</time>
      </trkpt>
      <trkpt lat="48.4674" lon="-2.49767">
        <ele>54</ele>
        <time>2016-06-07T13:13:09Z</time>
      </trkpt>
      <trkpt lat="48.46744" lon="-2.49763">
        <ele>54</ele>
        <time>2016-06-07T13:13:13Z</time>
      </trkpt>
      <trkpt lat="48.46749" lon="-2.4976">
        <ele>54</ele>
        <time>2016-06-07T13:13:17Z</time>
      </trkpt>
      <trkpt lat="48.46752" lon="-2.49758">
        <ele>54</ele>
        <time>2016-06-07T13:13:20Z</time>
      </trkpt>
      <trkpt lat="48.46755" lon="-2.49754">
        <ele>54</ele>
        <time>2016-06-07T13:13:25Z</time>
      </trkpt>
      <trkpt lat="48.46758" lon="-2.49752">
        <ele>54</ele>
        <time>2016-06-07T13:13:28Z</time>
      </trkpt>
      <trkpt lat="48.46762" lon="-2.49751">
        <ele>54</ele>
        <time>2016-06-07T13:13:32Z</time>
      </trkpt>
      <trkpt lat="48.46765" lon="-2.49751">
        <ele>54</ele>
        <time>2016-06-07T13:13:35Z</time>
      </trkpt>
      <trkpt lat="48.46769" lon="-2.49752">
        <ele>53</ele>
        <time>2016-06-07T13:13:38Z</time>
      </trkpt>
      <trkpt lat="48.46772" lon="-2.49754">
        <ele>53</ele>
        <time>2016-06-07T13:13:41Z</time>
      </trkpt>
      <trkpt lat="48.46776" lon="-2.49757">
        <ele>53</ele>
        <time>2016-06-07T13:13:44Z</time>
      </trkpt>
      <trkpt lat="48.4678" lon="-2.49761">
        <ele>53</ele>
        <time>2016-06-07T13:13:48Z</time>
      </trkpt>
      <trkpt lat="48.46783" lon="-2.49763">
        <ele>53</ele>
        <time>2016-06-07T13:13:51Z</time>
      </trkpt>
      <trkpt lat="48.46785" lon="-2.49765">
        <ele>53</ele>
        <time>2016-06-07T13:13:54Z</time>
      </trkpt>
      <trkpt lat="48.46789" lon="-2.49767">
        <ele>53</ele>
        <time>2016-06-07T13:13:57Z</time>
      </trkpt>
      <trkpt lat="48.46792" lon="-2.49768">
        <ele>53</ele>
        <time>2016-06-07T13:14:01Z</time>
      </trkpt>
      <trkpt lat="48.46795" lon="-2.49768">
        <ele>53</ele>
        <time>2016-06-07T13:14:04Z</time>
      </trkpt>
      <trkpt lat="48.46798" lon="-2.49768">
        <ele>53</ele>
        <time>2016-06-07T13:14:07Z</time>
      </trkpt>
      <trkpt lat="48.46802" lon="-2.49769">
        <ele>53</ele>
        <time>2016-06-07T13:14:10Z</time>
      </trkpt>
      <trkpt lat="48.46806" lon="-2.49768">
        <ele>53</ele>
        <time>2016-06-07T13:14:13Z</time>
      </trkpt>
      <trkpt lat="48.46809" lon="-2.49769">
        <ele>53</ele>
        <time>2016-06-07T13:14:17Z</time>
      </trkpt>
      <trkpt lat="48.46813" lon="-2.4977">
        <ele>53</ele>
        <time>2016-06-07T13:14:21Z</time>
      </trkpt>
      <trkpt lat="48.46817" lon="-2.4977">
        <ele>53</ele>
        <time>2016-06-07T13:14:25Z</time>
      </trkpt>
      <trkpt lat="48.46821" lon="-2.49769">
        <ele>53</ele>
        <time>2016-06-07T13:14:28Z</time>
      </trkpt>
      <trkpt lat="48.46826" lon="-2.49768">
        <ele>53</ele>
        <time>2016-06-07T13:14:32Z</time>
      </trkpt>
      <trkpt lat="48.46829" lon="-2.49768">
        <ele>53</ele>
        <time>2016-06-07T13:14:35Z</time>
      </trkpt>
      <trkpt lat="48.46832" lon="-2.49768">
        <ele>53</ele>
        <time>2016-06-07T13:14:38Z</time>
      </trkpt>
      <trkpt lat="48.46836" lon="-2.49768">
        <ele>53</ele>
        <time>2016-06-07T13:14:41Z</time>
      </trkpt>
      <trkpt lat="48.4684" lon="-2.49767">
        <ele>52</ele>
        <time>2016-06-07T13:14:44Z</time>
      </trkpt>
      <trkpt lat="48.46843" lon="-2.49766">
        <ele>52</ele>
        <time>2016-06-07T13:14:47Z</time>
      </trkpt>
      <trkpt lat="48.46846" lon="-2.49766">
        <ele>51</ele>
        <time>2016-06-07T13:14:50Z</time>
      </trkpt>
      <trkpt lat="48.46851" lon="-2.49765">
        <ele>51</ele>
        <time>2016-06-07T13:14:53Z</time>
      </trkpt>
      <trkpt lat="48.46855" lon="-2.49765">
        <ele>51</ele>
        <time>2016-06-07T13:14:56Z</time>
      </trkpt>
      <trkpt lat="48.46858" lon="-2.49763">
        <ele>50</ele>
        <time>2016-06-07T13:14:59Z</time>
      </trkpt>
      <trkpt lat="48.46862" lon="-2.4976">
        <ele>50</ele>
        <time>2016-06-07T13:15:02Z</time>
      </trkpt>
      <trkpt lat="48.46865" lon="-2.49755">
        <ele>50</ele>
        <time>2016-06-07T13:15:06Z</time>
      </trkpt>
      <trkpt lat="48.46865" lon="-2.49749">
        <ele>50</ele>
        <time>2016-06-07T13:15:10Z</time>
      </trkpt>
      <trkpt lat="48.46866" lon="-2.49745">
        <ele>50</ele>
        <time>2016-06-07T13:15:15Z</time>
      </trkpt>
      <trkpt lat="48.46865" lon="-2.49739">
        <ele>50</ele>
        <time>2016-06-07T13:15:19Z</time>
      </trkpt>
      <trkpt lat="48.46864" lon="-2.49734">
        <ele>50</ele>
        <time>2016-06-07T13:15:22Z</time>
      </trkpt>
      <trkpt lat="48.46862" lon="-2.49729">
        <ele>50</ele>
        <time>2016-06-07T13:15:25Z</time>
      </trkpt>
      <trkpt lat="48.4686" lon="-2.49723">
        <ele>50</ele>
        <time>2016-06-07T13:15:29Z</time>
      </trkpt>
      <trkpt lat="48.46859" lon="-2.49717">
        <ele>50</ele>
        <time>2016-06-07T13:15:33Z</time>
      </trkpt>
      <trkpt lat="48.46857" lon="-2.49711">
        <ele>50</ele>
        <time>2016-06-07T13:15:37Z</time>
      </trkpt>
      <trkpt lat="48.46856" lon="-2.49706">
        <ele>50</ele>
        <time>2016-06-07T13:15:40Z</time>
      </trkpt>
      <trkpt lat="48.46855" lon="-2.49701">
        <ele>50</ele>
        <time>2016-06-07T13:15:43Z</time>
      </trkpt>
      <trkpt lat="48.46854" lon="-2.49695">
        <ele>50</ele>
        <time>2016-06-07T13:15:46Z</time>
      </trkpt>
      <trkpt lat="48.46854" lon="-2.4969">
        <ele>50</ele>
        <time>2016-06-07T13:15:49Z</time>
      </trkpt>
      <trkpt lat="48.46853" lon="-2.49685">
        <ele>50</ele>
        <time>2016-06-07T13:15:52Z</time>
      </trkpt>
      <trkpt lat="48.46853" lon="-2.49679">
        <ele>50</ele>
        <time>2016-06-07T13:15:56Z</time>
      </trkpt>
      <trkpt lat="48.46852" lon="-2.49673">
        <ele>50</ele>
        <time>2016-06-07T13:16:00Z</time>
      </trkpt>
      <trkpt lat="48.46851" lon="-2.49667">
        <ele>50</ele>
        <time>2016-06-07T13:16:03Z</time>
      </trkpt>
      <trkpt lat="48.46851" lon="-2.4966">
        <ele>50</ele>
        <time>2016-06-07T13:16:07Z</time>
      </trkpt>
      <trkpt lat="48.4685" lon="-2.49655">
        <ele>50</ele>
        <time>2016-06-07T13:16:10Z</time>
      </trkpt>
      <trkpt lat="48.46849" lon="-2.49651">
        <ele>50</ele>
        <time>2016-06-07T13:16:13Z</time>
      </trkpt>
      <trkpt lat="48.46848" lon="-2.49646">
        <ele>50</ele>
        <time>2016-06-07T13:16:16Z</time>
      </trkpt>
      <trkpt lat="48.46847" lon="-2.49641">
        <ele>50</ele>
        <time>2016-06-07T13:16:19Z</time>
      </trkpt>
      <trkpt lat="48.46846" lon="-2.49638">
        <ele>50</ele>
        <time>2016-06-07T13:16:22Z</time>
      </trkpt>
      <trkpt lat="48.46845" lon="-2.49635">
        <ele>50</ele>
        <time>2016-06-07T13:16:25Z</time>
      </trkpt>
      <trkpt lat="48.46846" lon="-2.49633">
        <ele>50</ele>
        <time>2016-06-07T13:16:28Z</time>
      </trkpt>
      <trkpt lat="48.46845" lon="-2.49631">
        <ele>50</ele>
        <time>2016-06-07T13:16:31Z</time>
      </trkpt>
      <trkpt lat="48.46844" lon="-2.49626">
        <ele>50</ele>
        <time>2016-06-07T13:16:35Z</time>
      </trkpt>
      <trkpt lat="48.46844" lon="-2.49621">
        <ele>50</ele>
        <time>2016-06-07T13:16:39Z</time>
      </trkpt>
      <trkpt lat="48.46843" lon="-2.49615">
        <ele>50</ele>
        <time>2016-06-07T13:16:43Z</time>
      </trkpt>
      <trkpt lat="48.46841" lon="-2.49611">
        <ele>50</ele>
        <time>2016-06-07T13:16:47Z</time>
      </trkpt>
      <trkpt lat="48.46841" lon="-2.49606">
        <ele>50</ele>
        <time>2016-06-07T13:16:51Z</time>
      </trkpt>
      <trkpt lat="48.4684" lon="-2.49601">
        <ele>50</ele>
        <time>2016-06-07T13:16:55Z</time>
      </trkpt>
      <trkpt lat="48.4684" lon="-2.49596">
        <ele>50</ele>
        <time>2016-06-07T13:16:58Z</time>
      </trkpt>
      <trkpt lat="48.46841" lon="-2.4959">
        <ele>50</ele>
        <time>2016-06-07T13:17:01Z</time>
      </trkpt>
      <trkpt lat="48.46843" lon="-2.49585">
        <ele>50</ele>
        <time>2016-06-07T13:17:04Z</time>
      </trkpt>
      <trkpt lat="48.46843" lon="-2.4958">
        <ele>50</ele>
        <time>2016-06-07T13:17:07Z</time>
      </trkpt>
      <trkpt lat="48.46844" lon="-2.49575">
        <ele>50</ele>
        <time>2016-06-07T13:17:11Z</time>
      </trkpt>
      <trkpt lat="48.46844" lon="-2.49568">
        <ele>50</ele>
        <time>2016-06-07T13:17:15Z</time>
      </trkpt>
      <trkpt lat="48.46844" lon="-2.49563">
        <ele>50</ele>
        <time>2016-06-07T13:17:18Z</time>
      </trkpt>
      <trkpt lat="48.46845" lon="-2.49558">
        <ele>51</ele>
        <time>2016-06-07T13:17:21Z</time>
      </trkpt>
      <trkpt lat="48.46848" lon="-2.49553">
        <ele>52</ele>
        <time>2016-06-07T13:17:25Z</time>
      </trkpt>
      <trkpt lat="48.46852" lon="-2.49551">
        <ele>52</ele>
        <time>2016-06-07T13:17:29Z</time>
      </trkpt>
      <trkpt lat="48.46855" lon="-2.49549">
        <ele>52</ele>
        <time>2016-06-07T13:17:32Z</time>
      </trkpt>
      <trkpt lat="48.46858" lon="-2.49547">
        <ele>52</ele>
        <time>2016-06-07T13:17:36Z</time>
      </trkpt>
      <trkpt lat="48.46861" lon="-2.49545">
        <ele>52</ele>
        <time>2016-06-07T13:17:39Z</time>
      </trkpt>
      <trkpt lat="48.46862" lon="-2.49545">
        <ele>52</ele>
        <time>2016-06-07T13:17:42Z</time>
      </trkpt>
      <trkpt lat="48.46865" lon="-2.49547">
        <ele>52</ele>
        <time>2016-06-07T13:17:46Z</time>
      </trkpt>
      <trkpt lat="48.46869" lon="-2.49549">
        <ele>52</ele>
        <time>2016-06-07T13:17:50Z</time>
      </trkpt>
      <trkpt lat="48.46875" lon="-2.4955">
        <ele>52</ele>
        <time>2016-06-07T13:17:53Z</time>
      </trkpt>
      <trkpt lat="48.46879" lon="-2.49551">
        <ele>52</ele>
        <time>2016-06-07T13:17:56Z</time>
      </trkpt>
      <trkpt lat="48.46882" lon="-2.49552">
        <ele>52</ele>
        <time>2016-06-07T13:17:59Z</time>
      </trkpt>
      <trkpt lat="48.46886" lon="-2.49552">
        <ele>52</ele>
        <time>2016-06-07T13:18:03Z</time>
      </trkpt>
      <trkpt lat="48.46891" lon="-2.49552">
        <ele>52</ele>
        <time>2016-06-07T13:18:06Z</time>
      </trkpt>
      <trkpt lat="48.46896" lon="-2.49552">
        <ele>53</ele>
        <time>2016-06-07T13:18:09Z</time>
      </trkpt>
      <trkpt lat="48.46899" lon="-2.49551">
        <ele>54</ele>
        <time>2016-06-07T13:18:12Z</time>
      </trkpt>
      <trkpt lat="48.46904" lon="-2.49551">
        <ele>54</ele>
        <time>2016-06-07T13:18:16Z</time>
      </trkpt>
      <trkpt lat="48.46906" lon="-2.49548">
        <ele>54</ele>
        <time>2016-06-07T13:18:20Z</time>
      </trkpt>
      <trkpt lat="48.46909" lon="-2.49546">
        <ele>54</ele>
        <time>2016-06-07T13:18:23Z</time>
      </trkpt>
      <trkpt lat="48.46912" lon="-2.49544">
        <ele>54</ele>
        <time>2016-06-07T13:18:26Z</time>
      </trkpt>
      <trkpt lat="48.46916" lon="-2.49542">
        <ele>54</ele>
        <time>2016-06-07T13:18:30Z</time>
      </trkpt>
      <trkpt lat="48.4692" lon="-2.4954">
        <ele>54</ele>
        <time>2016-06-07T13:18:34Z</time>
      </trkpt>
      <trkpt lat="48.46923" lon="-2.49536">
        <ele>54</ele>
        <time>2016-06-07T13:18:38Z</time>
      </trkpt>
      <trkpt lat="48.46926" lon="-2.49533">
        <ele>54</ele>
        <time>2016-06-07T13:18:42Z</time>
      </trkpt>
      <trkpt lat="48.46925" lon="-2.49528">
        <ele>54</ele>
        <time>2016-06-07T13:18:45Z</time>
      </trkpt>
      <trkpt lat="48.46922" lon="-2.49523">
        <ele>54</ele>
        <time>2016-06-07T13:18:49Z</time>
      </trkpt>
      <trkpt lat="48.46919" lon="-2.49522">
        <ele>54</ele>
        <time>2016-06-07T13:18:53Z</time>
      </trkpt>
      <trkpt lat="48.46917" lon="-2.49517">
        <ele>53</ele>
        <time>2016-06-07T13:18:57Z</time>
      </trkpt>
      <trkpt lat="48.46915" lon="-2.49512">
        <ele>53</ele>
        <time>2016-06-07T13:19:00Z</time>
      </trkpt>
      <trkpt lat="48.46913" lon="-2.49508">
        <ele>53</ele>
        <time>2016-06-07T13:19:04Z</time>
      </trkpt>
      <trkpt lat="48.46912" lon="-2.49505">
        <ele>53</ele>
        <time>2016-06-07T13:19:07Z</time>
      </trkpt>
      <trkpt lat="48.46909" lon="-2.495">
        <ele>53</ele>
        <time>2016-06-07T13:19:10Z</time>
      </trkpt>
      <trkpt lat="48.46907" lon="-2.49494">
        <ele>53</ele>
        <time>2016-06-07T13:19:14Z</time>
      </trkpt>
      <trkpt lat="48.46906" lon="-2.49488">
        <ele>53</ele>
        <time>2016-06-07T13:19:17Z</time>
      </trkpt>
      <trkpt lat="48.46904" lon="-2.49483">
        <ele>53</ele>
        <time>2016-06-07T13:19:21Z</time>
      </trkpt>
      <trkpt lat="48.46903" lon="-2.49479">
        <ele>53</ele>
        <time>2016-06-07T13:19:24Z</time>
      </trkpt>
      <trkpt lat="48.469" lon="-2.49474">
        <ele>53</ele>
        <time>2016-06-07T13:19:27Z</time>
      </trkpt>
      <trkpt lat="48.46897" lon="-2.49468">
        <ele>53</ele>
        <time>2016-06-07T13:19:31Z</time>
      </trkpt>
      <trkpt lat="48.46894" lon="-2.49464">
        <ele>53</ele>
        <time>2016-06-07T13:19:34Z</time>
      </trkpt>
      <trkpt lat="48.46893" lon="-2.49458">
        <ele>53</ele>
        <time>2016-06-07T13:19:38Z</time>
      </trkpt>
      <trkpt lat="48.46889" lon="-2.49453">
        <ele>53</ele>
        <time>2016-06-07T13:19:42Z</time>
      </trkpt>
      <trkpt lat="48.46888" lon="-2.49449">
        <ele>53</ele>
        <time>2016-06-07T13:19:46Z</time>
      </trkpt>
      <trkpt lat="48.46886" lon="-2.49443">
        <ele>53</ele>
        <time>2016-06-07T13:19:50Z</time>
      </trkpt>
      <trkpt lat="48.46884" lon="-2.49439">
        <ele>53</ele>
        <time>2016-06-07T13:19:54Z</time>
      </trkpt>
      <trkpt lat="48.46883" lon="-2.49434">
        <ele>53</ele>
        <time>2016-06-07T13:19:57Z</time>
      </trkpt>
      <trkpt lat="48.46879" lon="-2.49431">
        <ele>53</ele>
        <time>2016-06-07T13:20:00Z</time>
      </trkpt>
      <trkpt lat="48.46875" lon="-2.49429">
        <ele>55</ele>
        <time>2016-06-07T13:20:03Z</time>
      </trkpt>
      <trkpt lat="48.46871" lon="-2.49427">
        <ele>56</ele>
        <time>2016-06-07T13:20:06Z</time>
      </trkpt>
      <trkpt lat="48.46869" lon="-2.49423">
        <ele>57</ele>
        <time>2016-06-07T13:20:10Z</time>
      </trkpt>
      <trkpt lat="48.46865" lon="-2.49423">
        <ele>57</ele>
        <time>2016-06-07T13:20:13Z</time>
      </trkpt>
      <trkpt lat="48.46862" lon="-2.49423">
        <ele>58</ele>
        <time>2016-06-07T13:20:16Z</time>
      </trkpt>
      <trkpt lat="48.4686" lon="-2.49418">
        <ele>58</ele>
        <time>2016-06-07T13:20:19Z</time>
      </trkpt>
      <trkpt lat="48.4686" lon="-2.49412">
        <ele>58</ele>
        <time>2016-06-07T13:20:22Z</time>
      </trkpt>
      <trkpt lat="48.46859" lon="-2.49406">
        <ele>58</ele>
        <time>2016-06-07T13:20:25Z</time>
      </trkpt>
      <trkpt lat="48.46858" lon="-2.49401">
        <ele>58</ele>
        <time>2016-06-07T13:20:29Z</time>
      </trkpt>
      <trkpt lat="48.46856" lon="-2.49396">
        <ele>57</ele>
        <time>2016-06-07T13:20:33Z</time>
      </trkpt>
      <trkpt lat="48.46852" lon="-2.49392">
        <ele>57</ele>
        <time>2016-06-07T13:20:37Z</time>
      </trkpt>
      <trkpt lat="48.46849" lon="-2.49389">
        <ele>57</ele>
        <time>2016-06-07T13:20:41Z</time>
      </trkpt>
      <trkpt lat="48.46847" lon="-2.49385">
        <ele>57</ele>
        <time>2016-06-07T13:20:45Z</time>
      </trkpt>
      <trkpt lat="48.46843" lon="-2.49384">
        <ele>57</ele>
        <time>2016-06-07T13:20:48Z</time>
      </trkpt>
      <trkpt lat="48.4684" lon="-2.49382">
        <ele>57</ele>
        <time>2016-06-07T13:20:52Z</time>
      </trkpt>
      <trkpt lat="48.46835" lon="-2.49382">
        <ele>57</ele>
        <time>2016-06-07T13:20:55Z</time>
      </trkpt>
      <trkpt lat="48.46832" lon="-2.49382">
        <ele>55</ele>
        <time>2016-06-07T13:20:59Z</time>
      </trkpt>
      <trkpt lat="48.46828" lon="-2.49382">
        <ele>53</ele>
        <time>2016-06-07T13:21:03Z</time>
      </trkpt>
      <trkpt lat="48.46823" lon="-2.49381">
        <ele>52</ele>
        <time>2016-06-07T13:21:07Z</time>
      </trkpt>
      <trkpt lat="48.4682" lon="-2.49381">
        <ele>52</ele>
        <time>2016-06-07T13:21:11Z</time>
      </trkpt>
      <trkpt lat="48.46817" lon="-2.49379">
        <ele>52</ele>
        <time>2016-06-07T13:21:15Z</time>
      </trkpt>
      <trkpt lat="48.46812" lon="-2.49378">
        <ele>52</ele>
        <time>2016-06-07T13:21:19Z</time>
      </trkpt>
      <trkpt lat="48.46809" lon="-2.49379">
        <ele>52</ele>
        <time>2016-06-07T13:21:22Z</time>
      </trkpt>
      <trkpt lat="48.46803" lon="-2.49381">
        <ele>52</ele>
        <time>2016-06-07T13:21:25Z</time>
      </trkpt>
      <trkpt lat="48.46798" lon="-2.49382">
        <ele>52</ele>
        <time>2016-06-07T13:21:28Z</time>
      </trkpt>
      <trkpt lat="48.46795" lon="-2.49384">
        <ele>52</ele>
        <time>2016-06-07T13:21:32Z</time>
      </trkpt>
      <trkpt lat="48.46792" lon="-2.49383">
        <ele>52</ele>
        <time>2016-06-07T13:21:36Z</time>
      </trkpt>
      <trkpt lat="48.46787" lon="-2.49381">
        <ele>52</ele>
        <time>2016-06-07T13:21:40Z</time>
      </trkpt>
      <trkpt lat="48.46784" lon="-2.49381">
        <ele>52</ele>
        <time>2016-06-07T13:21:44Z</time>
      </trkpt>
      <trkpt lat="48.46783" lon="-2.4938">
        <ele>52</ele>
        <time>2016-06-07T13:21:47Z</time>
      </trkpt>
      <trkpt lat="48.4678" lon="-2.4938">
        <ele>52</ele>
        <time>2016-06-07T13:21:50Z</time>
      </trkpt>
      <trkpt lat="48.46776" lon="-2.49381">
        <ele>52</ele>
        <time>2016-06-07T13:21:53Z</time>
      </trkpt>
      <trkpt lat="48.46772" lon="-2.49381">
        <ele>52</ele>
        <time>2016-06-07T13:21:57Z</time>
      </trkpt>
      <trkpt lat="48.46769" lon="-2.49381">
        <ele>52</ele>
        <time>2016-06-07T13:22:00Z</time>
      </trkpt>
      <trkpt lat="48.46766" lon="-2.49382">
        <ele>52</ele>
        <time>2016-06-07T13:22:03Z</time>
      </trkpt>
      <trkpt lat="48.46762" lon="-2.49383">
        <ele>52</ele>
        <time>2016-06-07T13:22:06Z</time>
      </trkpt>
      <trkpt lat="48.46757" lon="-2.49382">
        <ele>52</ele>
        <time>2016-06-07T13:22:09Z</time>
      </trkpt>
      <trkpt lat="48.46752" lon="-2.49383">
        <ele>52</ele>
        <time>2016-06-07T13:22:13Z</time>
      </trkpt>
      <trkpt lat="48.46749" lon="-2.49385">
        <ele>52</ele>
        <time>2016-06-07T13:22:16Z</time>
      </trkpt>
      <trkpt lat="48.46746" lon="-2.49385">
        <ele>51</ele>
        <time>2016-06-07T13:22:21Z</time>
      </trkpt>
      <trkpt lat="48.4674" lon="-2.49385">
        <ele>51</ele>
        <time>2016-06-07T13:22:25Z</time>
      </trkpt>
      <trkpt lat="48.46737" lon="-2.49385">
        <ele>51</ele>
        <time>2016-06-07T13:22:28Z</time>
      </trkpt>
      <trkpt lat="48.46733" lon="-2.49386">
        <ele>51</ele>
        <time>2016-06-07T13:22:31Z</time>
      </trkpt>
      <trkpt lat="48.4673" lon="-2.49387">
        <ele>51</ele>
        <time>2016-06-07T13:22:34Z</time>
      </trkpt>
      <trkpt lat="48.46727" lon="-2.49387">
        <ele>51</ele>
        <time>2016-06-07T13:22:37Z</time>
      </trkpt>
      <trkpt lat="48.46724" lon="-2.49386">
        <ele>51</ele>
        <time>2016-06-07T13:22:40Z</time>
      </trkpt>
      <trkpt lat="48.46719" lon="-2.49383">
        <ele>51</ele>
        <time>2016-06-07T13:22:43Z</time>
      </trkpt>
      <trkpt lat="48.46714" lon="-2.49382">
        <ele>51</ele>
        <time>2016-06-07T13:22:46Z</time>
      </trkpt>
      <trkpt lat="48.46711" lon="-2.49381">
        <ele>52</ele>
        <time>2016-06-07T13:22:49Z</time>
      </trkpt>
      <trkpt lat="48.46706" lon="-2.4938">
        <ele>54</ele>
        <time>2016-06-07T13:22:53Z</time>
      </trkpt>
      <trkpt lat="48.46702" lon="-2.4938">
        <ele>54</ele>
        <time>2016-06-07T13:22:56Z</time>
      </trkpt>
      <trkpt lat="48.467" lon="-2.49382">
        <ele>54</ele>
        <time>2016-06-07T13:23:03Z</time>
      </trkpt>
      <trkpt lat="48.46698" lon="-2.49384">
        <ele>54</ele>
        <time>2016-06-07T13:23:06Z</time>
      </trkpt>
      <trkpt lat="48.46695" lon="-2.49384">
        <ele>54</ele>
        <time>2016-06-07T13:23:09Z</time>
      </trkpt>
      <trkpt lat="48.4669" lon="-2.49386">
        <ele>54</ele>
        <time>2016-06-07T13:23:13Z</time>
      </trkpt>
      <trkpt lat="48.46686" lon="-2.49389">
        <ele>54</ele>
        <time>2016-06-07T13:23:17Z</time>
      </trkpt>
      <trkpt lat="48.46683" lon="-2.4939">
        <ele>54</ele>
        <time>2016-06-07T13:23:20Z</time>
      </trkpt>
      <trkpt lat="48.46679" lon="-2.49392">
        <ele>54</ele>
        <time>2016-06-07T13:23:24Z</time>
      </trkpt>
      <trkpt lat="48.46675" lon="-2.49392">
        <ele>54</ele>
        <time>2016-06-07T13:23:27Z</time>
      </trkpt>
      <trkpt lat="48.46672" lon="-2.49393">
        <ele>54</ele>
        <time>2016-06-07T13:23:31Z</time>
      </trkpt>
      <trkpt lat="48.46668" lon="-2.49393">
        <ele>54</ele>
        <time>2016-06-07T13:23:34Z</time>
      </trkpt>
      <trkpt lat="48.46665" lon="-2.49391">
        <ele>54</ele>
        <time>2016-06-07T13:23:38Z</time>
      </trkpt>
      <trkpt lat="48.46662" lon="-2.49388">
        <ele>54</ele>
        <time>2016-06-07T13:23:41Z</time>
      </trkpt>
      <trkpt lat="48.46658" lon="-2.49382">
        <ele>54</ele>
        <time>2016-06-07T13:23:45Z</time>
      </trkpt>
      <trkpt lat="48.46655" lon="-2.49378">
        <ele>54</ele>
        <time>2016-06-07T13:23:48Z</time>
      </trkpt>
      <trkpt lat="48.46651" lon="-2.49375">
        <ele>54</ele>
        <time>2016-06-07T13:23:52Z</time>
      </trkpt>
      <trkpt lat="48.46649" lon="-2.49372">
        <ele>54</ele>
        <time>2016-06-07T13:23:55Z</time>
      </trkpt>
      <trkpt lat="48.46645" lon="-2.49369">
        <ele>54</ele>
        <time>2016-06-07T13:23:58Z</time>
      </trkpt>
      <trkpt lat="48.4664" lon="-2.49369">
        <ele>55</ele>
        <time>2016-06-07T13:24:01Z</time>
      </trkpt>
      <trkpt lat="48.46637" lon="-2.49371">
        <ele>56</ele>
        <time>2016-06-07T13:24:04Z</time>
      </trkpt>
      <trkpt lat="48.46635" lon="-2.49374">
        <ele>57</ele>
        <time>2016-06-07T13:24:08Z</time>
      </trkpt>
      <trkpt lat="48.46635" lon="-2.49373">
        <ele>57</ele>
        <time>2016-06-07T13:24:15Z</time>
      </trkpt>
      <trkpt lat="48.46634" lon="-2.49374">
        <ele>57</ele>
        <time>2016-06-07T13:24:19Z</time>
      </trkpt>
      <trkpt lat="48.4663" lon="-2.49374">
        <ele>56</ele>
        <time>2016-06-07T13:24:24Z</time>
      </trkpt>
      <trkpt lat="48.46628" lon="-2.49377">
        <ele>55</ele>
        <time>2016-06-07T13:24:29Z</time>
      </trkpt>
      <trkpt lat="48.46628" lon="-2.49378">
        <ele>54</ele>
        <time>2016-06-07T13:24:36Z</time>
      </trkpt>
      <trkpt lat="48.46625" lon="-2.4938">
        <ele>54</ele>
        <time>2016-06-07T13:24:40Z</time>
      </trkpt>
      <trkpt lat="48.46623" lon="-2.49383">
        <ele>54</ele>
        <time>2016-06-07T13:24:46Z</time>
      </trkpt>
      <trkpt lat="48.46621" lon="-2.49381">
        <ele>54</ele>
        <time>2016-06-07T13:24:49Z</time>
      </trkpt>
      <trkpt lat="48.46618" lon="-2.4938">
        <ele>54</ele>
        <time>2016-06-07T13:24:54Z</time>
      </trkpt>
      <trkpt lat="48.46619" lon="-2.49378">
        <ele>54</ele>
        <time>2016-06-07T13:25:00Z</time>
      </trkpt>
      <trkpt lat="48.46616" lon="-2.49377">
        <ele>54</ele>
        <time>2016-06-07T13:25:03Z</time>
      </trkpt>
      <trkpt lat="48.46613" lon="-2.49377">
        <ele>54</ele>
        <time>2016-06-07T13:25:06Z</time>
      </trkpt>
      <trkpt lat="48.46608" lon="-2.49377">
        <ele>54</ele>
        <time>2016-06-07T13:25:09Z</time>
      </trkpt>
      <trkpt lat="48.46604" lon="-2.49378">
        <ele>54</ele>
        <time>2016-06-07T13:25:12Z</time>
      </trkpt>
      <trkpt lat="48.466" lon="-2.49379">
        <ele>52</ele>
        <time>2016-06-07T13:25:16Z</time>
      </trkpt>
      <trkpt lat="48.46597" lon="-2.49383">
        <ele>50</ele>
        <time>2016-06-07T13:25:19Z</time>
      </trkpt>
      <trkpt lat="48.46592" lon="-2.49387">
        <ele>50</ele>
        <time>2016-06-07T13:25:23Z</time>
      </trkpt>
      <trkpt lat="48.46588" lon="-2.49387">
        <ele>50</ele>
        <time>2016-06-07T13:25:26Z</time>
      </trkpt>
      <trkpt lat="48.46584" lon="-2.49387">
        <ele>50</ele>
        <time>2016-06-07T13:25:29Z</time>
      </trkpt>
      <trkpt lat="48.4658" lon="-2.49384">
        <ele>50</ele>
        <time>2016-06-07T13:25:32Z</time>
      </trkpt>
      <trkpt lat="48.46577" lon="-2.49381">
        <ele>50</ele>
        <time>2016-06-07T13:25:35Z</time>
      </trkpt>
      <trkpt lat="48.46573" lon="-2.49377">
        <ele>50</ele>
        <time>2016-06-07T13:25:38Z</time>
      </trkpt>
      <trkpt lat="48.46569" lon="-2.49373">
        <ele>50</ele>
        <time>2016-06-07T13:25:41Z</time>
      </trkpt>
      <trkpt lat="48.46568" lon="-2.49369">
        <ele>50</ele>
        <time>2016-06-07T13:25:44Z</time>
      </trkpt>
      <trkpt lat="48.46565" lon="-2.49363">
        <ele>48</ele>
        <time>2016-06-07T13:25:48Z</time>
      </trkpt>
      <trkpt lat="48.46563" lon="-2.49358">
        <ele>46</ele>
        <time>2016-06-07T13:25:52Z</time>
      </trkpt>
      <trkpt lat="48.46562" lon="-2.49352">
        <ele>46</ele>
        <time>2016-06-07T13:25:55Z</time>
      </trkpt>
      <trkpt lat="48.4656" lon="-2.49347">
        <ele>46</ele>
        <time>2016-06-07T13:25:58Z</time>
      </trkpt>
      <trkpt lat="48.46558" lon="-2.49342">
        <ele>45</ele>
        <time>2016-06-07T13:26:02Z</time>
      </trkpt>
      <trkpt lat="48.46556" lon="-2.49337">
        <ele>45</ele>
        <time>2016-06-07T13:26:05Z</time>
      </trkpt>
      <trkpt lat="48.46553" lon="-2.4933">
        <ele>45</ele>
        <time>2016-06-07T13:26:09Z</time>
      </trkpt>
      <trkpt lat="48.46551" lon="-2.49323">
        <ele>45</ele>
        <time>2016-06-07T13:26:13Z</time>
      </trkpt>
      <trkpt lat="48.46549" lon="-2.49317">
        <ele>45</ele>
        <time>2016-06-07T13:26:16Z</time>
      </trkpt>
      <trkpt lat="48.46548" lon="-2.4931">
        <ele>45</ele>
        <time>2016-06-07T13:26:20Z</time>
      </trkpt>
      <trkpt lat="48.46546" lon="-2.49304">
        <ele>45</ele>
        <time>2016-06-07T13:26:23Z</time>
      </trkpt>
      <trkpt lat="48.46544" lon="-2.49298">
        <ele>45</ele>
        <time>2016-06-07T13:26:27Z</time>
      </trkpt>
      <trkpt lat="48.46542" lon="-2.49293">
        <ele>45</ele>
        <time>2016-06-07T13:26:30Z</time>
      </trkpt>
      <trkpt lat="48.46539" lon="-2.49289">
        <ele>45</ele>
        <time>2016-06-07T13:26:33Z</time>
      </trkpt>
      <trkpt lat="48.46537" lon="-2.49283">
        <ele>45</ele>
        <time>2016-06-07T13:26:37Z</time>
      </trkpt>
      <trkpt lat="48.46534" lon="-2.49277">
        <ele>45</ele>
        <time>2016-06-07T13:26:41Z</time>
      </trkpt>
      <trkpt lat="48.46534" lon="-2.49272">
        <ele>45</ele>
        <time>2016-06-07T13:26:44Z</time>
      </trkpt>
      <trkpt lat="48.46532" lon="-2.49266">
        <ele>45</ele>
        <time>2016-06-07T13:26:48Z</time>
      </trkpt>
      <trkpt lat="48.46531" lon="-2.4926">
        <ele>45</ele>
        <time>2016-06-07T13:26:52Z</time>
      </trkpt>
      <trkpt lat="48.46529" lon="-2.49255">
        <ele>45</ele>
        <time>2016-06-07T13:26:55Z</time>
      </trkpt>
      <trkpt lat="48.46528" lon="-2.49249">
        <ele>45</ele>
        <time>2016-06-07T13:26:58Z</time>
      </trkpt>
      <trkpt lat="48.46528" lon="-2.49244">
        <ele>45</ele>
        <time>2016-06-07T13:27:02Z</time>
      </trkpt>
      <trkpt lat="48.46528" lon="-2.49239">
        <ele>45</ele>
        <time>2016-06-07T13:27:05Z</time>
      </trkpt>
      <trkpt lat="48.46527" lon="-2.49233">
        <ele>45</ele>
        <time>2016-06-07T13:27:09Z</time>
      </trkpt>
      <trkpt lat="48.46525" lon="-2.49228">
        <ele>45</ele>
        <time>2016-06-07T13:27:13Z</time>
      </trkpt>
      <trkpt lat="48.46523" lon="-2.49222">
        <ele>45</ele>
        <time>2016-06-07T13:27:17Z</time>
      </trkpt>
      <trkpt lat="48.46521" lon="-2.49217">
        <ele>45</ele>
        <time>2016-06-07T13:27:21Z</time>
      </trkpt>
      <trkpt lat="48.46519" lon="-2.49212">
        <ele>45</ele>
        <time>2016-06-07T13:27:24Z</time>
      </trkpt>
      <trkpt lat="48.46516" lon="-2.49207">
        <ele>45</ele>
        <time>2016-06-07T13:27:28Z</time>
      </trkpt>
      <trkpt lat="48.46512" lon="-2.49204">
        <ele>45</ele>
        <time>2016-06-07T13:27:33Z</time>
      </trkpt>
      <trkpt lat="48.46509" lon="-2.49201">
        <ele>45</ele>
        <time>2016-06-07T13:27:36Z</time>
      </trkpt>
      <trkpt lat="48.46506" lon="-2.49195">
        <ele>45</ele>
        <time>2016-06-07T13:27:40Z</time>
      </trkpt>
      <trkpt lat="48.46504" lon="-2.4919">
        <ele>45</ele>
        <time>2016-06-07T13:27:43Z</time>
      </trkpt>
      <trkpt lat="48.46501" lon="-2.49184">
        <ele>45</ele>
        <time>2016-06-07T13:27:47Z</time>
      </trkpt>
      <trkpt lat="48.465" lon="-2.49179">
        <ele>45</ele>
        <time>2016-06-07T13:27:51Z</time>
      </trkpt>
      <trkpt lat="48.465" lon="-2.49174">
        <ele>45</ele>
        <time>2016-06-07T13:27:54Z</time>
      </trkpt>
      <trkpt lat="48.465" lon="-2.49169">
        <ele>45</ele>
        <time>2016-06-07T13:27:57Z</time>
      </trkpt>
      <trkpt lat="48.46502" lon="-2.49163">
        <ele>45</ele>
        <time>2016-06-07T13:28:01Z</time>
      </trkpt>
      <trkpt lat="48.46505" lon="-2.4916">
        <ele>45</ele>
        <time>2016-06-07T13:28:05Z</time>
      </trkpt>
      <trkpt lat="48.46506" lon="-2.49155">
        <ele>45</ele>
        <time>2016-06-07T13:28:10Z</time>
      </trkpt>
      <trkpt lat="48.46508" lon="-2.49151">
        <ele>45</ele>
        <time>2016-06-07T13:28:14Z</time>
      </trkpt>
      <trkpt lat="48.4651" lon="-2.49147">
        <ele>45</ele>
        <time>2016-06-07T13:28:17Z</time>
      </trkpt>
      <trkpt lat="48.46513" lon="-2.49142">
        <ele>45</ele>
        <time>2016-06-07T13:28:21Z</time>
      </trkpt>
      <trkpt lat="48.46513" lon="-2.49137">
        <ele>46</ele>
        <time>2016-06-07T13:28:24Z</time>
      </trkpt>
      <trkpt lat="48.46513" lon="-2.49131">
        <ele>46</ele>
        <time>2016-06-07T13:28:28Z</time>
      </trkpt>
      <trkpt lat="48.46513" lon="-2.49126">
        <ele>47</ele>
        <time>2016-06-07T13:28:31Z</time>
      </trkpt>
      <trkpt lat="48.46512" lon="-2.49121">
        <ele>47</ele>
        <time>2016-06-07T13:28:35Z</time>
      </trkpt>
      <trkpt lat="48.4651" lon="-2.49115">
        <ele>48</ele>
        <time>2016-06-07T13:28:39Z</time>
      </trkpt>
      <trkpt lat="48.46509" lon="-2.49111">
        <ele>48</ele>
        <time>2016-06-07T13:28:42Z</time>
      </trkpt>
      <trkpt lat="48.46507" lon="-2.49106">
        <ele>48</ele>
        <time>2016-06-07T13:28:46Z</time>
      </trkpt>
      <trkpt lat="48.46504" lon="-2.49102">
        <ele>48</ele>
        <time>2016-06-07T13:28:50Z</time>
      </trkpt>
      <trkpt lat="48.465" lon="-2.49102">
        <ele>48</ele>
        <time>2016-06-07T13:28:54Z</time>
      </trkpt>
      <trkpt lat="48.46496" lon="-2.49101">
        <ele>48</ele>
        <time>2016-06-07T13:28:58Z</time>
      </trkpt>
      <trkpt lat="48.46491" lon="-2.49101">
        <ele>48</ele>
        <time>2016-06-07T13:29:02Z</time>
      </trkpt>
      <trkpt lat="48.46487" lon="-2.49099">
        <ele>48</ele>
        <time>2016-06-07T13:29:06Z</time>
      </trkpt>
      <trkpt lat="48.46484" lon="-2.49096">
        <ele>48</ele>
        <time>2016-06-07T13:29:10Z</time>
      </trkpt>
      <trkpt lat="48.46482" lon="-2.49093">
        <ele>48</ele>
        <time>2016-06-07T13:29:13Z</time>
      </trkpt>
      <trkpt lat="48.46478" lon="-2.49089">
        <ele>48</ele>
        <time>2016-06-07T13:29:17Z</time>
      </trkpt>
      <trkpt lat="48.46477" lon="-2.49084">
        <ele>48</ele>
        <time>2016-06-07T13:29:21Z</time>
      </trkpt>
      <trkpt lat="48.46476" lon="-2.49079">
        <ele>48</ele>
        <time>2016-06-07T13:29:24Z</time>
      </trkpt>
      <trkpt lat="48.46475" lon="-2.49074">
        <ele>48</ele>
        <time>2016-06-07T13:29:27Z</time>
      </trkpt>
      <trkpt lat="48.46474" lon="-2.4907">
        <ele>48</ele>
        <time>2016-06-07T13:29:30Z</time>
      </trkpt>
      <trkpt lat="48.46472" lon="-2.49065">
        <ele>48</ele>
        <time>2016-06-07T13:29:34Z</time>
      </trkpt>
      <trkpt lat="48.46468" lon="-2.49061">
        <ele>48</ele>
        <time>2016-06-07T13:29:38Z</time>
      </trkpt>
      <trkpt lat="48.46465" lon="-2.49059">
        <ele>48</ele>
        <time>2016-06-07T13:29:41Z</time>
      </trkpt>
      <trkpt lat="48.46462" lon="-2.49058">
        <ele>48</ele>
        <time>2016-06-07T13:29:45Z</time>
      </trkpt>
      <trkpt lat="48.46457" lon="-2.49059">
        <ele>48</ele>
        <time>2016-06-07T13:29:49Z</time>
      </trkpt>
      <trkpt lat="48.46453" lon="-2.49059">
        <ele>48</ele>
        <time>2016-06-07T13:29:52Z</time>
      </trkpt>
      <trkpt lat="48.46449" lon="-2.49059">
        <ele>48</ele>
        <time>2016-06-07T13:29:56Z</time>
      </trkpt>
      <trkpt lat="48.46445" lon="-2.49057">
        <ele>48</ele>
        <time>2016-06-07T13:30:00Z</time>
      </trkpt>
      <trkpt lat="48.46441" lon="-2.49055">
        <ele>47</ele>
        <time>2016-06-07T13:30:03Z</time>
      </trkpt>
      <trkpt lat="48.46437" lon="-2.49053">
        <ele>47</ele>
        <time>2016-06-07T13:30:06Z</time>
      </trkpt>
      <trkpt lat="48.46434" lon="-2.49051">
        <ele>47</ele>
        <time>2016-06-07T13:30:09Z</time>
      </trkpt>
      <trkpt lat="48.46431" lon="-2.4905">
        <ele>47</ele>
        <time>2016-06-07T13:30:12Z</time>
      </trkpt>
      <trkpt lat="48.46427" lon="-2.49048">
        <ele>47</ele>
        <time>2016-06-07T13:30:15Z</time>
      </trkpt>
      <trkpt lat="48.46423" lon="-2.49045">
        <ele>47</ele>
        <time>2016-06-07T13:30:18Z</time>
      </trkpt>
      <trkpt lat="48.46419" lon="-2.49043">
        <ele>47</ele>
        <time>2016-06-07T13:30:22Z</time>
      </trkpt>
      <trkpt lat="48.46416" lon="-2.49041">
        <ele>47</ele>
        <time>2016-06-07T13:30:25Z</time>
      </trkpt>
      <trkpt lat="48.46412" lon="-2.49037">
        <ele>47</ele>
        <time>2016-06-07T13:30:29Z</time>
      </trkpt>
      <trkpt lat="48.46409" lon="-2.49033">
        <ele>47</ele>
        <time>2016-06-07T13:30:33Z</time>
      </trkpt>
      <trkpt lat="48.46405" lon="-2.49029">
        <ele>47</ele>
        <time>2016-06-07T13:30:37Z</time>
      </trkpt>
      <trkpt lat="48.46402" lon="-2.49027">
        <ele>47</ele>
        <time>2016-06-07T13:30:40Z</time>
      </trkpt>
      <trkpt lat="48.46399" lon="-2.49022">
        <ele>47</ele>
        <time>2016-06-07T13:30:44Z</time>
      </trkpt>
      <trkpt lat="48.46395" lon="-2.49018">
        <ele>47</ele>
        <time>2016-06-07T13:30:47Z</time>
      </trkpt>
      <trkpt lat="48.46392" lon="-2.49014">
        <ele>47</ele>
        <time>2016-06-07T13:30:51Z</time>
      </trkpt>
      <trkpt lat="48.46389" lon="-2.49009">
        <ele>47</ele>
        <time>2016-06-07T13:30:55Z</time>
      </trkpt>
      <trkpt lat="48.46385" lon="-2.49005">
        <ele>47</ele>
        <time>2016-06-07T13:30:59Z</time>
      </trkpt>
      <trkpt lat="48.46382" lon="-2.49002">
        <ele>47</ele>
        <time>2016-06-07T13:31:03Z</time>
      </trkpt>
      <trkpt lat="48.4638" lon="-2.48995">
        <ele>47</ele>
        <time>2016-06-07T13:31:07Z</time>
      </trkpt>
      <trkpt lat="48.46378" lon="-2.48991">
        <ele>47</ele>
        <time>2016-06-07T13:31:10Z</time>
      </trkpt>
      <trkpt lat="48.46375" lon="-2.48986">
        <ele>47</ele>
        <time>2016-06-07T13:31:14Z</time>
      </trkpt>
      <trkpt lat="48.46372" lon="-2.48981">
        <ele>47</ele>
        <time>2016-06-07T13:31:18Z</time>
      </trkpt>
      <trkpt lat="48.46369" lon="-2.48979">
        <ele>47</ele>
        <time>2016-06-07T13:31:21Z</time>
      </trkpt>
      <trkpt lat="48.46365" lon="-2.48975">
        <ele>47</ele>
        <time>2016-06-07T13:31:25Z</time>
      </trkpt>
      <trkpt lat="48.46363" lon="-2.48972">
        <ele>47</ele>
        <time>2016-06-07T13:31:28Z</time>
      </trkpt>
      <trkpt lat="48.4636" lon="-2.48968">
        <ele>47</ele>
        <time>2016-06-07T13:31:31Z</time>
      </trkpt>
      <trkpt lat="48.46357" lon="-2.48962">
        <ele>47</ele>
        <time>2016-06-07T13:31:35Z</time>
      </trkpt>
      <trkpt lat="48.46354" lon="-2.48958">
        <ele>47</ele>
        <time>2016-06-07T13:31:38Z</time>
      </trkpt>
      <trkpt lat="48.46352" lon="-2.48953">
        <ele>47</ele>
        <time>2016-06-07T13:31:42Z</time>
      </trkpt>
      <trkpt lat="48.46349" lon="-2.48949">
        <ele>47</ele>
        <time>2016-06-07T13:31:46Z</time>
      </trkpt>
      <trkpt lat="48.46346" lon="-2.48947">
        <ele>47</ele>
        <time>2016-06-07T13:31:50Z</time>
      </trkpt>
      <trkpt lat="48.46343" lon="-2.48943">
        <ele>47</ele>
        <time>2016-06-07T13:31:54Z</time>
      </trkpt>
      <trkpt lat="48.46339" lon="-2.4894">
        <ele>47</ele>
        <time>2016-06-07T13:31:58Z</time>
      </trkpt>
      <trkpt lat="48.46336" lon="-2.48937">
        <ele>47</ele>
        <time>2016-06-07T13:32:02Z</time>
      </trkpt>
      <trkpt lat="48.46333" lon="-2.48935">
        <ele>47</ele>
        <time>2016-06-07T13:32:06Z</time>
      </trkpt>
      <trkpt lat="48.46329" lon="-2.48932">
        <ele>47</ele>
        <time>2016-06-07T13:32:10Z</time>
      </trkpt>
      <trkpt lat="48.46326" lon="-2.48926">
        <ele>47</ele>
        <time>2016-06-07T13:32:14Z</time>
      </trkpt>
      <trkpt lat="48.46324" lon="-2.4892">
        <ele>47</ele>
        <time>2016-06-07T13:32:18Z</time>
      </trkpt>
      <trkpt lat="48.46323" lon="-2.48916">
        <ele>47</ele>
        <time>2016-06-07T13:32:21Z</time>
      </trkpt>
      <trkpt lat="48.46322" lon="-2.4891">
        <ele>47</ele>
        <time>2016-06-07T13:32:25Z</time>
      </trkpt>
      <trkpt lat="48.46322" lon="-2.48905">
        <ele>47</ele>
        <time>2016-06-07T13:32:28Z</time>
      </trkpt>
      <trkpt lat="48.46321" lon="-2.48899">
        <ele>47</ele>
        <time>2016-06-07T13:32:32Z</time>
      </trkpt>
      <trkpt lat="48.4632" lon="-2.48894">
        <ele>47</ele>
        <time>2016-06-07T13:32:35Z</time>
      </trkpt>
      <trkpt lat="48.46318" lon="-2.48889">
        <ele>47</ele>
        <time>2016-06-07T13:32:38Z</time>
      </trkpt>
      <trkpt lat="48.46317" lon="-2.48885">
        <ele>47</ele>
        <time>2016-06-07T13:32:41Z</time>
      </trkpt>
      <trkpt lat="48.46315" lon="-2.48879">
        <ele>47</ele>
        <time>2016-06-07T13:32:45Z</time>
      </trkpt>
      <trkpt lat="48.46315" lon="-2.48874">
        <ele>47</ele>
        <time>2016-06-07T13:32:48Z</time>
      </trkpt>
      <trkpt lat="48.46313" lon="-2.48868">
        <ele>47</ele>
        <time>2016-06-07T13:32:52Z</time>
      </trkpt>
      <trkpt lat="48.46312" lon="-2.48863">
        <ele>47</ele>
        <time>2016-06-07T13:32:55Z</time>
      </trkpt>
      <trkpt lat="48.46312" lon="-2.48858">
        <ele>47</ele>
        <time>2016-06-07T13:32:59Z</time>
      </trkpt>
      <trkpt lat="48.46312" lon="-2.48853">
        <ele>47</ele>
        <time>2016-06-07T13:33:02Z</time>
      </trkpt>
      <trkpt lat="48.46311" lon="-2.48849">
        <ele>47</ele>
        <time>2016-06-07T13:33:05Z</time>
      </trkpt>
      <trkpt lat="48.46308" lon="-2.48845">
        <ele>47</ele>
        <time>2016-06-07T13:33:08Z</time>
      </trkpt>
      <trkpt lat="48.46305" lon="-2.48841">
        <ele>47</ele>
        <time>2016-06-07T13:33:12Z</time>
      </trkpt>
      <trkpt lat="48.46301" lon="-2.4884">
        <ele>47</ele>
        <time>2016-06-07T13:33:16Z</time>
      </trkpt>
      <trkpt lat="48.46298" lon="-2.48842">
        <ele>47</ele>
        <time>2016-06-07T13:33:20Z</time>
      </trkpt>
      <trkpt lat="48.46295" lon="-2.48845">
        <ele>48</ele>
        <time>2016-06-07T13:33:24Z</time>
      </trkpt>
      <trkpt lat="48.46291" lon="-2.48848">
        <ele>48</ele>
        <time>2016-06-07T13:33:28Z</time>
      </trkpt>
      <trkpt lat="48.46289" lon="-2.48849">
        <ele>48</ele>
        <time>2016-06-07T13:33:31Z</time>
      </trkpt>
      <trkpt lat="48.46284" lon="-2.4885">
        <ele>48</ele>
        <time>2016-06-07T13:33:35Z</time>
      </trkpt>
      <trkpt lat="48.46281" lon="-2.48851">
        <ele>48</ele>
        <time>2016-06-07T13:33:38Z</time>
      </trkpt>
      <trkpt lat="48.46278" lon="-2.48851">
        <ele>48</ele>
        <time>2016-06-07T13:33:41Z</time>
      </trkpt>
      <trkpt lat="48.46275" lon="-2.48853">
        <ele>48</ele>
        <time>2016-06-07T13:33:44Z</time>
      </trkpt>
      <trkpt lat="48.4627" lon="-2.48855">
        <ele>48</ele>
        <time>2016-06-07T13:33:48Z</time>
      </trkpt>
      <trkpt lat="48.46266" lon="-2.48859">
        <ele>48</ele>
        <time>2016-06-07T13:33:51Z</time>
      </trkpt>
      <trkpt lat="48.46264" lon="-2.48864">
        <ele>48</ele>
        <time>2016-06-07T13:33:55Z</time>
      </trkpt>
      <trkpt lat="48.46261" lon="-2.4887">
        <ele>48</ele>
        <time>2016-06-07T13:33:59Z</time>
      </trkpt>
      <trkpt lat="48.4626" lon="-2.48875">
        <ele>48</ele>
        <time>2016-06-07T13:34:03Z</time>
      </trkpt>
      <trkpt lat="48.46258" lon="-2.4888">
        <ele>48</ele>
        <time>2016-06-07T13:34:06Z</time>
      </trkpt>
      <trkpt lat="48.46256" lon="-2.48884">
        <ele>48</ele>
        <time>2016-06-07T13:34:11Z</time>
      </trkpt>
      <trkpt lat="48.46254" lon="-2.48885">
        <ele>48</ele>
        <time>2016-06-07T13:34:14Z</time>
      </trkpt>
      <trkpt lat="48.4625" lon="-2.48888">
        <ele>48</ele>
        <time>2016-06-07T13:34:18Z</time>
      </trkpt>
      <trkpt lat="48.46247" lon="-2.48889">
        <ele>48</ele>
        <time>2016-06-07T13:34:21Z</time>
      </trkpt>
      <trkpt lat="48.46244" lon="-2.48889">
        <ele>48</ele>
        <time>2016-06-07T13:34:25Z</time>
      </trkpt>
      <trkpt lat="48.4624" lon="-2.48889">
        <ele>48</ele>
        <time>2016-06-07T13:34:29Z</time>
      </trkpt>
      <trkpt lat="48.46236" lon="-2.4889">
        <ele>48</ele>
        <time>2016-06-07T13:34:33Z</time>
      </trkpt>
      <trkpt lat="48.46233" lon="-2.48889">
        <ele>48</ele>
        <time>2016-06-07T13:34:36Z</time>
      </trkpt>
      <trkpt lat="48.46229" lon="-2.48889">
        <ele>48</ele>
        <time>2016-06-07T13:34:40Z</time>
      </trkpt>
      <trkpt lat="48.46226" lon="-2.4889">
        <ele>48</ele>
        <time>2016-06-07T13:34:43Z</time>
      </trkpt>
      <trkpt lat="48.46223" lon="-2.48892">
        <ele>48</ele>
        <time>2016-06-07T13:34:46Z</time>
      </trkpt>
      <trkpt lat="48.46219" lon="-2.48894">
        <ele>48</ele>
        <time>2016-06-07T13:34:49Z</time>
      </trkpt>
      <trkpt lat="48.46216" lon="-2.48897">
        <ele>48</ele>
        <time>2016-06-07T13:34:52Z</time>
      </trkpt>
      <trkpt lat="48.46213" lon="-2.489">
        <ele>48</ele>
        <time>2016-06-07T13:34:55Z</time>
      </trkpt>
      <trkpt lat="48.46209" lon="-2.48904">
        <ele>48</ele>
        <time>2016-06-07T13:34:59Z</time>
      </trkpt>
      <trkpt lat="48.46205" lon="-2.48908">
        <ele>48</ele>
        <time>2016-06-07T13:35:03Z</time>
      </trkpt>
      <trkpt lat="48.46201" lon="-2.48911">
        <ele>48</ele>
        <time>2016-06-07T13:35:07Z</time>
      </trkpt>
      <trkpt lat="48.46198" lon="-2.48914">
        <ele>48</ele>
        <time>2016-06-07T13:35:10Z</time>
      </trkpt>
      <trkpt lat="48.46195" lon="-2.48916">
        <ele>48</ele>
        <time>2016-06-07T13:35:13Z</time>
      </trkpt>
      <trkpt lat="48.46191" lon="-2.48918">
        <ele>48</ele>
        <time>2016-06-07T13:35:16Z</time>
      </trkpt>
      <trkpt lat="48.46188" lon="-2.48919">
        <ele>48</ele>
        <time>2016-06-07T13:35:19Z</time>
      </trkpt>
      <trkpt lat="48.46184" lon="-2.4892">
        <ele>48</ele>
        <time>2016-06-07T13:35:23Z</time>
      </trkpt>
      <trkpt lat="48.46181" lon="-2.48921">
        <ele>48</ele>
        <time>2016-06-07T13:35:26Z</time>
      </trkpt>
      <trkpt lat="48.46178" lon="-2.48922">
        <ele>49</ele>
        <time>2016-06-07T13:35:29Z</time>
      </trkpt>
      <trkpt lat="48.46174" lon="-2.48923">
        <ele>49</ele>
        <time>2016-06-07T13:35:33Z</time>
      </trkpt>
      <trkpt lat="48.46171" lon="-2.48924">
        <ele>49</ele>
        <time>2016-06-07T13:35:37Z</time>
      </trkpt>
      <trkpt lat="48.46167" lon="-2.48922">
        <ele>49</ele>
        <time>2016-06-07T13:35:41Z</time>
      </trkpt>
      <trkpt lat="48.46165" lon="-2.48918">
        <ele>49</ele>
        <time>2016-06-07T13:35:45Z</time>
      </trkpt>
      <trkpt lat="48.46164" lon="-2.48912">
        <ele>48</ele>
        <time>2016-06-07T13:35:49Z</time>
      </trkpt>
      <trkpt lat="48.46164" lon="-2.48907">
        <ele>48</ele>
        <time>2016-06-07T13:35:53Z</time>
      </trkpt>
      <trkpt lat="48.46163" lon="-2.48901">
        <ele>48</ele>
        <time>2016-06-07T13:35:57Z</time>
      </trkpt>
      <trkpt lat="48.46166" lon="-2.48896">
        <ele>48</ele>
        <time>2016-06-07T13:36:01Z</time>
      </trkpt>
      <trkpt lat="48.46168" lon="-2.48891">
        <ele>48</ele>
        <time>2016-06-07T13:36:05Z</time>
      </trkpt>
      <trkpt lat="48.46169" lon="-2.48885">
        <ele>48</ele>
        <time>2016-06-07T13:36:09Z</time>
      </trkpt>
      <trkpt lat="48.46171" lon="-2.4888">
        <ele>48</ele>
        <time>2016-06-07T13:36:13Z</time>
      </trkpt>
      <trkpt lat="48.46173" lon="-2.48876">
        <ele>48</ele>
        <time>2016-06-07T13:36:17Z</time>
      </trkpt>
      <trkpt lat="48.46175" lon="-2.48871">
        <ele>48</ele>
        <time>2016-06-07T13:36:21Z</time>
      </trkpt>
      <trkpt lat="48.46177" lon="-2.48867">
        <ele>48</ele>
        <time>2016-06-07T13:36:24Z</time>
      </trkpt>
      <trkpt lat="48.46176" lon="-2.4886">
        <ele>48</ele>
        <time>2016-06-07T13:36:28Z</time>
      </trkpt>
      <trkpt lat="48.46177" lon="-2.48856">
        <ele>48</ele>
        <time>2016-06-07T13:36:31Z</time>
      </trkpt>
      <trkpt lat="48.46176" lon="-2.4885">
        <ele>48</ele>
        <time>2016-06-07T13:36:34Z</time>
      </trkpt>
      <trkpt lat="48.46176" lon="-2.48843">
        <ele>49</ele>
        <time>2016-06-07T13:36:37Z</time>
      </trkpt>
      <trkpt lat="48.46176" lon="-2.48838">
        <ele>49</ele>
        <time>2016-06-07T13:36:40Z</time>
      </trkpt>
      <trkpt lat="48.46175" lon="-2.48833">
        <ele>49</ele>
        <time>2016-06-07T13:36:43Z</time>
      </trkpt>
      <trkpt lat="48.46175" lon="-2.48829">
        <ele>50</ele>
        <time>2016-06-07T13:36:47Z</time>
      </trkpt>
      <trkpt lat="48.46172" lon="-2.48823">
        <ele>50</ele>
        <time>2016-06-07T13:36:50Z</time>
      </trkpt>
      <trkpt lat="48.46172" lon="-2.4882">
        <ele>51</ele>
        <time>2016-06-07T13:36:53Z</time>
      </trkpt>
      <trkpt lat="48.4617" lon="-2.48816">
        <ele>51</ele>
        <time>2016-06-07T13:36:57Z</time>
      </trkpt>
      <trkpt lat="48.46167" lon="-2.48812">
        <ele>51</ele>
        <time>2016-06-07T13:37:00Z</time>
      </trkpt>
      <trkpt lat="48.46164" lon="-2.48809">
        <ele>51</ele>
        <time>2016-06-07T13:37:04Z</time>
      </trkpt>
      <trkpt lat="48.46162" lon="-2.48805">
        <ele>52</ele>
        <time>2016-06-07T13:37:09Z</time>
      </trkpt>
      <trkpt lat="48.46159" lon="-2.48803">
        <ele>52</ele>
        <time>2016-06-07T13:37:13Z</time>
      </trkpt>
      <trkpt lat="48.46155" lon="-2.48802">
        <ele>52</ele>
        <time>2016-06-07T13:37:17Z</time>
      </trkpt>
      <trkpt lat="48.46151" lon="-2.48801">
        <ele>52</ele>
        <time>2016-06-07T13:37:21Z</time>
      </trkpt>
      <trkpt lat="48.46149" lon="-2.48799">
        <ele>52</ele>
        <time>2016-06-07T13:37:27Z</time>
      </trkpt>
      <trkpt lat="48.46151" lon="-2.48799">
        <ele>52</ele>
        <time>2016-06-07T13:37:30Z</time>
      </trkpt>
      <trkpt lat="48.4615" lon="-2.48797">
        <ele>52</ele>
        <time>2016-06-07T13:37:35Z</time>
      </trkpt>
      <trkpt lat="48.46149" lon="-2.48795">
        <ele>52</ele>
        <time>2016-06-07T13:37:38Z</time>
      </trkpt>
      <trkpt lat="48.46146" lon="-2.48792">
        <ele>53</ele>
        <time>2016-06-07T13:37:43Z</time>
      </trkpt>
      <trkpt lat="48.46145" lon="-2.4879">
        <ele>54</ele>
        <time>2016-06-07T13:37:46Z</time>
      </trkpt>
      <trkpt lat="48.46143" lon="-2.48789">
        <ele>56</ele>
        <time>2016-06-07T13:37:50Z</time>
      </trkpt>
      <trkpt lat="48.46142" lon="-2.4879">
        <ele>59</ele>
        <time>2016-06-07T13:37:56Z</time>
      </trkpt>
      <trkpt lat="48.46141" lon="-2.4879">
        <ele>60</ele>
        <time>2016-06-07T13:38:02Z</time>
      </trkpt>
      <trkpt lat="48.4614" lon="-2.48791">
        <ele>60</ele>
        <time>2016-06-07T13:38:10Z</time>
      </trkpt>
      <trkpt lat="48.46139" lon="-2.48791">
        <ele>60</ele>
        <time>2016-06-07T13:38:14Z</time>
      </trkpt>
      <trkpt lat="48.4614" lon="-2.48791">
        <ele>60</ele>
        <time>2016-06-07T13:38:22Z</time>
      </trkpt>
      <trkpt lat="48.46141" lon="-2.48791">
        <ele>60</ele>
        <time>2016-06-07T13:38:36Z</time>
      </trkpt>
      <trkpt lat="48.46142" lon="-2.48791">
        <ele>60</ele>
        <time>2016-06-07T13:38:42Z</time>
      </trkpt>
      <trkpt lat="48.46144" lon="-2.48792">
        <ele>60</ele>
        <time>2016-06-07T13:38:45Z</time>
      </trkpt>
      <trkpt lat="48.46145" lon="-2.48793">
        <ele>60</ele>
        <time>2016-06-07T13:38:48Z</time>
      </trkpt>
      <trkpt lat="48.46146" lon="-2.48795">
        <ele>57</ele>
        <time>2016-06-07T13:38:53Z</time>
      </trkpt>
      <trkpt lat="48.46147" lon="-2.48794">
        <ele>56</ele>
        <time>2016-06-07T13:39:05Z</time>
      </trkpt>
      <trkpt lat="48.46148" lon="-2.48795">
        <ele>56</ele>
        <time>2016-06-07T13:39:10Z</time>
      </trkpt>
      <trkpt lat="48.46151" lon="-2.48795">
        <ele>55</ele>
        <time>2016-06-07T13:39:14Z</time>
      </trkpt>
      <trkpt lat="48.46152" lon="-2.48796">
        <ele>55</ele>
        <time>2016-06-07T13:39:18Z</time>
      </trkpt>
      <trkpt lat="48.46151" lon="-2.48797">
        <ele>51</ele>
        <time>2016-06-07T13:39:28Z</time>
      </trkpt>
      <trkpt lat="48.46149" lon="-2.48796">
        <ele>51</ele>
        <time>2016-06-07T13:39:31Z</time>
      </trkpt>
      <trkpt lat="48.46148" lon="-2.48795">
        <ele>51</ele>
        <time>2016-06-07T13:39:38Z</time>
      </trkpt>
      <trkpt lat="48.46145" lon="-2.48794">
        <ele>51</ele>
        <time>2016-06-07T13:39:44Z</time>
      </trkpt>
      <trkpt lat="48.46144" lon="-2.48795">
        <ele>54</ele>
        <time>2016-06-07T13:39:47Z</time>
      </trkpt>
      <trkpt lat="48.46143" lon="-2.48795">
        <ele>57</ele>
        <time>2016-06-07T13:39:51Z</time>
      </trkpt>
      <trkpt lat="48.46142" lon="-2.48796">
        <ele>60</ele>
        <time>2016-06-07T13:39:57Z</time>
      </trkpt>
      <trkpt lat="48.46142" lon="-2.48797">
        <ele>61</ele>
        <time>2016-06-07T13:40:08Z</time>
      </trkpt>
      <trkpt lat="48.46143" lon="-2.48798">
        <ele>61</ele>
        <time>2016-06-07T13:40:11Z</time>
      </trkpt>
      <trkpt lat="48.46145" lon="-2.48798">
        <ele>61</ele>
        <time>2016-06-07T13:40:17Z</time>
      </trkpt>
      <trkpt lat="48.46146" lon="-2.48798">
        <ele>61</ele>
        <time>2016-06-07T13:40:20Z</time>
      </trkpt>
      <trkpt lat="48.46147" lon="-2.48796">
        <ele>61</ele>
        <time>2016-06-07T13:40:33Z</time>
      </trkpt>
      <trkpt lat="48.46146" lon="-2.48795">
        <ele>61</ele>
        <time>2016-06-07T13:40:36Z</time>
      </trkpt>
      <trkpt lat="48.46144" lon="-2.48795">
        <ele>62</ele>
        <time>2016-06-07T13:40:39Z</time>
      </trkpt>
      <trkpt lat="48.46146" lon="-2.48795">
        <ele>63</ele>
        <time>2016-06-07T13:40:44Z</time>
      </trkpt>
      <trkpt lat="48.46148" lon="-2.48795">
        <ele>63</ele>
        <time>2016-06-07T13:40:49Z</time>
      </trkpt>
      <trkpt lat="48.46149" lon="-2.48796">
        <ele>63</ele>
        <time>2016-06-07T13:40:53Z</time>
      </trkpt>
      <trkpt lat="48.46149" lon="-2.48798">
        <ele>61</ele>
        <time>2016-06-07T13:40:58Z</time>
      </trkpt>
      <trkpt lat="48.46151" lon="-2.488">
        <ele>61</ele>
        <time>2016-06-07T13:41:03Z</time>
      </trkpt>
      <trkpt lat="48.46149" lon="-2.48802">
        <ele>60</ele>
        <time>2016-06-07T13:41:07Z</time>
      </trkpt>
      <trkpt lat="48.46146" lon="-2.48802">
        <ele>59</ele>
        <time>2016-06-07T13:41:11Z</time>
      </trkpt>
      <trkpt lat="48.46147" lon="-2.488">
        <ele>59</ele>
        <time>2016-06-07T13:41:27Z</time>
      </trkpt>
      <trkpt lat="48.46146" lon="-2.48802">
        <ele>59</ele>
        <time>2016-06-07T13:41:50Z</time>
      </trkpt>
      <trkpt lat="48.46143" lon="-2.48805">
        <ele>59</ele>
        <time>2016-06-07T13:41:54Z</time>
      </trkpt>
      <trkpt lat="48.46141" lon="-2.48808">
        <ele>59</ele>
        <time>2016-06-07T13:41:59Z</time>
      </trkpt>
      <trkpt lat="48.4614" lon="-2.48807">
        <ele>59</ele>
        <time>2016-06-07T13:42:10Z</time>
      </trkpt>
      <trkpt lat="48.4614" lon="-2.48805">
        <ele>58</ele>
        <time>2016-06-07T13:42:18Z</time>
      </trkpt>
      <trkpt lat="48.46139" lon="-2.48803">
        <ele>58</ele>
        <time>2016-06-07T13:42:21Z</time>
      </trkpt>
      <trkpt lat="48.4614" lon="-2.48801">
        <ele>58</ele>
        <time>2016-06-07T13:42:24Z</time>
      </trkpt>
      <trkpt lat="48.46141" lon="-2.488">
        <ele>60</ele>
        <time>2016-06-07T13:42:40Z</time>
      </trkpt>
      <trkpt lat="48.46143" lon="-2.48799">
        <ele>60</ele>
        <time>2016-06-07T13:42:44Z</time>
      </trkpt>
      <trkpt lat="48.46143" lon="-2.48797">
        <ele>60</ele>
        <time>2016-06-07T13:42:47Z</time>
      </trkpt>
      <trkpt lat="48.46144" lon="-2.48793">
        <ele>60</ele>
        <time>2016-06-07T13:42:51Z</time>
      </trkpt>
      <trkpt lat="48.46145" lon="-2.4879">
        <ele>60</ele>
        <time>2016-06-07T13:42:54Z</time>
      </trkpt>
      <trkpt lat="48.46146" lon="-2.48785">
        <ele>60</ele>
        <time>2016-06-07T13:42:58Z</time>
      </trkpt>
      <trkpt lat="48.46148" lon="-2.4878">
        <ele>60</ele>
        <time>2016-06-07T13:43:02Z</time>
      </trkpt>
      <trkpt lat="48.46148" lon="-2.48778">
        <ele>60</ele>
        <time>2016-06-07T13:43:05Z</time>
      </trkpt>
      <trkpt lat="48.46148" lon="-2.48774">
        <ele>60</ele>
        <time>2016-06-07T13:43:10Z</time>
      </trkpt>
      <trkpt lat="48.46147" lon="-2.48769">
        <ele>60</ele>
        <time>2016-06-07T13:43:13Z</time>
      </trkpt>
      <trkpt lat="48.46146" lon="-2.48763">
        <ele>60</ele>
        <time>2016-06-07T13:43:17Z</time>
      </trkpt>
      <trkpt lat="48.46146" lon="-2.48759">
        <ele>60</ele>
        <time>2016-06-07T13:43:20Z</time>
      </trkpt>
      <trkpt lat="48.46147" lon="-2.48752">
        <ele>60</ele>
        <time>2016-06-07T13:43:23Z</time>
      </trkpt>
      <trkpt lat="48.46146" lon="-2.48745">
        <ele>60</ele>
        <time>2016-06-07T13:43:26Z</time>
      </trkpt>
      <trkpt lat="48.46145" lon="-2.48738">
        <ele>60</ele>
        <time>2016-06-07T13:43:30Z</time>
      </trkpt>
      <trkpt lat="48.46142" lon="-2.4873">
        <ele>61</ele>
        <time>2016-06-07T13:43:34Z</time>
      </trkpt>
      <trkpt lat="48.46141" lon="-2.48727">
        <ele>63</ele>
        <time>2016-06-07T13:43:37Z</time>
      </trkpt>
      <trkpt lat="48.46142" lon="-2.48724">
        <ele>65</ele>
        <time>2016-06-07T13:43:40Z</time>
      </trkpt>
      <trkpt lat="48.46144" lon="-2.4872">
        <ele>65</ele>
        <time>2016-06-07T13:43:43Z</time>
      </trkpt>
      <trkpt lat="48.46144" lon="-2.48714">
        <ele>65</ele>
        <time>2016-06-07T13:43:46Z</time>
      </trkpt>
      <trkpt lat="48.46145" lon="-2.4871">
        <ele>65</ele>
        <time>2016-06-07T13:43:49Z</time>
      </trkpt>
      <trkpt lat="48.46146" lon="-2.48705">
        <ele>64</ele>
        <time>2016-06-07T13:43:52Z</time>
      </trkpt>
      <trkpt lat="48.46147" lon="-2.48701">
        <ele>62</ele>
        <time>2016-06-07T13:43:55Z</time>
      </trkpt>
      <trkpt lat="48.4615" lon="-2.48699">
        <ele>60</ele>
        <time>2016-06-07T13:44:00Z</time>
      </trkpt>
      <trkpt lat="48.46151" lon="-2.48694">
        <ele>59</ele>
        <time>2016-06-07T13:44:03Z</time>
      </trkpt>
      <trkpt lat="48.46152" lon="-2.48689">
        <ele>58</ele>
        <time>2016-06-07T13:44:06Z</time>
      </trkpt>
      <trkpt lat="48.46153" lon="-2.48685">
        <ele>57</ele>
        <time>2016-06-07T13:44:09Z</time>
      </trkpt>
      <trkpt lat="48.46154" lon="-2.48679">
        <ele>56</ele>
        <time>2016-06-07T13:44:13Z</time>
      </trkpt>
      <trkpt lat="48.46155" lon="-2.48675">
        <ele>55</ele>
        <time>2016-06-07T13:44:16Z</time>
      </trkpt>
      <trkpt lat="48.46159" lon="-2.48669">
        <ele>55</ele>
        <time>2016-06-07T13:44:20Z</time>
      </trkpt>
      <trkpt lat="48.46161" lon="-2.48663">
        <ele>55</ele>
        <time>2016-06-07T13:44:24Z</time>
      </trkpt>
      <trkpt lat="48.46162" lon="-2.48657">
        <ele>55</ele>
        <time>2016-06-07T13:44:28Z</time>
      </trkpt>
      <trkpt lat="48.46162" lon="-2.48651">
        <ele>55</ele>
        <time>2016-06-07T13:44:32Z</time>
      </trkpt>
      <trkpt lat="48.46163" lon="-2.48645">
        <ele>55</ele>
        <time>2016-06-07T13:44:36Z</time>
      </trkpt>
      <trkpt lat="48.46162" lon="-2.48638">
        <ele>55</ele>
        <time>2016-06-07T13:44:40Z</time>
      </trkpt>
      <trkpt lat="48.46161" lon="-2.48631">
        <ele>55</ele>
        <time>2016-06-07T13:44:44Z</time>
      </trkpt>
      <trkpt lat="48.46162" lon="-2.48625">
        <ele>55</ele>
        <time>2016-06-07T13:44:48Z</time>
      </trkpt>
      <trkpt lat="48.46163" lon="-2.4862">
        <ele>55</ele>
        <time>2016-06-07T13:44:51Z</time>
      </trkpt>
      <trkpt lat="48.46161" lon="-2.48614">
        <ele>55</ele>
        <time>2016-06-07T13:44:54Z</time>
      </trkpt>
      <trkpt lat="48.4616" lon="-2.48607">
        <ele>56</ele>
        <time>2016-06-07T13:44:57Z</time>
      </trkpt>
      <trkpt lat="48.46161" lon="-2.48602">
        <ele>59</ele>
        <time>2016-06-07T13:45:01Z</time>
      </trkpt>
      <trkpt lat="48.46161" lon="-2.48599">
        <ele>60</ele>
        <time>2016-06-07T13:45:04Z</time>
      </trkpt>
      <trkpt lat="48.46159" lon="-2.48594">
        <ele>62</ele>
        <time>2016-06-07T13:45:07Z</time>
      </trkpt>
      <trkpt lat="48.4616" lon="-2.48589">
        <ele>63</ele>
        <time>2016-06-07T13:45:11Z</time>
      </trkpt>
      <trkpt lat="48.46161" lon="-2.48584">
        <ele>63</ele>
        <time>2016-06-07T13:45:15Z</time>
      </trkpt>
      <trkpt lat="48.46163" lon="-2.4858">
        <ele>63</ele>
        <time>2016-06-07T13:45:18Z</time>
      </trkpt>
      <trkpt lat="48.46164" lon="-2.48576">
        <ele>63</ele>
        <time>2016-06-07T13:45:21Z</time>
      </trkpt>
      <trkpt lat="48.46163" lon="-2.48571">
        <ele>63</ele>
        <time>2016-06-07T13:45:24Z</time>
      </trkpt>
      <trkpt lat="48.46164" lon="-2.48564">
        <ele>63</ele>
        <time>2016-06-07T13:45:28Z</time>
      </trkpt>
      <trkpt lat="48.46167" lon="-2.4856">
        <ele>63</ele>
        <time>2016-06-07T13:45:32Z</time>
      </trkpt>
      <trkpt lat="48.46169" lon="-2.48558">
        <ele>63</ele>
        <time>2016-06-07T13:45:36Z</time>
      </trkpt>
      <trkpt lat="48.46171" lon="-2.48555">
        <ele>63</ele>
        <time>2016-06-07T13:45:41Z</time>
      </trkpt>
      <trkpt lat="48.46174" lon="-2.48555">
        <ele>63</ele>
        <time>2016-06-07T13:45:44Z</time>
      </trkpt>
      <trkpt lat="48.46178" lon="-2.48552">
        <ele>63</ele>
        <time>2016-06-07T13:45:48Z</time>
      </trkpt>
      <trkpt lat="48.4618" lon="-2.48551">
        <ele>63</ele>
        <time>2016-06-07T13:45:51Z</time>
      </trkpt>
      <trkpt lat="48.46183" lon="-2.48549">
        <ele>63</ele>
        <time>2016-06-07T13:45:55Z</time>
      </trkpt>
      <trkpt lat="48.46187" lon="-2.48549">
        <ele>63</ele>
        <time>2016-06-07T13:45:58Z</time>
      </trkpt>
      <trkpt lat="48.46188" lon="-2.48549">
        <ele>63</ele>
        <time>2016-06-07T13:46:01Z</time>
      </trkpt>
      <trkpt lat="48.46191" lon="-2.4855">
        <ele>63</ele>
        <time>2016-06-07T13:46:04Z</time>
      </trkpt>
      <trkpt lat="48.46194" lon="-2.4855">
        <ele>63</ele>
        <time>2016-06-07T13:46:07Z</time>
      </trkpt>
      <trkpt lat="48.46197" lon="-2.48549">
        <ele>63</ele>
        <time>2016-06-07T13:46:11Z</time>
      </trkpt>
      <trkpt lat="48.462" lon="-2.48547">
        <ele>63</ele>
        <time>2016-06-07T13:46:15Z</time>
      </trkpt>
      <trkpt lat="48.46204" lon="-2.48545">
        <ele>63</ele>
        <time>2016-06-07T13:46:19Z</time>
      </trkpt>
      <trkpt lat="48.46207" lon="-2.48542">
        <ele>63</ele>
        <time>2016-06-07T13:46:23Z</time>
      </trkpt>
      <trkpt lat="48.4621" lon="-2.48539">
        <ele>63</ele>
        <time>2016-06-07T13:46:27Z</time>
      </trkpt>
      <trkpt lat="48.46213" lon="-2.48537">
        <ele>63</ele>
        <time>2016-06-07T13:46:31Z</time>
      </trkpt>
      <trkpt lat="48.46216" lon="-2.48534">
        <ele>63</ele>
        <time>2016-06-07T13:46:35Z</time>
      </trkpt>
      <trkpt lat="48.46218" lon="-2.48533">
        <ele>63</ele>
        <time>2016-06-07T13:46:38Z</time>
      </trkpt>
      <trkpt lat="48.46221" lon="-2.48532">
        <ele>63</ele>
        <time>2016-06-07T13:46:43Z</time>
      </trkpt>
      <trkpt lat="48.46223" lon="-2.48531">
        <ele>63</ele>
        <time>2016-06-07T13:46:47Z</time>
      </trkpt>
      <trkpt lat="48.46224" lon="-2.48527">
        <ele>63</ele>
        <time>2016-06-07T13:46:52Z</time>
      </trkpt>
      <trkpt lat="48.46225" lon="-2.48526">
        <ele>63</ele>
        <time>2016-06-07T13:46:56Z</time>
      </trkpt>
      <trkpt lat="48.46225" lon="-2.48524">
        <ele>63</ele>
        <time>2016-06-07T13:47:00Z</time>
      </trkpt>
      <trkpt lat="48.46227" lon="-2.48522">
        <ele>67</ele>
        <time>2016-06-07T13:47:19Z</time>
      </trkpt>
      <trkpt lat="48.4623" lon="-2.4852">
        <ele>68</ele>
        <time>2016-06-07T13:47:25Z</time>
      </trkpt>
      <trkpt lat="48.46232" lon="-2.48517">
        <ele>69</ele>
        <time>2016-06-07T13:47:29Z</time>
      </trkpt>
      <trkpt lat="48.46234" lon="-2.48514">
        <ele>71</ele>
        <time>2016-06-07T13:47:34Z</time>
      </trkpt>
      <trkpt lat="48.46236" lon="-2.48513">
        <ele>72</ele>
        <time>2016-06-07T13:47:38Z</time>
      </trkpt>
      <trkpt lat="48.46239" lon="-2.4851">
        <ele>72</ele>
        <time>2016-06-07T13:47:42Z</time>
      </trkpt>
      <trkpt lat="48.46242" lon="-2.48509">
        <ele>72</ele>
        <time>2016-06-07T13:47:46Z</time>
      </trkpt>
      <trkpt lat="48.46244" lon="-2.48504">
        <ele>72</ele>
        <time>2016-06-07T13:47:51Z</time>
      </trkpt>
      <trkpt lat="48.46247" lon="-2.48501">
        <ele>72</ele>
        <time>2016-06-07T13:47:55Z</time>
      </trkpt>
      <trkpt lat="48.46249" lon="-2.48497">
        <ele>72</ele>
        <time>2016-06-07T13:47:59Z</time>
      </trkpt>
      <trkpt lat="48.46254" lon="-2.48495">
        <ele>72</ele>
        <time>2016-06-07T13:48:04Z</time>
      </trkpt>
      <trkpt lat="48.46257" lon="-2.48493">
        <ele>72</ele>
        <time>2016-06-07T13:48:08Z</time>
      </trkpt>
      <trkpt lat="48.46258" lon="-2.48491">
        <ele>72</ele>
        <time>2016-06-07T13:48:11Z</time>
      </trkpt>
      <trkpt lat="48.46261" lon="-2.48489">
        <ele>72</ele>
        <time>2016-06-07T13:48:15Z</time>
      </trkpt>
      <trkpt lat="48.46262" lon="-2.48487">
        <ele>72</ele>
        <time>2016-06-07T13:48:18Z</time>
      </trkpt>
      <trkpt lat="48.46263" lon="-2.48483">
        <ele>72</ele>
        <time>2016-06-07T13:48:21Z</time>
      </trkpt>
      <trkpt lat="48.46266" lon="-2.48481">
        <ele>72</ele>
        <time>2016-06-07T13:48:25Z</time>
      </trkpt>
      <trkpt lat="48.46269" lon="-2.48478">
        <ele>72</ele>
        <time>2016-06-07T13:48:29Z</time>
      </trkpt>
      <trkpt lat="48.4627" lon="-2.48474">
        <ele>72</ele>
        <time>2016-06-07T13:48:34Z</time>
      </trkpt>
      <trkpt lat="48.46268" lon="-2.4847">
        <ele>75</ele>
        <time>2016-06-07T13:48:39Z</time>
      </trkpt>
      <trkpt lat="48.46267" lon="-2.48468">
        <ele>77</ele>
        <time>2016-06-07T13:48:43Z</time>
      </trkpt>
      <trkpt lat="48.46266" lon="-2.48469">
        <ele>80</ele>
        <time>2016-06-07T13:48:52Z</time>
      </trkpt>
      <trkpt lat="48.46269" lon="-2.48468">
        <ele>80</ele>
        <time>2016-06-07T13:48:57Z</time>
      </trkpt>
      <trkpt lat="48.46272" lon="-2.48465">
        <ele>80</ele>
        <time>2016-06-07T13:49:01Z</time>
      </trkpt>
      <trkpt lat="48.46275" lon="-2.48465">
        <ele>80</ele>
        <time>2016-06-07T13:49:05Z</time>
      </trkpt>
      <trkpt lat="48.46278" lon="-2.48461">
        <ele>80</ele>
        <time>2016-06-07T13:49:09Z</time>
      </trkpt>
      <trkpt lat="48.4628" lon="-2.48458">
        <ele>80</ele>
        <time>2016-06-07T13:49:14Z</time>
      </trkpt>
      <trkpt lat="48.46283" lon="-2.48456">
        <ele>80</ele>
        <time>2016-06-07T13:49:19Z</time>
      </trkpt>
      <trkpt lat="48.46285" lon="-2.48453">
        <ele>80</ele>
        <time>2016-06-07T13:49:29Z</time>
      </trkpt>
      <trkpt lat="48.46288" lon="-2.48453">
        <ele>80</ele>
        <time>2016-06-07T13:49:33Z</time>
      </trkpt>
      <trkpt lat="48.46289" lon="-2.48452">
        <ele>80</ele>
        <time>2016-06-07T13:49:36Z</time>
      </trkpt>
      <trkpt lat="48.46292" lon="-2.4845">
        <ele>80</ele>
        <time>2016-06-07T13:49:40Z</time>
      </trkpt>
      <trkpt lat="48.46293" lon="-2.48448">
        <ele>80</ele>
        <time>2016-06-07T13:49:43Z</time>
      </trkpt>
      <trkpt lat="48.46296" lon="-2.48446">
        <ele>80</ele>
        <time>2016-06-07T13:49:47Z</time>
      </trkpt>
      <trkpt lat="48.46298" lon="-2.48443">
        <ele>80</ele>
        <time>2016-06-07T13:49:52Z</time>
      </trkpt>
      <trkpt lat="48.46301" lon="-2.4844">
        <ele>80</ele>
        <time>2016-06-07T13:49:57Z</time>
      </trkpt>
      <trkpt lat="48.46304" lon="-2.48437">
        <ele>80</ele>
        <time>2016-06-07T13:50:02Z</time>
      </trkpt>
      <trkpt lat="48.46306" lon="-2.48435">
        <ele>80</ele>
        <time>2016-06-07T13:50:06Z</time>
      </trkpt>
      <trkpt lat="48.46308" lon="-2.48434">
        <ele>80</ele>
        <time>2016-06-07T13:50:10Z</time>
      </trkpt>
      <trkpt lat="48.46308" lon="-2.48434">
        <ele>80</ele>
        <time>2016-06-07T13:50:16Z</time>
      </trkpt>
      <trkpt lat="48.46307" lon="-2.48431">
        <ele>80</ele>
        <time>2016-06-07T13:50:22Z</time>
      </trkpt>
      <trkpt lat="48.4631" lon="-2.48429">
        <ele>81</ele>
        <time>2016-06-07T13:50:26Z</time>
      </trkpt>
      <trkpt lat="48.46311" lon="-2.48427">
        <ele>81</ele>
        <time>2016-06-07T13:50:29Z</time>
      </trkpt>
      <trkpt lat="48.46313" lon="-2.48424">
        <ele>82</ele>
        <time>2016-06-07T13:50:33Z</time>
      </trkpt>
      <trkpt lat="48.46314" lon="-2.48418">
        <ele>83</ele>
        <time>2016-06-07T13:50:36Z</time>
      </trkpt>
      <trkpt lat="48.46316" lon="-2.48416">
        <ele>85</ele>
        <time>2016-06-07T13:50:40Z</time>
      </trkpt>
      <trkpt lat="48.46319" lon="-2.48412">
        <ele>85</ele>
        <time>2016-06-07T13:50:45Z</time>
      </trkpt>
      <trkpt lat="48.46321" lon="-2.48409">
        <ele>85</ele>
        <time>2016-06-07T13:50:49Z</time>
      </trkpt>
      <trkpt lat="48.46324" lon="-2.48406">
        <ele>85</ele>
        <time>2016-06-07T13:50:54Z</time>
      </trkpt>
      <trkpt lat="48.46326" lon="-2.48405">
        <ele>85</ele>
        <time>2016-06-07T13:51:03Z</time>
      </trkpt>
      <trkpt lat="48.46327" lon="-2.48402">
        <ele>85</ele>
        <time>2016-06-07T13:51:06Z</time>
      </trkpt>
      <trkpt lat="48.46328" lon="-2.48401">
        <ele>85</ele>
        <time>2016-06-07T13:51:09Z</time>
      </trkpt>
      <trkpt lat="48.46331" lon="-2.48398">
        <ele>85</ele>
        <time>2016-06-07T13:51:14Z</time>
      </trkpt>
      <trkpt lat="48.46333" lon="-2.48395">
        <ele>85</ele>
        <time>2016-06-07T13:51:19Z</time>
      </trkpt>
      <trkpt lat="48.46336" lon="-2.48393">
        <ele>85</ele>
        <time>2016-06-07T13:51:23Z</time>
      </trkpt>
      <trkpt lat="48.46339" lon="-2.48389">
        <ele>85</ele>
        <time>2016-06-07T13:51:28Z</time>
      </trkpt>
      <trkpt lat="48.4634" lon="-2.48385">
        <ele>85</ele>
        <time>2016-06-07T13:51:32Z</time>
      </trkpt>
      <trkpt lat="48.46343" lon="-2.48381">
        <ele>86</ele>
        <time>2016-06-07T13:51:36Z</time>
      </trkpt>
      <trkpt lat="48.46345" lon="-2.48379">
        <ele>86</ele>
        <time>2016-06-07T13:51:40Z</time>
      </trkpt>
      <trkpt lat="48.46347" lon="-2.48376">
        <ele>86</ele>
        <time>2016-06-07T13:51:44Z</time>
      </trkpt>
      <trkpt lat="48.4635" lon="-2.48373">
        <ele>86</ele>
        <time>2016-06-07T13:51:48Z</time>
      </trkpt>
      <trkpt lat="48.46352" lon="-2.48369">
        <ele>86</ele>
        <time>2016-06-07T13:51:52Z</time>
      </trkpt>
      <trkpt lat="48.46355" lon="-2.48367">
        <ele>86</ele>
        <time>2016-06-07T13:51:56Z</time>
      </trkpt>
      <trkpt lat="48.46357" lon="-2.48363">
        <ele>86</ele>
        <time>2016-06-07T13:52:00Z</time>
      </trkpt>
      <trkpt lat="48.46359" lon="-2.48359">
        <ele>86</ele>
        <time>2016-06-07T13:52:04Z</time>
      </trkpt>
      <trkpt lat="48.46363" lon="-2.48357">
        <ele>86</ele>
        <time>2016-06-07T13:52:08Z</time>
      </trkpt>
      <trkpt lat="48.46365" lon="-2.48354">
        <ele>86</ele>
        <time>2016-06-07T13:52:12Z</time>
      </trkpt>
      <trkpt lat="48.46368" lon="-2.48351">
        <ele>87</ele>
        <time>2016-06-07T13:52:16Z</time>
      </trkpt>
      <trkpt lat="48.4637" lon="-2.48347">
        <ele>87</ele>
        <time>2016-06-07T13:52:20Z</time>
      </trkpt>
      <trkpt lat="48.46373" lon="-2.48346">
        <ele>87</ele>
        <time>2016-06-07T13:52:24Z</time>
      </trkpt>
      <trkpt lat="48.46376" lon="-2.48344">
        <ele>87</ele>
        <time>2016-06-07T13:52:28Z</time>
      </trkpt>
      <trkpt lat="48.46379" lon="-2.48342">
        <ele>87</ele>
        <time>2016-06-07T13:52:32Z</time>
      </trkpt>
      <trkpt lat="48.46379" lon="-2.4834">
        <ele>87</ele>
        <time>2016-06-07T13:52:38Z</time>
      </trkpt>
      <trkpt lat="48.46379" lon="-2.48342">
        <ele>89</ele>
        <time>2016-06-07T13:52:51Z</time>
      </trkpt>
      <trkpt lat="48.46377" lon="-2.48339">
        <ele>90</ele>
        <time>2016-06-07T13:53:06Z</time>
      </trkpt>
      <trkpt lat="48.46376" lon="-2.48341">
        <ele>92</ele>
        <time>2016-06-07T13:53:19Z</time>
      </trkpt>
      <trkpt lat="48.46378" lon="-2.48341">
        <ele>92</ele>
        <time>2016-06-07T13:53:30Z</time>
      </trkpt>
      <trkpt lat="48.46378" lon="-2.48339">
        <ele>92</ele>
        <time>2016-06-07T13:53:33Z</time>
      </trkpt>
      <trkpt lat="48.46378" lon="-2.48341">
        <ele>92</ele>
        <time>2016-06-07T13:53:36Z</time>
      </trkpt>
      <trkpt lat="48.46379" lon="-2.48342">
        <ele>92</ele>
        <time>2016-06-07T13:53:48Z</time>
      </trkpt>
      <trkpt lat="48.4638" lon="-2.48341">
        <ele>92</ele>
        <time>2016-06-07T13:54:00Z</time>
      </trkpt>
      <trkpt lat="48.46379" lon="-2.48342">
        <ele>92</ele>
        <time>2016-06-07T13:54:06Z</time>
      </trkpt>
      <trkpt lat="48.46378" lon="-2.4834">
        <ele>92</ele>
        <time>2016-06-07T13:54:25Z</time>
      </trkpt>
      <trkpt lat="48.46379" lon="-2.4834">
        <ele>92</ele>
        <time>2016-06-07T13:54:34Z</time>
      </trkpt>
      <trkpt lat="48.4638" lon="-2.48339">
        <ele>92</ele>
        <time>2016-06-07T13:54:38Z</time>
      </trkpt>
      <trkpt lat="48.46384" lon="-2.48338">
        <ele>92</ele>
        <time>2016-06-07T13:54:43Z</time>
      </trkpt>
      <trkpt lat="48.46386" lon="-2.48336">
        <ele>92</ele>
        <time>2016-06-07T13:54:47Z</time>
      </trkpt>
      <trkpt lat="48.46389" lon="-2.48336">
        <ele>92</ele>
        <time>2016-06-07T13:54:51Z</time>
      </trkpt>
      <trkpt lat="48.46392" lon="-2.48334">
        <ele>92</ele>
        <time>2016-06-07T13:54:55Z</time>
      </trkpt>
      <trkpt lat="48.46394" lon="-2.48332">
        <ele>92</ele>
        <time>2016-06-07T13:54:59Z</time>
      </trkpt>
      <trkpt lat="48.46397" lon="-2.4833">
        <ele>92</ele>
        <time>2016-06-07T13:55:03Z</time>
      </trkpt>
      <trkpt lat="48.46401" lon="-2.48328">
        <ele>92</ele>
        <time>2016-06-07T13:55:07Z</time>
      </trkpt>
      <trkpt lat="48.46404" lon="-2.48327">
        <ele>92</ele>
        <time>2016-06-07T13:55:11Z</time>
      </trkpt>
      <trkpt lat="48.46407" lon="-2.48325">
        <ele>92</ele>
        <time>2016-06-07T13:55:15Z</time>
      </trkpt>
      <trkpt lat="48.4641" lon="-2.48322">
        <ele>92</ele>
        <time>2016-06-07T13:55:19Z</time>
      </trkpt>
      <trkpt lat="48.46414" lon="-2.48319">
        <ele>92</ele>
        <time>2016-06-07T13:55:23Z</time>
      </trkpt>
      <trkpt lat="48.46417" lon="-2.48317">
        <ele>92</ele>
        <time>2016-06-07T13:55:27Z</time>
      </trkpt>
      <trkpt lat="48.4642" lon="-2.48314">
        <ele>92</ele>
        <time>2016-06-07T13:55:31Z</time>
      </trkpt>
      <trkpt lat="48.46423" lon="-2.48312">
        <ele>92</ele>
        <time>2016-06-07T13:55:35Z</time>
      </trkpt>
      <trkpt lat="48.46427" lon="-2.48309">
        <ele>92</ele>
        <time>2016-06-07T13:55:39Z</time>
      </trkpt>
      <trkpt lat="48.4643" lon="-2.48306">
        <ele>92</ele>
        <time>2016-06-07T13:55:43Z</time>
      </trkpt>
      <trkpt lat="48.46433" lon="-2.48303">
        <ele>92</ele>
        <time>2016-06-07T13:55:47Z</time>
      </trkpt>
      <trkpt lat="48.46436" lon="-2.483">
        <ele>92</ele>
        <time>2016-06-07T13:55:51Z</time>
      </trkpt>
      <trkpt lat="48.46439" lon="-2.48295">
        <ele>92</ele>
        <time>2016-06-07T13:55:55Z</time>
      </trkpt>
      <trkpt lat="48.46442" lon="-2.48291">
        <ele>92</ele>
        <time>2016-06-07T13:55:59Z</time>
      </trkpt>
      <trkpt lat="48.46444" lon="-2.48288">
        <ele>92</ele>
        <time>2016-06-07T13:56:02Z</time>
      </trkpt>
      <trkpt lat="48.46447" lon="-2.48285">
        <ele>92</ele>
        <time>2016-06-07T13:56:06Z</time>
      </trkpt>
      <trkpt lat="48.4645" lon="-2.48281">
        <ele>92</ele>
        <time>2016-06-07T13:56:10Z</time>
      </trkpt>
      <trkpt lat="48.46453" lon="-2.48278">
        <ele>92</ele>
        <time>2016-06-07T13:56:14Z</time>
      </trkpt>
      <trkpt lat="48.46455" lon="-2.48274">
        <ele>92</ele>
        <time>2016-06-07T13:56:18Z</time>
      </trkpt>
      <trkpt lat="48.46458" lon="-2.48271">
        <ele>92</ele>
        <time>2016-06-07T13:56:22Z</time>
      </trkpt>
      <trkpt lat="48.4646" lon="-2.48267">
        <ele>92</ele>
        <time>2016-06-07T13:56:25Z</time>
      </trkpt>
      <trkpt lat="48.46463" lon="-2.48264">
        <ele>93</ele>
        <time>2016-06-07T13:56:29Z</time>
      </trkpt>
      <trkpt lat="48.46464" lon="-2.48259">
        <ele>93</ele>
        <time>2016-06-07T13:56:32Z</time>
      </trkpt>
      <trkpt lat="48.46467" lon="-2.48256">
        <ele>94</ele>
        <time>2016-06-07T13:56:36Z</time>
      </trkpt>
      <trkpt lat="48.4647" lon="-2.48253">
        <ele>94</ele>
        <time>2016-06-07T13:56:40Z</time>
      </trkpt>
      <trkpt lat="48.46473" lon="-2.48249">
        <ele>94</ele>
        <time>2016-06-07T13:56:44Z</time>
      </trkpt>
      <trkpt lat="48.46475" lon="-2.48245">
        <ele>94</ele>
        <time>2016-06-07T13:56:48Z</time>
      </trkpt>
      <trkpt lat="48.46478" lon="-2.48241">
        <ele>94</ele>
        <time>2016-06-07T13:56:52Z</time>
      </trkpt>
      <trkpt lat="48.4648" lon="-2.48238">
        <ele>94</ele>
        <time>2016-06-07T13:56:56Z</time>
      </trkpt>
      <trkpt lat="48.46482" lon="-2.48234">
        <ele>94</ele>
        <time>2016-06-07T13:57:02Z</time>
      </trkpt>
      <trkpt lat="48.46483" lon="-2.4823">
        <ele>94</ele>
        <time>2016-06-07T13:57:06Z</time>
      </trkpt>
      <trkpt lat="48.46484" lon="-2.48225">
        <ele>94</ele>
        <time>2016-06-07T13:57:10Z</time>
      </trkpt>
      <trkpt lat="48.46486" lon="-2.48221">
        <ele>94</ele>
        <time>2016-06-07T13:57:14Z</time>
      </trkpt>
      <trkpt lat="48.46487" lon="-2.48216">
        <ele>94</ele>
        <time>2016-06-07T13:57:18Z</time>
      </trkpt>
      <trkpt lat="48.46489" lon="-2.48212">
        <ele>94</ele>
        <time>2016-06-07T13:57:22Z</time>
      </trkpt>
      <trkpt lat="48.46492" lon="-2.48207">
        <ele>94</ele>
        <time>2016-06-07T13:57:26Z</time>
      </trkpt>
      <trkpt lat="48.46494" lon="-2.48203">
        <ele>94</ele>
        <time>2016-06-07T13:57:30Z</time>
      </trkpt>
      <trkpt lat="48.46496" lon="-2.48198">
        <ele>94</ele>
        <time>2016-06-07T13:57:34Z</time>
      </trkpt>
      <trkpt lat="48.46498" lon="-2.48194">
        <ele>94</ele>
        <time>2016-06-07T13:57:38Z</time>
      </trkpt>
      <trkpt lat="48.46501" lon="-2.48189">
        <ele>94</ele>
        <time>2016-06-07T13:57:42Z</time>
      </trkpt>
      <trkpt lat="48.46503" lon="-2.48185">
        <ele>94</ele>
        <time>2016-06-07T13:57:45Z</time>
      </trkpt>
      <trkpt lat="48.46505" lon="-2.48182">
        <ele>94</ele>
        <time>2016-06-07T13:57:49Z</time>
      </trkpt>
      <trkpt lat="48.46508" lon="-2.48178">
        <ele>94</ele>
        <time>2016-06-07T13:57:53Z</time>
      </trkpt>
      <trkpt lat="48.4651" lon="-2.48174">
        <ele>94</ele>
        <time>2016-06-07T13:57:57Z</time>
      </trkpt>
      <trkpt lat="48.46513" lon="-2.4817">
        <ele>94</ele>
        <time>2016-06-07T13:58:01Z</time>
      </trkpt>
      <trkpt lat="48.46515" lon="-2.48165">
        <ele>94</ele>
        <time>2016-06-07T13:58:05Z</time>
      </trkpt>
      <trkpt lat="48.46518" lon="-2.48161">
        <ele>94</ele>
        <time>2016-06-07T13:58:09Z</time>
      </trkpt>
      <trkpt lat="48.46521" lon="-2.48156">
        <ele>94</ele>
        <time>2016-06-07T13:58:13Z</time>
      </trkpt>
      <trkpt lat="48.46523" lon="-2.48151">
        <ele>94</ele>
        <time>2016-06-07T13:58:17Z</time>
      </trkpt>
      <trkpt lat="48.46526" lon="-2.48147">
        <ele>94</ele>
        <time>2016-06-07T13:58:21Z</time>
      </trkpt>
      <trkpt lat="48.46528" lon="-2.48142">
        <ele>94</ele>
        <time>2016-06-07T13:58:25Z</time>
      </trkpt>
      <trkpt lat="48.46531" lon="-2.48137">
        <ele>94</ele>
        <time>2016-06-07T13:58:29Z</time>
      </trkpt>
      <trkpt lat="48.46533" lon="-2.48134">
        <ele>94</ele>
        <time>2016-06-07T13:58:33Z</time>
      </trkpt>
      <trkpt lat="48.46535" lon="-2.48129">
        <ele>94</ele>
        <time>2016-06-07T13:58:37Z</time>
      </trkpt>
      <trkpt lat="48.46538" lon="-2.48125">
        <ele>94</ele>
        <time>2016-06-07T13:58:41Z</time>
      </trkpt>
      <trkpt lat="48.4654" lon="-2.4812">
        <ele>94</ele>
        <time>2016-06-07T13:58:45Z</time>
      </trkpt>
      <trkpt lat="48.46543" lon="-2.48116">
        <ele>94</ele>
        <time>2016-06-07T13:58:49Z</time>
      </trkpt>
      <trkpt lat="48.46544" lon="-2.48114">
        <ele>94</ele>
        <time>2016-06-07T13:58:52Z</time>
      </trkpt>
      <trkpt lat="48.46545" lon="-2.48112">
        <ele>94</ele>
        <time>2016-06-07T13:58:55Z</time>
      </trkpt>
      <trkpt lat="48.46548" lon="-2.48108">
        <ele>94</ele>
        <time>2016-06-07T13:58:59Z</time>
      </trkpt>
      <trkpt lat="48.46549" lon="-2.48106">
        <ele>94</ele>
        <time>2016-06-07T13:59:02Z</time>
      </trkpt>
      <trkpt lat="48.4655" lon="-2.48104">
        <ele>94</ele>
        <time>2016-06-07T13:59:06Z</time>
      </trkpt>
      <trkpt lat="48.46551" lon="-2.48103">
        <ele>94</ele>
        <time>2016-06-07T13:59:10Z</time>
      </trkpt>
      <trkpt lat="48.46554" lon="-2.481">
        <ele>94</ele>
        <time>2016-06-07T13:59:14Z</time>
      </trkpt>
      <trkpt lat="48.46555" lon="-2.48097">
        <ele>94</ele>
        <time>2016-06-07T13:59:18Z</time>
      </trkpt>
      <trkpt lat="48.46556" lon="-2.48092">
        <ele>94</ele>
        <time>2016-06-07T13:59:22Z</time>
      </trkpt>
      <trkpt lat="48.46559" lon="-2.4809">
        <ele>94</ele>
        <time>2016-06-07T13:59:25Z</time>
      </trkpt>
      <trkpt lat="48.46563" lon="-2.48089">
        <ele>94</ele>
        <time>2016-06-07T13:59:29Z</time>
      </trkpt>
      <trkpt lat="48.46566" lon="-2.48088">
        <ele>94</ele>
        <time>2016-06-07T13:59:33Z</time>
      </trkpt>
      <trkpt lat="48.46569" lon="-2.48086">
        <ele>94</ele>
        <time>2016-06-07T13:59:37Z</time>
      </trkpt>
      <trkpt lat="48.46572" lon="-2.48082">
        <ele>94</ele>
        <time>2016-06-07T13:59:41Z</time>
      </trkpt>
      <trkpt lat="48.46576" lon="-2.48078">
        <ele>94</ele>
        <time>2016-06-07T13:59:45Z</time>
      </trkpt>
      <trkpt lat="48.46579" lon="-2.48076">
        <ele>94</ele>
        <time>2016-06-07T13:59:49Z</time>
      </trkpt>
      <trkpt lat="48.46582" lon="-2.48072">
        <ele>94</ele>
        <time>2016-06-07T13:59:53Z</time>
      </trkpt>
      <trkpt lat="48.46585" lon="-2.4807">
        <ele>94</ele>
        <time>2016-06-07T13:59:56Z</time>
      </trkpt>
      <trkpt lat="48.46589" lon="-2.48067">
        <ele>94</ele>
        <time>2016-06-07T14:00:00Z</time>
      </trkpt>
      <trkpt lat="48.46592" lon="-2.48063">
        <ele>94</ele>
        <time>2016-06-07T14:00:04Z</time>
      </trkpt>
      <trkpt lat="48.46595" lon="-2.4806">
        <ele>94</ele>
        <time>2016-06-07T14:00:08Z</time>
      </trkpt>
      <trkpt lat="48.46599" lon="-2.48058">
        <ele>94</ele>
        <time>2016-06-07T14:00:12Z</time>
      </trkpt>
      <trkpt lat="48.46602" lon="-2.48055">
        <ele>94</ele>
        <time>2016-06-07T14:00:16Z</time>
      </trkpt>
      <trkpt lat="48.46605" lon="-2.48052">
        <ele>94</ele>
        <time>2016-06-07T14:00:21Z</time>
      </trkpt>
      <trkpt lat="48.46606" lon="-2.4805">
        <ele>94</ele>
        <time>2016-06-07T14:00:24Z</time>
      </trkpt>
      <trkpt lat="48.46608" lon="-2.48048">
        <ele>94</ele>
        <time>2016-06-07T14:00:27Z</time>
      </trkpt>
      <trkpt lat="48.46609" lon="-2.48044">
        <ele>94</ele>
        <time>2016-06-07T14:00:31Z</time>
      </trkpt>
      <trkpt lat="48.46611" lon="-2.48039">
        <ele>94</ele>
        <time>2016-06-07T14:00:35Z</time>
      </trkpt>
      <trkpt lat="48.46613" lon="-2.48035">
        <ele>94</ele>
        <time>2016-06-07T14:00:39Z</time>
      </trkpt>
      <trkpt lat="48.46614" lon="-2.48029">
        <ele>94</ele>
        <time>2016-06-07T14:00:43Z</time>
      </trkpt>
      <trkpt lat="48.46617" lon="-2.48025">
        <ele>94</ele>
        <time>2016-06-07T14:00:47Z</time>
      </trkpt>
      <trkpt lat="48.46619" lon="-2.48019">
        <ele>94</ele>
        <time>2016-06-07T14:00:51Z</time>
      </trkpt>
      <trkpt lat="48.46622" lon="-2.48015">
        <ele>94</ele>
        <time>2016-06-07T14:00:55Z</time>
      </trkpt>
      <trkpt lat="48.46624" lon="-2.4801">
        <ele>94</ele>
        <time>2016-06-07T14:00:59Z</time>
      </trkpt>
      <trkpt lat="48.46627" lon="-2.48006">
        <ele>94</ele>
        <time>2016-06-07T14:01:03Z</time>
      </trkpt>
      <trkpt lat="48.46629" lon="-2.48">
        <ele>94</ele>
        <time>2016-06-07T14:01:07Z</time>
      </trkpt>
      <trkpt lat="48.46631" lon="-2.47996">
        <ele>94</ele>
        <time>2016-06-07T14:01:11Z</time>
      </trkpt>
      <trkpt lat="48.46635" lon="-2.47992">
        <ele>94</ele>
        <time>2016-06-07T14:01:15Z</time>
      </trkpt>
      <trkpt lat="48.46637" lon="-2.47988">
        <ele>94</ele>
        <time>2016-06-07T14:01:19Z</time>
      </trkpt>
      <trkpt lat="48.46639" lon="-2.47981">
        <ele>94</ele>
        <time>2016-06-07T14:01:23Z</time>
      </trkpt>
      <trkpt lat="48.46642" lon="-2.47977">
        <ele>94</ele>
        <time>2016-06-07T14:01:27Z</time>
      </trkpt>
      <trkpt lat="48.46644" lon="-2.47973">
        <ele>94</ele>
        <time>2016-06-07T14:01:31Z</time>
      </trkpt>
      <trkpt lat="48.46644" lon="-2.47968">
        <ele>95</ele>
        <time>2016-06-07T14:01:34Z</time>
      </trkpt>
      <trkpt lat="48.46645" lon="-2.47963">
        <ele>98</ele>
        <time>2016-06-07T14:01:38Z</time>
      </trkpt>
      <trkpt lat="48.46648" lon="-2.47958">
        <ele>100</ele>
        <time>2016-06-07T14:01:42Z</time>
      </trkpt>
      <trkpt lat="48.46649" lon="-2.47954">
        <ele>100</ele>
        <time>2016-06-07T14:01:45Z</time>
      </trkpt>
      <trkpt lat="48.4665" lon="-2.47949">
        <ele>100</ele>
        <time>2016-06-07T14:01:48Z</time>
      </trkpt>
      <trkpt lat="48.46653" lon="-2.47944">
        <ele>101</ele>
        <time>2016-06-07T14:01:52Z</time>
      </trkpt>
      <trkpt lat="48.46655" lon="-2.47939">
        <ele>101</ele>
        <time>2016-06-07T14:01:55Z</time>
      </trkpt>
      <trkpt lat="48.46656" lon="-2.47935">
        <ele>101</ele>
        <time>2016-06-07T14:01:58Z</time>
      </trkpt>
      <trkpt lat="48.46658" lon="-2.4793">
        <ele>101</ele>
        <time>2016-06-07T14:02:02Z</time>
      </trkpt>
      <trkpt lat="48.4666" lon="-2.47925">
        <ele>102</ele>
        <time>2016-06-07T14:02:06Z</time>
      </trkpt>
      <trkpt lat="48.46662" lon="-2.47919">
        <ele>104</ele>
        <time>2016-06-07T14:02:10Z</time>
      </trkpt>
      <trkpt lat="48.46665" lon="-2.47914">
        <ele>104</ele>
        <time>2016-06-07T14:02:14Z</time>
      </trkpt>
      <trkpt lat="48.46666" lon="-2.47909">
        <ele>104</ele>
        <time>2016-06-07T14:02:17Z</time>
      </trkpt>
      <trkpt lat="48.46668" lon="-2.47902">
        <ele>106</ele>
        <time>2016-06-07T14:02:21Z</time>
      </trkpt>
      <trkpt lat="48.46669" lon="-2.47898">
        <ele>108</ele>
        <time>2016-06-07T14:02:24Z</time>
      </trkpt>
      <trkpt lat="48.4667" lon="-2.47893">
        <ele>111</ele>
        <time>2016-06-07T14:02:27Z</time>
      </trkpt>
      <trkpt lat="48.46671" lon="-2.47888">
        <ele>113</ele>
        <time>2016-06-07T14:02:30Z</time>
      </trkpt>
      <trkpt lat="48.46674" lon="-2.47884">
        <ele>114</ele>
        <time>2016-06-07T14:02:34Z</time>
      </trkpt>
      <trkpt lat="48.46678" lon="-2.47882">
        <ele>114</ele>
        <time>2016-06-07T14:02:37Z</time>
      </trkpt>
      <trkpt lat="48.4668" lon="-2.47879">
        <ele>114</ele>
        <time>2016-06-07T14:02:40Z</time>
      </trkpt>
      <trkpt lat="48.46682" lon="-2.47873">
        <ele>114</ele>
        <time>2016-06-07T14:02:44Z</time>
      </trkpt>
      <trkpt lat="48.46684" lon="-2.47869">
        <ele>114</ele>
        <time>2016-06-07T14:02:48Z</time>
      </trkpt>
      <trkpt lat="48.46687" lon="-2.47866">
        <ele>114</ele>
        <time>2016-06-07T14:02:51Z</time>
      </trkpt>
      <trkpt lat="48.46688" lon="-2.47863">
        <ele>114</ele>
        <time>2016-06-07T14:02:54Z</time>
      </trkpt>
      <trkpt lat="48.46691" lon="-2.47859">
        <ele>114</ele>
        <time>2016-06-07T14:02:57Z</time>
      </trkpt>
      <trkpt lat="48.46695" lon="-2.47858">
        <ele>114</ele>
        <time>2016-06-07T14:03:01Z</time>
      </trkpt>
      <trkpt lat="48.46696" lon="-2.47854">
        <ele>114</ele>
        <time>2016-06-07T14:03:04Z</time>
      </trkpt>
      <trkpt lat="48.46699" lon="-2.47851">
        <ele>114</ele>
        <time>2016-06-07T14:03:07Z</time>
      </trkpt>
      <trkpt lat="48.46701" lon="-2.47847">
        <ele>112</ele>
        <time>2016-06-07T14:03:10Z</time>
      </trkpt>
      <trkpt lat="48.46704" lon="-2.47845">
        <ele>110</ele>
        <time>2016-06-07T14:03:13Z</time>
      </trkpt>
      <trkpt lat="48.46708" lon="-2.47843">
        <ele>110</ele>
        <time>2016-06-07T14:03:16Z</time>
      </trkpt>
      <trkpt lat="48.46711" lon="-2.47839">
        <ele>110</ele>
        <time>2016-06-07T14:03:20Z</time>
      </trkpt>
      <trkpt lat="48.46714" lon="-2.47835">
        <ele>110</ele>
        <time>2016-06-07T14:03:24Z</time>
      </trkpt>
      <trkpt lat="48.46716" lon="-2.47832">
        <ele>109</ele>
        <time>2016-06-07T14:03:28Z</time>
      </trkpt>
      <trkpt lat="48.46717" lon="-2.47828">
        <ele>108</ele>
        <time>2016-06-07T14:03:31Z</time>
      </trkpt>
      <trkpt lat="48.46722" lon="-2.47824">
        <ele>108</ele>
        <time>2016-06-07T14:03:35Z</time>
      </trkpt>
      <trkpt lat="48.46724" lon="-2.47821">
        <ele>108</ele>
        <time>2016-06-07T14:03:38Z</time>
      </trkpt>
      <trkpt lat="48.46726" lon="-2.47814">
        <ele>107</ele>
        <time>2016-06-07T14:03:42Z</time>
      </trkpt>
      <trkpt lat="48.4673" lon="-2.47811">
        <ele>107</ele>
        <time>2016-06-07T14:03:46Z</time>
      </trkpt>
      <trkpt lat="48.46733" lon="-2.47806">
        <ele>106</ele>
        <time>2016-06-07T14:03:50Z</time>
      </trkpt>
      <trkpt lat="48.46733" lon="-2.47799">
        <ele>106</ele>
        <time>2016-06-07T14:03:54Z</time>
      </trkpt>
      <trkpt lat="48.46735" lon="-2.47796">
        <ele>106</ele>
        <time>2016-06-07T14:03:58Z</time>
      </trkpt>
      <trkpt lat="48.46737" lon="-2.47792">
        <ele>106</ele>
        <time>2016-06-07T14:04:01Z</time>
      </trkpt>
      <trkpt lat="48.4674" lon="-2.47789">
        <ele>106</ele>
        <time>2016-06-07T14:04:05Z</time>
      </trkpt>
      <trkpt lat="48.46742" lon="-2.47785">
        <ele>106</ele>
        <time>2016-06-07T14:04:09Z</time>
      </trkpt>
      <trkpt lat="48.46744" lon="-2.47788">
        <ele>106</ele>
        <time>2016-06-07T14:04:13Z</time>
      </trkpt>
      <trkpt lat="48.46747" lon="-2.47793">
        <ele>106</ele>
        <time>2016-06-07T14:04:16Z</time>
      </trkpt>
      <trkpt lat="48.46749" lon="-2.47794">
        <ele>107</ele>
        <time>2016-06-07T14:04:19Z</time>
      </trkpt>
      <trkpt lat="48.46751" lon="-2.47791">
        <ele>107</ele>
        <time>2016-06-07T14:04:22Z</time>
      </trkpt>
      <trkpt lat="48.46751" lon="-2.47786">
        <ele>109</ele>
        <time>2016-06-07T14:04:25Z</time>
      </trkpt>
      <trkpt lat="48.46753" lon="-2.47784">
        <ele>109</ele>
        <time>2016-06-07T14:04:28Z</time>
      </trkpt>
      <trkpt lat="48.46756" lon="-2.47787">
        <ele>109</ele>
        <time>2016-06-07T14:04:31Z</time>
      </trkpt>
      <trkpt lat="48.46757" lon="-2.47789">
        <ele>109</ele>
        <time>2016-06-07T14:04:34Z</time>
      </trkpt>
      <trkpt lat="48.46765" lon="-2.47785">
        <ele>110</ele>
        <time>2016-06-07T14:04:44Z</time>
      </trkpt>
      <trkpt lat="48.46766" lon="-2.47786">
        <ele>113</ele>
        <time>2016-06-07T14:04:47Z</time>
      </trkpt>
      <trkpt lat="48.46765" lon="-2.47787">
        <ele>115</ele>
        <time>2016-06-07T14:04:54Z</time>
      </trkpt>
      <trkpt lat="48.46764" lon="-2.47789">
        <ele>115</ele>
        <time>2016-06-07T14:04:58Z</time>
      </trkpt>
      <trkpt lat="48.46766" lon="-2.47793">
        <ele>115</ele>
        <time>2016-06-07T14:05:02Z</time>
      </trkpt>
      <trkpt lat="48.46769" lon="-2.47799">
        <ele>115</ele>
        <time>2016-06-07T14:05:06Z</time>
      </trkpt>
      <trkpt lat="48.46767" lon="-2.47802">
        <ele>111</ele>
        <time>2016-06-07T14:05:12Z</time>
      </trkpt>
      <trkpt lat="48.46769" lon="-2.47805">
        <ele>110</ele>
        <time>2016-06-07T14:05:15Z</time>
      </trkpt>
      <trkpt lat="48.46772" lon="-2.47809">
        <ele>109</ele>
        <time>2016-06-07T14:05:19Z</time>
      </trkpt>
      <trkpt lat="48.46772" lon="-2.47807">
        <ele>109</ele>
        <time>2016-06-07T14:05:29Z</time>
      </trkpt>
      <trkpt lat="48.46767" lon="-2.47799">
        <ele>109</ele>
        <time>2016-06-07T14:05:33Z</time>
      </trkpt>
      <trkpt lat="48.46766" lon="-2.47795">
        <ele>109</ele>
        <time>2016-06-07T14:05:36Z</time>
      </trkpt>
      <trkpt lat="48.46767" lon="-2.47799">
        <ele>112</ele>
        <time>2016-06-07T14:05:46Z</time>
      </trkpt>
      <trkpt lat="48.46767" lon="-2.47803">
        <ele>112</ele>
        <time>2016-06-07T14:05:50Z</time>
      </trkpt>
      <trkpt lat="48.46767" lon="-2.47805">
        <ele>112</ele>
        <time>2016-06-07T14:05:55Z</time>
      </trkpt>
      <trkpt lat="48.46766" lon="-2.47806">
        <ele>112</ele>
        <time>2016-06-07T14:06:00Z</time>
      </trkpt>
      <trkpt lat="48.46765" lon="-2.47808">
        <ele>112</ele>
        <time>2016-06-07T14:06:15Z</time>
      </trkpt>
      <trkpt lat="48.46767" lon="-2.47811">
        <ele>115</ele>
        <time>2016-06-07T14:06:18Z</time>
      </trkpt>
      <trkpt lat="48.46766" lon="-2.47811">
        <ele>118</ele>
        <time>2016-06-07T14:06:29Z</time>
      </trkpt>
      <trkpt lat="48.46769" lon="-2.47809">
        <ele>118</ele>
        <time>2016-06-07T14:06:32Z</time>
      </trkpt>
      <trkpt lat="48.46772" lon="-2.47809">
        <ele>116</ele>
        <time>2016-06-07T14:06:38Z</time>
      </trkpt>
      <trkpt lat="48.46773" lon="-2.47807">
        <ele>113</ele>
        <time>2016-06-07T14:06:41Z</time>
      </trkpt>
      <trkpt lat="48.46776" lon="-2.47804">
        <ele>112</ele>
        <time>2016-06-07T14:06:45Z</time>
      </trkpt>
      <trkpt lat="48.46778" lon="-2.47799">
        <ele>112</ele>
        <time>2016-06-07T14:06:49Z</time>
      </trkpt>
      <trkpt lat="48.46782" lon="-2.47794">
        <ele>112</ele>
        <time>2016-06-07T14:06:53Z</time>
      </trkpt>
      <trkpt lat="48.46786" lon="-2.4779">
        <ele>112</ele>
        <time>2016-06-07T14:06:56Z</time>
      </trkpt>
      <trkpt lat="48.46789" lon="-2.47786">
        <ele>112</ele>
        <time>2016-06-07T14:07:00Z</time>
      </trkpt>
      <trkpt lat="48.46793" lon="-2.47783">
        <ele>113</ele>
        <time>2016-06-07T14:07:04Z</time>
      </trkpt>
      <trkpt lat="48.46796" lon="-2.47777">
        <ele>113</ele>
        <time>2016-06-07T14:07:08Z</time>
      </trkpt>
      <trkpt lat="48.468" lon="-2.47775">
        <ele>113</ele>
        <time>2016-06-07T14:07:15Z</time>
      </trkpt>
      <trkpt lat="48.46802" lon="-2.47776">
        <ele>113</ele>
        <time>2016-06-07T14:07:18Z</time>
      </trkpt>
      <trkpt lat="48.46805" lon="-2.47775">
        <ele>113</ele>
        <time>2016-06-07T14:07:21Z</time>
      </trkpt>
      <trkpt lat="48.46807" lon="-2.47773">
        <ele>113</ele>
        <time>2016-06-07T14:07:24Z</time>
      </trkpt>
      <trkpt lat="48.46811" lon="-2.47772">
        <ele>113</ele>
        <time>2016-06-07T14:07:27Z</time>
      </trkpt>
      <trkpt lat="48.46814" lon="-2.47771">
        <ele>113</ele>
        <time>2016-06-07T14:07:31Z</time>
      </trkpt>
      <trkpt lat="48.46817" lon="-2.4777">
        <ele>112</ele>
        <time>2016-06-07T14:07:34Z</time>
      </trkpt>
      <trkpt lat="48.4682" lon="-2.47767">
        <ele>112</ele>
        <time>2016-06-07T14:07:37Z</time>
      </trkpt>
      <trkpt lat="48.46826" lon="-2.47767">
        <ele>112</ele>
        <time>2016-06-07T14:07:40Z</time>
      </trkpt>
      <trkpt lat="48.4683" lon="-2.47764">
        <ele>111</ele>
        <time>2016-06-07T14:07:43Z</time>
      </trkpt>
      <trkpt lat="48.46835" lon="-2.47762">
        <ele>110</ele>
        <time>2016-06-07T14:07:47Z</time>
      </trkpt>
      <trkpt lat="48.46838" lon="-2.47762">
        <ele>110</ele>
        <time>2016-06-07T14:07:51Z</time>
      </trkpt>
      <trkpt lat="48.46842" lon="-2.47762">
        <ele>110</ele>
        <time>2016-06-07T14:07:55Z</time>
      </trkpt>
      <trkpt lat="48.46844" lon="-2.47761">
        <ele>110</ele>
        <time>2016-06-07T14:07:58Z</time>
      </trkpt>
      <trkpt lat="48.46848" lon="-2.47757">
        <ele>112</ele>
        <time>2016-06-07T14:08:03Z</time>
      </trkpt>
      <trkpt lat="48.46852" lon="-2.47755">
        <ele>113</ele>
        <time>2016-06-07T14:08:06Z</time>
      </trkpt>
      <trkpt lat="48.46855" lon="-2.47753">
        <ele>113</ele>
        <time>2016-06-07T14:08:10Z</time>
      </trkpt>
      <trkpt lat="48.46858" lon="-2.47753">
        <ele>113</ele>
        <time>2016-06-07T14:08:14Z</time>
      </trkpt>
      <trkpt lat="48.46861" lon="-2.47753">
        <ele>113</ele>
        <time>2016-06-07T14:08:17Z</time>
      </trkpt>
      <trkpt lat="48.46864" lon="-2.47754">
        <ele>113</ele>
        <time>2016-06-07T14:08:21Z</time>
      </trkpt>
      <trkpt lat="48.46869" lon="-2.47753">
        <ele>113</ele>
        <time>2016-06-07T14:08:25Z</time>
      </trkpt>
      <trkpt lat="48.46872" lon="-2.47752">
        <ele>113</ele>
        <time>2016-06-07T14:08:28Z</time>
      </trkpt>
      <trkpt lat="48.46876" lon="-2.47753">
        <ele>113</ele>
        <time>2016-06-07T14:08:31Z</time>
      </trkpt>
      <trkpt lat="48.46881" lon="-2.47755">
        <ele>113</ele>
        <time>2016-06-07T14:08:35Z</time>
      </trkpt>
      <trkpt lat="48.46886" lon="-2.47754">
        <ele>113</ele>
        <time>2016-06-07T14:08:39Z</time>
      </trkpt>
      <trkpt lat="48.46889" lon="-2.47753">
        <ele>115</ele>
        <time>2016-06-07T14:08:42Z</time>
      </trkpt>
      <trkpt lat="48.4689" lon="-2.47751">
        <ele>116</ele>
        <time>2016-06-07T14:08:45Z</time>
      </trkpt>
      <trkpt lat="48.46893" lon="-2.47751">
        <ele>116</ele>
        <time>2016-06-07T14:08:49Z</time>
      </trkpt>
      <trkpt lat="48.46895" lon="-2.47747">
        <ele>116</ele>
        <time>2016-06-07T14:08:52Z</time>
      </trkpt>
      <trkpt lat="48.46899" lon="-2.47746">
        <ele>116</ele>
        <time>2016-06-07T14:08:56Z</time>
      </trkpt>
      <trkpt lat="48.46903" lon="-2.47746">
        <ele>113</ele>
        <time>2016-06-07T14:08:59Z</time>
      </trkpt>
      <trkpt lat="48.46906" lon="-2.47744">
        <ele>111</ele>
        <time>2016-06-07T14:09:02Z</time>
      </trkpt>
      <trkpt lat="48.4691" lon="-2.47743">
        <ele>111</ele>
        <time>2016-06-07T14:09:05Z</time>
      </trkpt>
      <trkpt lat="48.46913" lon="-2.47742">
        <ele>111</ele>
        <time>2016-06-07T14:09:08Z</time>
      </trkpt>
      <trkpt lat="48.46917" lon="-2.47742">
        <ele>111</ele>
        <time>2016-06-07T14:09:12Z</time>
      </trkpt>
      <trkpt lat="48.4692" lon="-2.47743">
        <ele>109</ele>
        <time>2016-06-07T14:09:16Z</time>
      </trkpt>
      <trkpt lat="48.46923" lon="-2.47741">
        <ele>108</ele>
        <time>2016-06-07T14:09:20Z</time>
      </trkpt>
      <trkpt lat="48.46925" lon="-2.47743">
        <ele>107</ele>
        <time>2016-06-07T14:09:23Z</time>
      </trkpt>
      <trkpt lat="48.46927" lon="-2.47742">
        <ele>107</ele>
        <time>2016-06-07T14:09:26Z</time>
      </trkpt>
      <trkpt lat="48.46932" lon="-2.47741">
        <ele>106</ele>
        <time>2016-06-07T14:09:30Z</time>
      </trkpt>
      <trkpt lat="48.46933" lon="-2.47738">
        <ele>106</ele>
        <time>2016-06-07T14:09:34Z</time>
      </trkpt>
      <trkpt lat="48.46934" lon="-2.47738">
        <ele>106</ele>
        <time>2016-06-07T14:09:37Z</time>
      </trkpt>
      <trkpt lat="48.46938" lon="-2.47737">
        <ele>106</ele>
        <time>2016-06-07T14:09:41Z</time>
      </trkpt>
      <trkpt lat="48.46943" lon="-2.47736">
        <ele>106</ele>
        <time>2016-06-07T14:09:44Z</time>
      </trkpt>
      <trkpt lat="48.46946" lon="-2.47732">
        <ele>108</ele>
        <time>2016-06-07T14:09:48Z</time>
      </trkpt>
      <trkpt lat="48.46951" lon="-2.47731">
        <ele>108</ele>
        <time>2016-06-07T14:09:52Z</time>
      </trkpt>
      <trkpt lat="48.46954" lon="-2.47732">
        <ele>108</ele>
        <time>2016-06-07T14:09:56Z</time>
      </trkpt>
      <trkpt lat="48.46957" lon="-2.47729">
        <ele>108</ele>
        <time>2016-06-07T14:09:59Z</time>
      </trkpt>
      <trkpt lat="48.46962" lon="-2.47727">
        <ele>108</ele>
        <time>2016-06-07T14:10:03Z</time>
      </trkpt>
      <trkpt lat="48.46967" lon="-2.47729">
        <ele>108</ele>
        <time>2016-06-07T14:10:07Z</time>
      </trkpt>
      <trkpt lat="48.46968" lon="-2.47726">
        <ele>108</ele>
        <time>2016-06-07T14:10:11Z</time>
      </trkpt>
      <trkpt lat="48.46966" lon="-2.47722">
        <ele>109</ele>
        <time>2016-06-07T14:10:15Z</time>
      </trkpt>
      <trkpt lat="48.46967" lon="-2.47724">
        <ele>110</ele>
        <time>2016-06-07T14:10:18Z</time>
      </trkpt>
      <trkpt lat="48.4697" lon="-2.47725">
        <ele>110</ele>
        <time>2016-06-07T14:10:21Z</time>
      </trkpt>
      <trkpt lat="48.46973" lon="-2.47725">
        <ele>110</ele>
        <time>2016-06-07T14:10:24Z</time>
      </trkpt>
      <trkpt lat="48.46977" lon="-2.47724">
        <ele>110</ele>
        <time>2016-06-07T14:10:29Z</time>
      </trkpt>
      <trkpt lat="48.46979" lon="-2.47724">
        <ele>110</ele>
        <time>2016-06-07T14:10:32Z</time>
      </trkpt>
      <trkpt lat="48.46982" lon="-2.47728">
        <ele>110</ele>
        <time>2016-06-07T14:10:38Z</time>
      </trkpt>
      <trkpt lat="48.46983" lon="-2.47727">
        <ele>110</ele>
        <time>2016-06-07T14:10:42Z</time>
      </trkpt>
      <trkpt lat="48.46984" lon="-2.47729">
        <ele>110</ele>
        <time>2016-06-07T14:10:46Z</time>
      </trkpt>
      <trkpt lat="48.46985" lon="-2.47726">
        <ele>110</ele>
        <time>2016-06-07T14:10:53Z</time>
      </trkpt>
      <trkpt lat="48.46986" lon="-2.47725">
        <ele>108</ele>
        <time>2016-06-07T14:10:57Z</time>
      </trkpt>
      <trkpt lat="48.46987" lon="-2.47726">
        <ele>105</ele>
        <time>2016-06-07T14:11:02Z</time>
      </trkpt>
      <trkpt lat="48.46989" lon="-2.47728">
        <ele>105</ele>
        <time>2016-06-07T14:11:05Z</time>
      </trkpt>
      <trkpt lat="48.46989" lon="-2.4773">
        <ele>105</ele>
        <time>2016-06-07T14:11:09Z</time>
      </trkpt>
      <trkpt lat="48.46991" lon="-2.47728">
        <ele>106</ele>
        <time>2016-06-07T14:11:16Z</time>
      </trkpt>
      <trkpt lat="48.46989" lon="-2.47729">
        <ele>110</ele>
        <time>2016-06-07T14:11:20Z</time>
      </trkpt>
      <trkpt lat="48.46987" lon="-2.47728">
        <ele>113</ele>
        <time>2016-06-07T14:11:23Z</time>
      </trkpt>
      <trkpt lat="48.46987" lon="-2.47731">
        <ele>113</ele>
        <time>2016-06-07T14:11:26Z</time>
      </trkpt>
      <trkpt lat="48.46987" lon="-2.47732">
        <ele>113</ele>
        <time>2016-06-07T14:11:31Z</time>
      </trkpt>
      <trkpt lat="48.46985" lon="-2.47737">
        <ele>113</ele>
        <time>2016-06-07T14:11:35Z</time>
      </trkpt>
      <trkpt lat="48.46986" lon="-2.47735">
        <ele>110</ele>
        <time>2016-06-07T14:11:40Z</time>
      </trkpt>
      <trkpt lat="48.46986" lon="-2.47729">
        <ele>110</ele>
        <time>2016-06-07T14:11:43Z</time>
      </trkpt>
      <trkpt lat="48.46988" lon="-2.47725">
        <ele>110</ele>
        <time>2016-06-07T14:11:47Z</time>
      </trkpt>
      <trkpt lat="48.4699" lon="-2.47724">
        <ele>110</ele>
        <time>2016-06-07T14:11:52Z</time>
      </trkpt>
      <trkpt lat="48.46989" lon="-2.47721">
        <ele>110</ele>
        <time>2016-06-07T14:11:55Z</time>
      </trkpt>
      <trkpt lat="48.46991" lon="-2.47718">
        <ele>108</ele>
        <time>2016-06-07T14:11:58Z</time>
      </trkpt>
      <trkpt lat="48.46993" lon="-2.47714">
        <ele>107</ele>
        <time>2016-06-07T14:12:02Z</time>
      </trkpt>
      <trkpt lat="48.46996" lon="-2.47714">
        <ele>107</ele>
        <time>2016-06-07T14:12:05Z</time>
      </trkpt>
      <trkpt lat="48.47" lon="-2.47716">
        <ele>107</ele>
        <time>2016-06-07T14:12:09Z</time>
      </trkpt>
      <trkpt lat="48.47" lon="-2.47713">
        <ele>107</ele>
        <time>2016-06-07T14:12:12Z</time>
      </trkpt>
      <trkpt lat="48.47002" lon="-2.47711">
        <ele>107</ele>
        <time>2016-06-07T14:12:16Z</time>
      </trkpt>
      <trkpt lat="48.47006" lon="-2.47712">
        <ele>107</ele>
        <time>2016-06-07T14:12:19Z</time>
      </trkpt>
      <trkpt lat="48.47009" lon="-2.47707">
        <ele>107</ele>
        <time>2016-06-07T14:12:23Z</time>
      </trkpt>
      <trkpt lat="48.47012" lon="-2.47706">
        <ele>107</ele>
        <time>2016-06-07T14:12:27Z</time>
      </trkpt>
      <trkpt lat="48.47015" lon="-2.4771">
        <ele>107</ele>
        <time>2016-06-07T14:12:30Z</time>
      </trkpt>
      <trkpt lat="48.4702" lon="-2.47709">
        <ele>107</ele>
        <time>2016-06-07T14:12:34Z</time>
      </trkpt>
      <trkpt lat="48.47025" lon="-2.47708">
        <ele>107</ele>
        <time>2016-06-07T14:12:38Z</time>
      </trkpt>
      <trkpt lat="48.47028" lon="-2.4771">
        <ele>107</ele>
        <time>2016-06-07T14:12:42Z</time>
      </trkpt>
      <trkpt lat="48.47032" lon="-2.4771">
        <ele>105</ele>
        <time>2016-06-07T14:12:45Z</time>
      </trkpt>
      <trkpt lat="48.47034" lon="-2.47708">
        <ele>105</ele>
        <time>2016-06-07T14:12:48Z</time>
      </trkpt>
      <trkpt lat="48.47037" lon="-2.47706">
        <ele>105</ele>
        <time>2016-06-07T14:12:52Z</time>
      </trkpt>
      <trkpt lat="48.47041" lon="-2.47705">
        <ele>105</ele>
        <time>2016-06-07T14:12:56Z</time>
      </trkpt>
      <trkpt lat="48.47044" lon="-2.47705">
        <ele>105</ele>
        <time>2016-06-07T14:12:59Z</time>
      </trkpt>
      <trkpt lat="48.47048" lon="-2.47704">
        <ele>105</ele>
        <time>2016-06-07T14:13:02Z</time>
      </trkpt>
      <trkpt lat="48.47052" lon="-2.47702">
        <ele>105</ele>
        <time>2016-06-07T14:13:06Z</time>
      </trkpt>
      <trkpt lat="48.47054" lon="-2.47701">
        <ele>105</ele>
        <time>2016-06-07T14:13:09Z</time>
      </trkpt>
      <trkpt lat="48.47057" lon="-2.47702">
        <ele>105</ele>
        <time>2016-06-07T14:13:12Z</time>
      </trkpt>
      <trkpt lat="48.4706" lon="-2.47701">
        <ele>105</ele>
        <time>2016-06-07T14:13:16Z</time>
      </trkpt>
      <trkpt lat="48.47062" lon="-2.47697">
        <ele>105</ele>
        <time>2016-06-07T14:13:20Z</time>
      </trkpt>
      <trkpt lat="48.47066" lon="-2.47696">
        <ele>105</ele>
        <time>2016-06-07T14:13:24Z</time>
      </trkpt>
      <trkpt lat="48.47068" lon="-2.47695">
        <ele>105</ele>
        <time>2016-06-07T14:13:28Z</time>
      </trkpt>
      <trkpt lat="48.47072" lon="-2.47696">
        <ele>105</ele>
        <time>2016-06-07T14:13:31Z</time>
      </trkpt>
      <trkpt lat="48.47075" lon="-2.47694">
        <ele>105</ele>
        <time>2016-06-07T14:13:35Z</time>
      </trkpt>
      <trkpt lat="48.47081" lon="-2.47692">
        <ele>105</ele>
        <time>2016-06-07T14:13:39Z</time>
      </trkpt>
      <trkpt lat="48.47085" lon="-2.47694">
        <ele>105</ele>
        <time>2016-06-07T14:13:43Z</time>
      </trkpt>
      <trkpt lat="48.47089" lon="-2.47692">
        <ele>103</ele>
        <time>2016-06-07T14:13:46Z</time>
      </trkpt>
      <trkpt lat="48.47092" lon="-2.47692">
        <ele>101</ele>
        <time>2016-06-07T14:13:50Z</time>
      </trkpt>
      <trkpt lat="48.47094" lon="-2.47692">
        <ele>101</ele>
        <time>2016-06-07T14:13:53Z</time>
      </trkpt>
      <trkpt lat="48.47099" lon="-2.47695">
        <ele>101</ele>
        <time>2016-06-07T14:13:56Z</time>
      </trkpt>
      <trkpt lat="48.47103" lon="-2.47696">
        <ele>100</ele>
        <time>2016-06-07T14:13:59Z</time>
      </trkpt>
      <trkpt lat="48.47104" lon="-2.47692">
        <ele>100</ele>
        <time>2016-06-07T14:14:02Z</time>
      </trkpt>
      <trkpt lat="48.47105" lon="-2.47686">
        <ele>100</ele>
        <time>2016-06-07T14:14:06Z</time>
      </trkpt>
      <trkpt lat="48.47108" lon="-2.47684">
        <ele>100</ele>
        <time>2016-06-07T14:14:10Z</time>
      </trkpt>
      <trkpt lat="48.47111" lon="-2.47681">
        <ele>100</ele>
        <time>2016-06-07T14:14:14Z</time>
      </trkpt>
      <trkpt lat="48.47113" lon="-2.47677">
        <ele>100</ele>
        <time>2016-06-07T14:14:17Z</time>
      </trkpt>
      <trkpt lat="48.47116" lon="-2.47676">
        <ele>100</ele>
        <time>2016-06-07T14:14:20Z</time>
      </trkpt>
      <trkpt lat="48.4712" lon="-2.47678">
        <ele>100</ele>
        <time>2016-06-07T14:14:24Z</time>
      </trkpt>
      <trkpt lat="48.47124" lon="-2.4768">
        <ele>100</ele>
        <time>2016-06-07T14:14:27Z</time>
      </trkpt>
      <trkpt lat="48.47127" lon="-2.47682">
        <ele>100</ele>
        <time>2016-06-07T14:14:30Z</time>
      </trkpt>
      <trkpt lat="48.4713" lon="-2.4768">
        <ele>100</ele>
        <time>2016-06-07T14:14:33Z</time>
      </trkpt>
      <trkpt lat="48.47133" lon="-2.4768">
        <ele>100</ele>
        <time>2016-06-07T14:14:36Z</time>
      </trkpt>
      <trkpt lat="48.47137" lon="-2.4768">
        <ele>100</ele>
        <time>2016-06-07T14:14:39Z</time>
      </trkpt>
      <trkpt lat="48.47141" lon="-2.47681">
        <ele>98</ele>
        <time>2016-06-07T14:14:43Z</time>
      </trkpt>
      <trkpt lat="48.47145" lon="-2.47681">
        <ele>97</ele>
        <time>2016-06-07T14:14:46Z</time>
      </trkpt>
      <trkpt lat="48.47149" lon="-2.4768">
        <ele>97</ele>
        <time>2016-06-07T14:14:50Z</time>
      </trkpt>
      <trkpt lat="48.47152" lon="-2.47681">
        <ele>96</ele>
        <time>2016-06-07T14:14:53Z</time>
      </trkpt>
      <trkpt lat="48.47156" lon="-2.47682">
        <ele>93</ele>
        <time>2016-06-07T14:14:56Z</time>
      </trkpt>
      <trkpt lat="48.47158" lon="-2.47684">
        <ele>90</ele>
        <time>2016-06-07T14:15:00Z</time>
      </trkpt>
      <trkpt lat="48.4716" lon="-2.47683">
        <ele>87</ele>
        <time>2016-06-07T14:15:03Z</time>
      </trkpt>
      <trkpt lat="48.47163" lon="-2.47678">
        <ele>84</ele>
        <time>2016-06-07T14:15:07Z</time>
      </trkpt>
      <trkpt lat="48.47164" lon="-2.47674">
        <ele>87</ele>
        <time>2016-06-07T14:15:13Z</time>
      </trkpt>
      <trkpt lat="48.47169" lon="-2.47673">
        <ele>91</ele>
        <time>2016-06-07T14:15:17Z</time>
      </trkpt>
      <trkpt lat="48.47172" lon="-2.47673">
        <ele>91</ele>
        <time>2016-06-07T14:15:21Z</time>
      </trkpt>
      <trkpt lat="48.47175" lon="-2.47673">
        <ele>91</ele>
        <time>2016-06-07T14:15:24Z</time>
      </trkpt>
      <trkpt lat="48.47178" lon="-2.47672">
        <ele>91</ele>
        <time>2016-06-07T14:15:27Z</time>
      </trkpt>
      <trkpt lat="48.47181" lon="-2.47671">
        <ele>91</ele>
        <time>2016-06-07T14:15:31Z</time>
      </trkpt>
      <trkpt lat="48.47184" lon="-2.47671">
        <ele>91</ele>
        <time>2016-06-07T14:15:34Z</time>
      </trkpt>
      <trkpt lat="48.47188" lon="-2.4767">
        <ele>91</ele>
        <time>2016-06-07T14:15:37Z</time>
      </trkpt>
      <trkpt lat="48.47192" lon="-2.47668">
        <ele>91</ele>
        <time>2016-06-07T14:15:40Z</time>
      </trkpt>
      <trkpt lat="48.47195" lon="-2.47668">
        <ele>91</ele>
        <time>2016-06-07T14:15:43Z</time>
      </trkpt>
      <trkpt lat="48.47199" lon="-2.47666">
        <ele>91</ele>
        <time>2016-06-07T14:15:46Z</time>
      </trkpt>
      <trkpt lat="48.47203" lon="-2.47664">
        <ele>91</ele>
        <time>2016-06-07T14:15:50Z</time>
      </trkpt>
      <trkpt lat="48.47206" lon="-2.47663">
        <ele>91</ele>
        <time>2016-06-07T14:15:54Z</time>
      </trkpt>
      <trkpt lat="48.4721" lon="-2.47662">
        <ele>91</ele>
        <time>2016-06-07T14:15:57Z</time>
      </trkpt>
      <trkpt lat="48.47213" lon="-2.47661">
        <ele>91</ele>
        <time>2016-06-07T14:16:00Z</time>
      </trkpt>
      <trkpt lat="48.47215" lon="-2.47661">
        <ele>91</ele>
        <time>2016-06-07T14:16:03Z</time>
      </trkpt>
      <trkpt lat="48.47219" lon="-2.47661">
        <ele>91</ele>
        <time>2016-06-07T14:16:08Z</time>
      </trkpt>
      <trkpt lat="48.47224" lon="-2.4766">
        <ele>93</ele>
        <time>2016-06-07T14:16:12Z</time>
      </trkpt>
      <trkpt lat="48.47228" lon="-2.47659">
        <ele>93</ele>
        <time>2016-06-07T14:16:16Z</time>
      </trkpt>
      <trkpt lat="48.47232" lon="-2.47659">
        <ele>93</ele>
        <time>2016-06-07T14:16:19Z</time>
      </trkpt>
      <trkpt lat="48.47236" lon="-2.47658">
        <ele>93</ele>
        <time>2016-06-07T14:16:22Z</time>
      </trkpt>
      <trkpt lat="48.47241" lon="-2.47657">
        <ele>93</ele>
        <time>2016-06-07T14:16:25Z</time>
      </trkpt>
      <trkpt lat="48.47245" lon="-2.47656">
        <ele>93</ele>
        <time>2016-06-07T14:16:28Z</time>
      </trkpt>
      <trkpt lat="48.47249" lon="-2.47654">
        <ele>93</ele>
        <time>2016-06-07T14:16:31Z</time>
      </trkpt>
      <trkpt lat="48.47253" lon="-2.47652">
        <ele>93</ele>
        <time>2016-06-07T14:16:34Z</time>
      </trkpt>
      <trkpt lat="48.47257" lon="-2.47651">
        <ele>93</ele>
        <time>2016-06-07T14:16:37Z</time>
      </trkpt>
      <trkpt lat="48.47261" lon="-2.4765">
        <ele>93</ele>
        <time>2016-06-07T14:16:40Z</time>
      </trkpt>
      <trkpt lat="48.47267" lon="-2.47649">
        <ele>93</ele>
        <time>2016-06-07T14:16:43Z</time>
      </trkpt>
      <trkpt lat="48.47271" lon="-2.47647">
        <ele>93</ele>
        <time>2016-06-07T14:16:46Z</time>
      </trkpt>
      <trkpt lat="48.47274" lon="-2.47647">
        <ele>91</ele>
        <time>2016-06-07T14:16:49Z</time>
      </trkpt>
      <trkpt lat="48.47278" lon="-2.47646">
        <ele>91</ele>
        <time>2016-06-07T14:16:52Z</time>
      </trkpt>
      <trkpt lat="48.47281" lon="-2.47646">
        <ele>91</ele>
        <time>2016-06-07T14:16:55Z</time>
      </trkpt>
      <trkpt lat="48.47284" lon="-2.47645">
        <ele>91</ele>
        <time>2016-06-07T14:16:58Z</time>
      </trkpt>
      <trkpt lat="48.4729" lon="-2.47644">
        <ele>91</ele>
        <time>2016-06-07T14:17:01Z</time>
      </trkpt>
      <trkpt lat="48.47291" lon="-2.47642">
        <ele>91</ele>
        <time>2016-06-07T14:17:05Z</time>
      </trkpt>
      <trkpt lat="48.47291" lon="-2.47644">
        <ele>91</ele>
        <time>2016-06-07T14:17:09Z</time>
      </trkpt>
      <trkpt lat="48.47292" lon="-2.47645">
        <ele>91</ele>
        <time>2016-06-07T14:17:12Z</time>
      </trkpt>
      <trkpt lat="48.47291" lon="-2.47649">
        <ele>91</ele>
        <time>2016-06-07T14:17:16Z</time>
      </trkpt>
      <trkpt lat="48.47288" lon="-2.47648">
        <ele>88</ele>
        <time>2016-06-07T14:17:23Z</time>
      </trkpt>
      <trkpt lat="48.47289" lon="-2.47649">
        <ele>88</ele>
        <time>2016-06-07T14:17:33Z</time>
      </trkpt>
      <trkpt lat="48.4729" lon="-2.47651">
        <ele>88</ele>
        <time>2016-06-07T14:17:37Z</time>
      </trkpt>
      <trkpt lat="48.47294" lon="-2.47654">
        <ele>89</ele>
        <time>2016-06-07T14:17:41Z</time>
      </trkpt>
      <trkpt lat="48.47296" lon="-2.47653">
        <ele>89</ele>
        <time>2016-06-07T14:17:48Z</time>
      </trkpt>
      <trkpt lat="48.47295" lon="-2.47651">
        <ele>89</ele>
        <time>2016-06-07T14:17:51Z</time>
      </trkpt>
      <trkpt lat="48.47294" lon="-2.47652">
        <ele>89</ele>
        <time>2016-06-07T14:17:54Z</time>
      </trkpt>
      <trkpt lat="48.47295" lon="-2.47652">
        <ele>89</ele>
        <time>2016-06-07T14:17:57Z</time>
      </trkpt>
      <trkpt lat="48.47297" lon="-2.47653">
        <ele>89</ele>
        <time>2016-06-07T14:18:00Z</time>
      </trkpt>
      <trkpt lat="48.47298" lon="-2.47654">
        <ele>90</ele>
        <time>2016-06-07T14:18:03Z</time>
      </trkpt>
      <trkpt lat="48.47299" lon="-2.47654">
        <ele>91</ele>
        <time>2016-06-07T14:18:06Z</time>
      </trkpt>
      <trkpt lat="48.47301" lon="-2.47654">
        <ele>92</ele>
        <time>2016-06-07T14:18:09Z</time>
      </trkpt>
      <trkpt lat="48.47302" lon="-2.47654">
        <ele>92</ele>
        <time>2016-06-07T14:18:12Z</time>
      </trkpt>
      <trkpt lat="48.47303" lon="-2.47654">
        <ele>92</ele>
        <time>2016-06-07T14:18:15Z</time>
      </trkpt>
      <trkpt lat="48.47304" lon="-2.47656">
        <ele>93</ele>
        <time>2016-06-07T14:18:19Z</time>
      </trkpt>
      <trkpt lat="48.47304" lon="-2.47662">
        <ele>93</ele>
        <time>2016-06-07T14:18:22Z</time>
      </trkpt>
      <trkpt lat="48.47302" lon="-2.47669">
        <ele>93</ele>
        <time>2016-06-07T14:18:25Z</time>
      </trkpt>
      <trkpt lat="48.47301" lon="-2.47675">
        <ele>93</ele>
        <time>2016-06-07T14:18:28Z</time>
      </trkpt>
      <trkpt lat="48.47299" lon="-2.47681">
        <ele>93</ele>
        <time>2016-06-07T14:18:31Z</time>
      </trkpt>
      <trkpt lat="48.47296" lon="-2.47684">
        <ele>93</ele>
        <time>2016-06-07T14:18:34Z</time>
      </trkpt>
      <trkpt lat="48.47292" lon="-2.47685">
        <ele>92</ele>
        <time>2016-06-07T14:18:39Z</time>
      </trkpt>
      <trkpt lat="48.47291" lon="-2.47686">
        <ele>92</ele>
        <time>2016-06-07T14:18:42Z</time>
      </trkpt>
      <trkpt lat="48.4729" lon="-2.47687">
        <ele>92</ele>
        <time>2016-06-07T14:18:47Z</time>
      </trkpt>
      <trkpt lat="48.47289" lon="-2.47688">
        <ele>91</ele>
        <time>2016-06-07T14:18:51Z</time>
      </trkpt>
      <trkpt lat="48.47287" lon="-2.47689">
        <ele>89</ele>
        <time>2016-06-07T14:18:55Z</time>
      </trkpt>
      <trkpt lat="48.47286" lon="-2.47691">
        <ele>88</ele>
        <time>2016-06-07T14:18:58Z</time>
      </trkpt>
      <trkpt lat="48.47285" lon="-2.47693">
        <ele>85</ele>
        <time>2016-06-07T14:19:02Z</time>
      </trkpt>
      <trkpt lat="48.47284" lon="-2.47693">
        <ele>83</ele>
        <time>2016-06-07T14:19:07Z</time>
      </trkpt>
      <trkpt lat="48.47282" lon="-2.47694">
        <ele>81</ele>
        <time>2016-06-07T14:19:11Z</time>
      </trkpt>
      <trkpt lat="48.47282" lon="-2.47693">
        <ele>79</ele>
        <time>2016-06-07T14:19:17Z</time>
      </trkpt>
      <trkpt lat="48.47284" lon="-2.47692">
        <ele>79</ele>
        <time>2016-06-07T14:19:23Z</time>
      </trkpt>
      <trkpt lat="48.47284" lon="-2.47693">
        <ele>80</ele>
        <time>2016-06-07T14:19:34Z</time>
      </trkpt>
      <trkpt lat="48.47285" lon="-2.47691">
        <ele>84</ele>
        <time>2016-06-07T14:19:42Z</time>
      </trkpt>
      <trkpt lat="48.47286" lon="-2.47691">
        <ele>89</ele>
        <time>2016-06-07T14:19:54Z</time>
      </trkpt>
      <trkpt lat="48.47287" lon="-2.47689">
        <ele>91</ele>
        <time>2016-06-07T14:20:01Z</time>
      </trkpt>
      <trkpt lat="48.47286" lon="-2.47691">
        <ele>93</ele>
        <time>2016-06-07T14:20:08Z</time>
      </trkpt>
      <trkpt lat="48.47285" lon="-2.47693">
        <ele>93</ele>
        <time>2016-06-07T14:20:11Z</time>
      </trkpt>
      <trkpt lat="48.47285" lon="-2.47692">
        <ele>93</ele>
        <time>2016-06-07T14:20:17Z</time>
      </trkpt>
      <trkpt lat="48.47287" lon="-2.4769">
        <ele>94</ele>
        <time>2016-06-07T14:20:26Z</time>
      </trkpt>
      <trkpt lat="48.47288" lon="-2.47689">
        <ele>94</ele>
        <time>2016-06-07T14:20:31Z</time>
      </trkpt>
      <trkpt lat="48.47287" lon="-2.47691">
        <ele>95</ele>
        <time>2016-06-07T14:20:37Z</time>
      </trkpt>
      <trkpt lat="48.47287" lon="-2.4769">
        <ele>95</ele>
        <time>2016-06-07T14:20:50Z</time>
      </trkpt>
      <trkpt lat="48.47288" lon="-2.47689">
        <ele>95</ele>
        <time>2016-06-07T14:21:00Z</time>
      </trkpt>
      <trkpt lat="48.47289" lon="-2.47687">
        <ele>95</ele>
        <time>2016-06-07T14:21:06Z</time>
      </trkpt>
      <trkpt lat="48.47287" lon="-2.47688">
        <ele>95</ele>
        <time>2016-06-07T14:21:20Z</time>
      </trkpt>
      <trkpt lat="48.47289" lon="-2.47686">
        <ele>95</ele>
        <time>2016-06-07T14:21:26Z</time>
      </trkpt>
      <trkpt lat="48.4729" lon="-2.4768">
        <ele>95</ele>
        <time>2016-06-07T14:21:29Z</time>
      </trkpt>
      <trkpt lat="48.4729" lon="-2.47674">
        <ele>95</ele>
        <time>2016-06-07T14:21:32Z</time>
      </trkpt>
      <trkpt lat="48.4729" lon="-2.47667">
        <ele>95</ele>
        <time>2016-06-07T14:21:35Z</time>
      </trkpt>
      <trkpt lat="48.4729" lon="-2.4766">
        <ele>95</ele>
        <time>2016-06-07T14:21:38Z</time>
      </trkpt>
      <trkpt lat="48.47289" lon="-2.47655">
        <ele>95</ele>
        <time>2016-06-07T14:21:41Z</time>
      </trkpt>
      <trkpt lat="48.47288" lon="-2.47651">
        <ele>95</ele>
        <time>2016-06-07T14:21:44Z</time>
      </trkpt>
      <trkpt lat="48.47285" lon="-2.47649">
        <ele>95</ele>
        <time>2016-06-07T14:21:48Z</time>
      </trkpt>
      <trkpt lat="48.47282" lon="-2.47648">
        <ele>95</ele>
        <time>2016-06-07T14:21:53Z</time>
      </trkpt>
      <trkpt lat="48.47278" lon="-2.4765">
        <ele>95</ele>
        <time>2016-06-07T14:21:56Z</time>
      </trkpt>
      <trkpt lat="48.47274" lon="-2.47652">
        <ele>93</ele>
        <time>2016-06-07T14:22:00Z</time>
      </trkpt>
      <trkpt lat="48.4727" lon="-2.47653">
        <ele>92</ele>
        <time>2016-06-07T14:22:03Z</time>
      </trkpt>
      <trkpt lat="48.47267" lon="-2.47654">
        <ele>91</ele>
        <time>2016-06-07T14:22:06Z</time>
      </trkpt>
      <trkpt lat="48.47263" lon="-2.47655">
        <ele>90</ele>
        <time>2016-06-07T14:22:10Z</time>
      </trkpt>
      <trkpt lat="48.47259" lon="-2.47656">
        <ele>90</ele>
        <time>2016-06-07T14:22:13Z</time>
      </trkpt>
      <trkpt lat="48.47255" lon="-2.47657">
        <ele>90</ele>
        <time>2016-06-07T14:22:16Z</time>
      </trkpt>
      <trkpt lat="48.47252" lon="-2.47658">
        <ele>90</ele>
        <time>2016-06-07T14:22:19Z</time>
      </trkpt>
      <trkpt lat="48.47247" lon="-2.4766">
        <ele>90</ele>
        <time>2016-06-07T14:22:23Z</time>
      </trkpt>
      <trkpt lat="48.47243" lon="-2.47661">
        <ele>89</ele>
        <time>2016-06-07T14:22:26Z</time>
      </trkpt>
      <trkpt lat="48.47239" lon="-2.47661">
        <ele>87</ele>
        <time>2016-06-07T14:22:30Z</time>
      </trkpt>
      <trkpt lat="48.47236" lon="-2.47662">
        <ele>86</ele>
        <time>2016-06-07T14:22:33Z</time>
      </trkpt>
      <trkpt lat="48.47232" lon="-2.47663">
        <ele>85</ele>
        <time>2016-06-07T14:22:37Z</time>
      </trkpt>
      <trkpt lat="48.47229" lon="-2.47663">
        <ele>85</ele>
        <time>2016-06-07T14:22:41Z</time>
      </trkpt>
      <trkpt lat="48.47226" lon="-2.47664">
        <ele>85</ele>
        <time>2016-06-07T14:22:44Z</time>
      </trkpt>
      <trkpt lat="48.47222" lon="-2.47664">
        <ele>85</ele>
        <time>2016-06-07T14:22:48Z</time>
      </trkpt>
      <trkpt lat="48.47219" lon="-2.47666">
        <ele>85</ele>
        <time>2016-06-07T14:22:52Z</time>
      </trkpt>
      <trkpt lat="48.47215" lon="-2.47668">
        <ele>85</ele>
        <time>2016-06-07T14:22:55Z</time>
      </trkpt>
      <trkpt lat="48.47212" lon="-2.47667">
        <ele>85</ele>
        <time>2016-06-07T14:22:59Z</time>
      </trkpt>
      <trkpt lat="48.47209" lon="-2.47667">
        <ele>85</ele>
        <time>2016-06-07T14:23:02Z</time>
      </trkpt>
      <trkpt lat="48.47205" lon="-2.47667">
        <ele>84</ele>
        <time>2016-06-07T14:23:05Z</time>
      </trkpt>
      <trkpt lat="48.47201" lon="-2.47669">
        <ele>84</ele>
        <time>2016-06-07T14:23:08Z</time>
      </trkpt>
      <trkpt lat="48.47197" lon="-2.47671">
        <ele>84</ele>
        <time>2016-06-07T14:23:11Z</time>
      </trkpt>
      <trkpt lat="48.47192" lon="-2.47673">
        <ele>83</ele>
        <time>2016-06-07T14:23:15Z</time>
      </trkpt>
      <trkpt lat="48.47188" lon="-2.47675">
        <ele>82</ele>
        <time>2016-06-07T14:23:19Z</time>
      </trkpt>
      <trkpt lat="48.47185" lon="-2.47676">
        <ele>82</ele>
        <time>2016-06-07T14:23:22Z</time>
      </trkpt>
      <trkpt lat="48.47182" lon="-2.47679">
        <ele>82</ele>
        <time>2016-06-07T14:23:25Z</time>
      </trkpt>
      <trkpt lat="48.47178" lon="-2.47681">
        <ele>82</ele>
        <time>2016-06-07T14:23:28Z</time>
      </trkpt>
      <trkpt lat="48.47175" lon="-2.47681">
        <ele>82</ele>
        <time>2016-06-07T14:23:31Z</time>
      </trkpt>
      <trkpt lat="48.47171" lon="-2.47683">
        <ele>82</ele>
        <time>2016-06-07T14:23:35Z</time>
      </trkpt>
      <trkpt lat="48.47167" lon="-2.47686">
        <ele>82</ele>
        <time>2016-06-07T14:23:39Z</time>
      </trkpt>
      <trkpt lat="48.47167" lon="-2.4769">
        <ele>82</ele>
        <time>2016-06-07T14:23:42Z</time>
      </trkpt>
      <trkpt lat="48.47167" lon="-2.47696">
        <ele>82</ele>
        <time>2016-06-07T14:23:46Z</time>
      </trkpt>
      <trkpt lat="48.47166" lon="-2.47702">
        <ele>85</ele>
        <time>2016-06-07T14:23:50Z</time>
      </trkpt>
      <trkpt lat="48.47166" lon="-2.47706">
        <ele>86</ele>
        <time>2016-06-07T14:23:53Z</time>
      </trkpt>
      <trkpt lat="48.47166" lon="-2.4771">
        <ele>89</ele>
        <time>2016-06-07T14:23:57Z</time>
      </trkpt>
      <trkpt lat="48.47167" lon="-2.47715">
        <ele>92</ele>
        <time>2016-06-07T14:24:00Z</time>
      </trkpt>
      <trkpt lat="48.47166" lon="-2.4772">
        <ele>94</ele>
        <time>2016-06-07T14:24:03Z</time>
      </trkpt>
      <trkpt lat="48.47165" lon="-2.47724">
        <ele>94</ele>
        <time>2016-06-07T14:24:06Z</time>
      </trkpt>
      <trkpt lat="48.47165" lon="-2.47729">
        <ele>96</ele>
        <time>2016-06-07T14:24:10Z</time>
      </trkpt>
      <trkpt lat="48.47165" lon="-2.47734">
        <ele>97</ele>
        <time>2016-06-07T14:24:13Z</time>
      </trkpt>
      <trkpt lat="48.47163" lon="-2.47741">
        <ele>98</ele>
        <time>2016-06-07T14:24:16Z</time>
      </trkpt>
      <trkpt lat="48.4716" lon="-2.47747">
        <ele>99</ele>
        <time>2016-06-07T14:24:20Z</time>
      </trkpt>
      <trkpt lat="48.47159" lon="-2.47751">
        <ele>99</ele>
        <time>2016-06-07T14:24:24Z</time>
      </trkpt>
      <trkpt lat="48.47158" lon="-2.47756">
        <ele>99</ele>
        <time>2016-06-07T14:24:27Z</time>
      </trkpt>
      <trkpt lat="48.47157" lon="-2.47761">
        <ele>99</ele>
        <time>2016-06-07T14:24:30Z</time>
      </trkpt>
      <trkpt lat="48.47155" lon="-2.47767">
        <ele>100</ele>
        <time>2016-06-07T14:24:34Z</time>
      </trkpt>
      <trkpt lat="48.47154" lon="-2.47772">
        <ele>100</ele>
        <time>2016-06-07T14:24:37Z</time>
      </trkpt>
      <trkpt lat="48.47153" lon="-2.47776">
        <ele>100</ele>
        <time>2016-06-07T14:24:40Z</time>
      </trkpt>
      <trkpt lat="48.47151" lon="-2.47782">
        <ele>100</ele>
        <time>2016-06-07T14:24:44Z</time>
      </trkpt>
      <trkpt lat="48.47149" lon="-2.47787">
        <ele>100</ele>
        <time>2016-06-07T14:24:48Z</time>
      </trkpt>
      <trkpt lat="48.47148" lon="-2.47793">
        <ele>100</ele>
        <time>2016-06-07T14:24:51Z</time>
      </trkpt>
      <trkpt lat="48.47146" lon="-2.47797">
        <ele>100</ele>
        <time>2016-06-07T14:24:54Z</time>
      </trkpt>
      <trkpt lat="48.47144" lon="-2.47801">
        <ele>98</ele>
        <time>2016-06-07T14:24:58Z</time>
      </trkpt>
      <trkpt lat="48.47143" lon="-2.47806">
        <ele>94</ele>
        <time>2016-06-07T14:25:02Z</time>
      </trkpt>
      <trkpt lat="48.47142" lon="-2.47811">
        <ele>93</ele>
        <time>2016-06-07T14:25:05Z</time>
      </trkpt>
      <trkpt lat="48.47141" lon="-2.47815">
        <ele>92</ele>
        <time>2016-06-07T14:25:08Z</time>
      </trkpt>
      <trkpt lat="48.47138" lon="-2.47819">
        <ele>90</ele>
        <time>2016-06-07T14:25:12Z</time>
      </trkpt>
      <trkpt lat="48.47134" lon="-2.47824">
        <ele>89</ele>
        <time>2016-06-07T14:25:15Z</time>
      </trkpt>
      <trkpt lat="48.47132" lon="-2.47828">
        <ele>88</ele>
        <time>2016-06-07T14:25:18Z</time>
      </trkpt>
      <trkpt lat="48.47131" lon="-2.47834">
        <ele>88</ele>
        <time>2016-06-07T14:25:22Z</time>
      </trkpt>
      <trkpt lat="48.47132" lon="-2.47842">
        <ele>88</ele>
        <time>2016-06-07T14:25:26Z</time>
      </trkpt>
      <trkpt lat="48.47131" lon="-2.47848">
        <ele>88</ele>
        <time>2016-06-07T14:25:29Z</time>
      </trkpt>
      <trkpt lat="48.47129" lon="-2.47853">
        <ele>88</ele>
        <time>2016-06-07T14:25:32Z</time>
      </trkpt>
      <trkpt lat="48.47128" lon="-2.47859">
        <ele>88</ele>
        <time>2016-06-07T14:25:36Z</time>
      </trkpt>
      <trkpt lat="48.47126" lon="-2.47865">
        <ele>88</ele>
        <time>2016-06-07T14:25:40Z</time>
      </trkpt>
      <trkpt lat="48.47127" lon="-2.47869">
        <ele>88</ele>
        <time>2016-06-07T14:25:43Z</time>
      </trkpt>
      <trkpt lat="48.47126" lon="-2.47873">
        <ele>89</ele>
        <time>2016-06-07T14:25:46Z</time>
      </trkpt>
      <trkpt lat="48.47124" lon="-2.47878">
        <ele>92</ele>
        <time>2016-06-07T14:25:49Z</time>
      </trkpt>
      <trkpt lat="48.47124" lon="-2.47882">
        <ele>93</ele>
        <time>2016-06-07T14:25:52Z</time>
      </trkpt>
      <trkpt lat="48.47122" lon="-2.47887">
        <ele>94</ele>
        <time>2016-06-07T14:25:55Z</time>
      </trkpt>
      <trkpt lat="48.47122" lon="-2.47894">
        <ele>95</ele>
        <time>2016-06-07T14:25:58Z</time>
      </trkpt>
      <trkpt lat="48.4712" lon="-2.47898">
        <ele>96</ele>
        <time>2016-06-07T14:26:02Z</time>
      </trkpt>
      <trkpt lat="48.47118" lon="-2.47904">
        <ele>96</ele>
        <time>2016-06-07T14:26:06Z</time>
      </trkpt>
      <trkpt lat="48.47118" lon="-2.47908">
        <ele>96</ele>
        <time>2016-06-07T14:26:09Z</time>
      </trkpt>
      <trkpt lat="48.47116" lon="-2.47914">
        <ele>96</ele>
        <time>2016-06-07T14:26:12Z</time>
      </trkpt>
      <trkpt lat="48.47116" lon="-2.47921">
        <ele>98</ele>
        <time>2016-06-07T14:26:16Z</time>
      </trkpt>
      <trkpt lat="48.47116" lon="-2.47925">
        <ele>102</ele>
        <time>2016-06-07T14:26:20Z</time>
      </trkpt>
      <trkpt lat="48.47117" lon="-2.4793">
        <ele>106</ele>
        <time>2016-06-07T14:26:24Z</time>
      </trkpt>
      <trkpt lat="48.47116" lon="-2.47935">
        <ele>110</ele>
        <time>2016-06-07T14:26:28Z</time>
      </trkpt>
      <trkpt lat="48.47116" lon="-2.4794">
        <ele>113</ele>
        <time>2016-06-07T14:26:31Z</time>
      </trkpt>
      <trkpt lat="48.47114" lon="-2.47946">
        <ele>117</ele>
        <time>2016-06-07T14:26:35Z</time>
      </trkpt>
      <trkpt lat="48.47112" lon="-2.47951">
        <ele>118</ele>
        <time>2016-06-07T14:26:38Z</time>
      </trkpt>
      <trkpt lat="48.47112" lon="-2.47956">
        <ele>119</ele>
        <time>2016-06-07T14:26:41Z</time>
      </trkpt>
      <trkpt lat="48.47109" lon="-2.4796">
        <ele>122</ele>
        <time>2016-06-07T14:26:45Z</time>
      </trkpt>
      <trkpt lat="48.47108" lon="-2.47965">
        <ele>122</ele>
        <time>2016-06-07T14:26:48Z</time>
      </trkpt>
      <trkpt lat="48.47108" lon="-2.4797">
        <ele>123</ele>
        <time>2016-06-07T14:26:51Z</time>
      </trkpt>
      <trkpt lat="48.47107" lon="-2.47976">
        <ele>123</ele>
        <time>2016-06-07T14:26:55Z</time>
      </trkpt>
      <trkpt lat="48.47105" lon="-2.47982">
        <ele>123</ele>
        <time>2016-06-07T14:26:58Z</time>
      </trkpt>
      <trkpt lat="48.47104" lon="-2.47988">
        <ele>123</ele>
        <time>2016-06-07T14:27:01Z</time>
      </trkpt>
      <trkpt lat="48.47102" lon="-2.47991">
        <ele>123</ele>
        <time>2016-06-07T14:27:04Z</time>
      </trkpt>
      <trkpt lat="48.471" lon="-2.47996">
        <ele>123</ele>
        <time>2016-06-07T14:27:08Z</time>
      </trkpt>
      <trkpt lat="48.471" lon="-2.48002">
        <ele>123</ele>
        <time>2016-06-07T14:27:11Z</time>
      </trkpt>
      <trkpt lat="48.471" lon="-2.48008">
        <ele>123</ele>
        <time>2016-06-07T14:27:15Z</time>
      </trkpt>
      <trkpt lat="48.471" lon="-2.48016">
        <ele>123</ele>
        <time>2016-06-07T14:27:19Z</time>
      </trkpt>
      <trkpt lat="48.471" lon="-2.48023">
        <ele>123</ele>
        <time>2016-06-07T14:27:23Z</time>
      </trkpt>
      <trkpt lat="48.47099" lon="-2.48028">
        <ele>123</ele>
        <time>2016-06-07T14:27:26Z</time>
      </trkpt>
      <trkpt lat="48.47097" lon="-2.48035">
        <ele>123</ele>
        <time>2016-06-07T14:27:30Z</time>
      </trkpt>
      <trkpt lat="48.47097" lon="-2.48039">
        <ele>123</ele>
        <time>2016-06-07T14:27:33Z</time>
      </trkpt>
      <trkpt lat="48.47095" lon="-2.48048">
        <ele>123</ele>
        <time>2016-06-07T14:27:37Z</time>
      </trkpt>
      <trkpt lat="48.47092" lon="-2.48056">
        <ele>124</ele>
        <time>2016-06-07T14:27:41Z</time>
      </trkpt>
      <trkpt lat="48.4709" lon="-2.48063">
        <ele>125</ele>
        <time>2016-06-07T14:27:44Z</time>
      </trkpt>
      <trkpt lat="48.47091" lon="-2.48067">
        <ele>125</ele>
        <time>2016-06-07T14:27:47Z</time>
      </trkpt>
      <trkpt lat="48.47092" lon="-2.48076">
        <ele>126</ele>
        <time>2016-06-07T14:27:51Z</time>
      </trkpt>
      <trkpt lat="48.47091" lon="-2.48083">
        <ele>126</ele>
        <time>2016-06-07T14:27:54Z</time>
      </trkpt>
      <trkpt lat="48.47089" lon="-2.48094">
        <ele>126</ele>
        <time>2016-06-07T14:27:58Z</time>
      </trkpt>
      <trkpt lat="48.47089" lon="-2.48102">
        <ele>129</ele>
        <time>2016-06-07T14:28:01Z</time>
      </trkpt>
      <trkpt lat="48.47088" lon="-2.48108">
        <ele>129</ele>
        <time>2016-06-07T14:28:04Z</time>
      </trkpt>
      <trkpt lat="48.47085" lon="-2.48114">
        <ele>129</ele>
        <time>2016-06-07T14:28:07Z</time>
      </trkpt>
      <trkpt lat="48.47083" lon="-2.48124">
        <ele>129</ele>
        <time>2016-06-07T14:28:10Z</time>
      </trkpt>
      <trkpt lat="48.47081" lon="-2.48134">
        <ele>127</ele>
        <time>2016-06-07T14:28:14Z</time>
      </trkpt>
      <trkpt lat="48.47079" lon="-2.48142">
        <ele>127</ele>
        <time>2016-06-07T14:28:17Z</time>
      </trkpt>
      <trkpt lat="48.47077" lon="-2.48152">
        <ele>127</ele>
        <time>2016-06-07T14:28:21Z</time>
      </trkpt>
      <trkpt lat="48.47075" lon="-2.48161">
        <ele>127</ele>
        <time>2016-06-07T14:28:25Z</time>
      </trkpt>
      <trkpt lat="48.47073" lon="-2.48168">
        <ele>127</ele>
        <time>2016-06-07T14:28:28Z</time>
      </trkpt>
      <trkpt lat="48.47072" lon="-2.48175">
        <ele>127</ele>
        <time>2016-06-07T14:28:31Z</time>
      </trkpt>
      <trkpt lat="48.47071" lon="-2.48181">
        <ele>127</ele>
        <time>2016-06-07T14:28:34Z</time>
      </trkpt>
      <trkpt lat="48.4707" lon="-2.48188">
        <ele>127</ele>
        <time>2016-06-07T14:28:37Z</time>
      </trkpt>
      <trkpt lat="48.47069" lon="-2.482">
        <ele>127</ele>
        <time>2016-06-07T14:28:41Z</time>
      </trkpt>
      <trkpt lat="48.47069" lon="-2.48211">
        <ele>131</ele>
        <time>2016-06-07T14:28:45Z</time>
      </trkpt>
      <trkpt lat="48.47063" lon="-2.48223">
        <ele>130</ele>
        <time>2016-06-07T14:28:49Z</time>
      </trkpt>
      <trkpt lat="48.47062" lon="-2.48229">
        <ele>127</ele>
        <time>2016-06-07T14:28:52Z</time>
      </trkpt>
      <trkpt lat="48.47061" lon="-2.48239">
        <ele>124</ele>
        <time>2016-06-07T14:28:57Z</time>
      </trkpt>
      <trkpt lat="48.47059" lon="-2.48246">
        <ele>123</ele>
        <time>2016-06-07T14:29:00Z</time>
      </trkpt>
      <trkpt lat="48.47057" lon="-2.48256">
        <ele>120</ele>
        <time>2016-06-07T14:29:04Z</time>
      </trkpt>
      <trkpt lat="48.47054" lon="-2.48263">
        <ele>118</ele>
        <time>2016-06-07T14:29:07Z</time>
      </trkpt>
      <trkpt lat="48.47053" lon="-2.4827">
        <ele>116</ele>
        <time>2016-06-07T14:29:11Z</time>
      </trkpt>
      <trkpt lat="48.47053" lon="-2.48275">
        <ele>114</ele>
        <time>2016-06-07T14:29:14Z</time>
      </trkpt>
      <trkpt lat="48.47052" lon="-2.4828">
        <ele>109</ele>
        <time>2016-06-07T14:29:20Z</time>
      </trkpt>
      <trkpt lat="48.47053" lon="-2.48286">
        <ele>103</ele>
        <time>2016-06-07T14:29:26Z</time>
      </trkpt>
      <trkpt lat="48.47056" lon="-2.48289">
        <ele>95</ele>
        <time>2016-06-07T14:29:34Z</time>
      </trkpt>
      <trkpt lat="48.47057" lon="-2.48293">
        <ele>94</ele>
        <time>2016-06-07T14:29:38Z</time>
      </trkpt>
      <trkpt lat="48.47056" lon="-2.48295">
        <ele>94</ele>
        <time>2016-06-07T14:29:45Z</time>
      </trkpt>
      <trkpt lat="48.47055" lon="-2.48294">
        <ele>96</ele>
        <time>2016-06-07T14:29:52Z</time>
      </trkpt>
      <trkpt lat="48.47055" lon="-2.48293">
        <ele>94</ele>
        <time>2016-06-07T14:29:57Z</time>
      </trkpt>
      <trkpt lat="48.47053" lon="-2.48297">
        <ele>94</ele>
        <time>2016-06-07T14:30:02Z</time>
      </trkpt>
      <trkpt lat="48.4705" lon="-2.48301">
        <ele>94</ele>
        <time>2016-06-07T14:30:07Z</time>
      </trkpt>
      <trkpt lat="48.47049" lon="-2.483">
        <ele>94</ele>
        <time>2016-06-07T14:30:11Z</time>
      </trkpt>
      <trkpt lat="48.47047" lon="-2.483">
        <ele>92</ele>
        <time>2016-06-07T14:30:15Z</time>
      </trkpt>
      <trkpt lat="48.47049" lon="-2.48301">
        <ele>90</ele>
        <time>2016-06-07T14:30:18Z</time>
      </trkpt>
      <trkpt lat="48.4705" lon="-2.48304">
        <ele>89</ele>
        <time>2016-06-07T14:30:21Z</time>
      </trkpt>
      <trkpt lat="48.47051" lon="-2.48303">
        <ele>94</ele>
        <time>2016-06-07T14:30:28Z</time>
      </trkpt>
      <trkpt lat="48.47055" lon="-2.48302">
        <ele>104</ele>
        <time>2016-06-07T14:30:33Z</time>
      </trkpt>
      <trkpt lat="48.47057" lon="-2.48306">
        <ele>110</ele>
        <time>2016-06-07T14:30:36Z</time>
      </trkpt>
      <trkpt lat="48.47058" lon="-2.48311">
        <ele>116</ele>
        <time>2016-06-07T14:30:39Z</time>
      </trkpt>
      <trkpt lat="48.4706" lon="-2.48317">
        <ele>122</ele>
        <time>2016-06-07T14:30:42Z</time>
      </trkpt>
      <trkpt lat="48.47057" lon="-2.48316">
        <ele>127</ele>
        <time>2016-06-07T14:30:45Z</time>
      </trkpt>
      <trkpt lat="48.47055" lon="-2.48318">
        <ele>128</ele>
        <time>2016-06-07T14:30:49Z</time>
      </trkpt>
      <trkpt lat="48.47054" lon="-2.48324">
        <ele>127</ele>
        <time>2016-06-07T14:30:53Z</time>
      </trkpt>
      <trkpt lat="48.47054" lon="-2.48329">
        <ele>127</ele>
        <time>2016-06-07T14:30:56Z</time>
      </trkpt>
      <trkpt lat="48.47054" lon="-2.48335">
        <ele>126</ele>
        <time>2016-06-07T14:30:59Z</time>
      </trkpt>
      <trkpt lat="48.47052" lon="-2.4834">
        <ele>124</ele>
        <time>2016-06-07T14:31:03Z</time>
      </trkpt>
      <trkpt lat="48.4705" lon="-2.48345">
        <ele>123</ele>
        <time>2016-06-07T14:31:07Z</time>
      </trkpt>
      <trkpt lat="48.4705" lon="-2.48351">
        <ele>123</ele>
        <time>2016-06-07T14:31:11Z</time>
      </trkpt>
      <trkpt lat="48.47049" lon="-2.48355">
        <ele>119</ele>
        <time>2016-06-07T14:31:15Z</time>
      </trkpt>
      <trkpt lat="48.47048" lon="-2.4836">
        <ele>116</ele>
        <time>2016-06-07T14:31:18Z</time>
      </trkpt>
      <trkpt lat="48.47049" lon="-2.48365">
        <ele>112</ele>
        <time>2016-06-07T14:31:22Z</time>
      </trkpt>
      <trkpt lat="48.47052" lon="-2.48372">
        <ele>107</ele>
        <time>2016-06-07T14:31:27Z</time>
      </trkpt>
      <trkpt lat="48.47052" lon="-2.4838">
        <ele>102</ele>
        <time>2016-06-07T14:31:32Z</time>
      </trkpt>
      <trkpt lat="48.47052" lon="-2.48384">
        <ele>101</ele>
        <time>2016-06-07T14:31:36Z</time>
      </trkpt>
      <trkpt lat="48.47052" lon="-2.48386">
        <ele>100</ele>
        <time>2016-06-07T14:31:39Z</time>
      </trkpt>
      <trkpt lat="48.47053" lon="-2.48393">
        <ele>99</ele>
        <time>2016-06-07T14:31:43Z</time>
      </trkpt>
      <trkpt lat="48.47055" lon="-2.48399">
        <ele>99</ele>
        <time>2016-06-07T14:31:46Z</time>
      </trkpt>
      <trkpt lat="48.47054" lon="-2.48405">
        <ele>99</ele>
        <time>2016-06-07T14:31:49Z</time>
      </trkpt>
      <trkpt lat="48.47056" lon="-2.48412">
        <ele>99</ele>
        <time>2016-06-07T14:31:52Z</time>
      </trkpt>
      <trkpt lat="48.47058" lon="-2.4842">
        <ele>99</ele>
        <time>2016-06-07T14:31:55Z</time>
      </trkpt>
      <trkpt lat="48.4706" lon="-2.48427">
        <ele>99</ele>
        <time>2016-06-07T14:31:59Z</time>
      </trkpt>
      <trkpt lat="48.47061" lon="-2.4843">
        <ele>99</ele>
        <time>2016-06-07T14:32:02Z</time>
      </trkpt>
      <trkpt lat="48.47061" lon="-2.48436">
        <ele>99</ele>
        <time>2016-06-07T14:32:05Z</time>
      </trkpt>
      <trkpt lat="48.47061" lon="-2.48442">
        <ele>99</ele>
        <time>2016-06-07T14:32:08Z</time>
      </trkpt>
      <trkpt lat="48.47063" lon="-2.48447">
        <ele>98</ele>
        <time>2016-06-07T14:32:11Z</time>
      </trkpt>
      <trkpt lat="48.47063" lon="-2.48452">
        <ele>95</ele>
        <time>2016-06-07T14:32:14Z</time>
      </trkpt>
      <trkpt lat="48.47065" lon="-2.48458">
        <ele>95</ele>
        <time>2016-06-07T14:32:17Z</time>
      </trkpt>
      <trkpt lat="48.47065" lon="-2.48468">
        <ele>94</ele>
        <time>2016-06-07T14:32:22Z</time>
      </trkpt>
      <trkpt lat="48.47065" lon="-2.48477">
        <ele>90</ele>
        <time>2016-06-07T14:32:25Z</time>
      </trkpt>
      <trkpt lat="48.47066" lon="-2.48483">
        <ele>89</ele>
        <time>2016-06-07T14:32:28Z</time>
      </trkpt>
      <trkpt lat="48.47069" lon="-2.48489">
        <ele>88</ele>
        <time>2016-06-07T14:32:31Z</time>
      </trkpt>
      <trkpt lat="48.4707" lon="-2.48496">
        <ele>88</ele>
        <time>2016-06-07T14:32:34Z</time>
      </trkpt>
      <trkpt lat="48.4707" lon="-2.48502">
        <ele>88</ele>
        <time>2016-06-07T14:32:37Z</time>
      </trkpt>
      <trkpt lat="48.47069" lon="-2.48512">
        <ele>88</ele>
        <time>2016-06-07T14:32:42Z</time>
      </trkpt>
      <trkpt lat="48.47066" lon="-2.48517">
        <ele>86</ele>
        <time>2016-06-07T14:32:46Z</time>
      </trkpt>
      <trkpt lat="48.47065" lon="-2.48519">
        <ele>83</ele>
        <time>2016-06-07T14:32:49Z</time>
      </trkpt>
      <trkpt lat="48.47063" lon="-2.48522">
        <ele>80</ele>
        <time>2016-06-07T14:32:57Z</time>
      </trkpt>
      <trkpt lat="48.47065" lon="-2.48527">
        <ele>80</ele>
        <time>2016-06-07T14:33:01Z</time>
      </trkpt>
      <trkpt lat="48.47064" lon="-2.48531">
        <ele>80</ele>
        <time>2016-06-07T14:33:04Z</time>
      </trkpt>
      <trkpt lat="48.47063" lon="-2.48536">
        <ele>80</ele>
        <time>2016-06-07T14:33:08Z</time>
      </trkpt>
      <trkpt lat="48.47063" lon="-2.48542">
        <ele>80</ele>
        <time>2016-06-07T14:33:12Z</time>
      </trkpt>
      <trkpt lat="48.47061" lon="-2.48547">
        <ele>80</ele>
        <time>2016-06-07T14:33:17Z</time>
      </trkpt>
      <trkpt lat="48.47062" lon="-2.48549">
        <ele>80</ele>
        <time>2016-06-07T14:33:21Z</time>
      </trkpt>
      <trkpt lat="48.47066" lon="-2.48551">
        <ele>79</ele>
        <time>2016-06-07T14:33:26Z</time>
      </trkpt>
      <trkpt lat="48.47067" lon="-2.48554">
        <ele>79</ele>
        <time>2016-06-07T14:33:31Z</time>
      </trkpt>
      <trkpt lat="48.47068" lon="-2.48557">
        <ele>78</ele>
        <time>2016-06-07T14:33:34Z</time>
      </trkpt>
      <trkpt lat="48.47071" lon="-2.48562">
        <ele>78</ele>
        <time>2016-06-07T14:33:38Z</time>
      </trkpt>
      <trkpt lat="48.47071" lon="-2.48567">
        <ele>78</ele>
        <time>2016-06-07T14:33:41Z</time>
      </trkpt>
      <trkpt lat="48.47072" lon="-2.48571">
        <ele>78</ele>
        <time>2016-06-07T14:33:46Z</time>
      </trkpt>
      <trkpt lat="48.47073" lon="-2.48579">
        <ele>78</ele>
        <time>2016-06-07T14:33:51Z</time>
      </trkpt>
      <trkpt lat="48.47073" lon="-2.48587">
        <ele>78</ele>
        <time>2016-06-07T14:33:56Z</time>
      </trkpt>
      <trkpt lat="48.47074" lon="-2.48594">
        <ele>78</ele>
        <time>2016-06-07T14:34:00Z</time>
      </trkpt>
      <trkpt lat="48.47076" lon="-2.486">
        <ele>78</ele>
        <time>2016-06-07T14:34:03Z</time>
      </trkpt>
      <trkpt lat="48.47076" lon="-2.48605">
        <ele>78</ele>
        <time>2016-06-07T14:34:06Z</time>
      </trkpt>
      <trkpt lat="48.47077" lon="-2.4861">
        <ele>78</ele>
        <time>2016-06-07T14:34:09Z</time>
      </trkpt>
      <trkpt lat="48.47077" lon="-2.48616">
        <ele>78</ele>
        <time>2016-06-07T14:34:12Z</time>
      </trkpt>
      <trkpt lat="48.47075" lon="-2.48621">
        <ele>78</ele>
        <time>2016-06-07T14:34:15Z</time>
      </trkpt>
      <trkpt lat="48.47074" lon="-2.48627">
        <ele>78</ele>
        <time>2016-06-07T14:34:18Z</time>
      </trkpt>
      <trkpt lat="48.4707" lon="-2.48635">
        <ele>78</ele>
        <time>2016-06-07T14:34:22Z</time>
      </trkpt>
      <trkpt lat="48.47068" lon="-2.48639">
        <ele>78</ele>
        <time>2016-06-07T14:34:26Z</time>
      </trkpt>
      <trkpt lat="48.47065" lon="-2.48645">
        <ele>78</ele>
        <time>2016-06-07T14:34:30Z</time>
      </trkpt>
      <trkpt lat="48.4706" lon="-2.48652">
        <ele>78</ele>
        <time>2016-06-07T14:34:35Z</time>
      </trkpt>
      <trkpt lat="48.47058" lon="-2.48657">
        <ele>78</ele>
        <time>2016-06-07T14:34:42Z</time>
      </trkpt>
      <trkpt lat="48.47056" lon="-2.48659">
        <ele>78</ele>
        <time>2016-06-07T14:34:47Z</time>
      </trkpt>
      <trkpt lat="48.47053" lon="-2.48661">
        <ele>78</ele>
        <time>2016-06-07T14:34:51Z</time>
      </trkpt>
      <trkpt lat="48.47052" lon="-2.48663">
        <ele>75</ele>
        <time>2016-06-07T14:34:58Z</time>
      </trkpt>
      <trkpt lat="48.47049" lon="-2.48663">
        <ele>74</ele>
        <time>2016-06-07T14:35:06Z</time>
      </trkpt>
      <trkpt lat="48.47048" lon="-2.4866">
        <ele>75</ele>
        <time>2016-06-07T14:35:16Z</time>
      </trkpt>
      <trkpt lat="48.47049" lon="-2.4866">
        <ele>77</ele>
        <time>2016-06-07T14:35:30Z</time>
      </trkpt>
      <trkpt lat="48.4705" lon="-2.4866">
        <ele>77</ele>
        <time>2016-06-07T14:35:43Z</time>
      </trkpt>
      <trkpt lat="48.47049" lon="-2.48656">
        <ele>77</ele>
        <time>2016-06-07T14:35:46Z</time>
      </trkpt>
      <trkpt lat="48.47048" lon="-2.4865">
        <ele>75</ele>
        <time>2016-06-07T14:35:50Z</time>
      </trkpt>
      <trkpt lat="48.47047" lon="-2.4865">
        <ele>74</ele>
        <time>2016-06-07T14:35:55Z</time>
      </trkpt>
      <trkpt lat="48.47045" lon="-2.48651">
        <ele>74</ele>
        <time>2016-06-07T14:36:00Z</time>
      </trkpt>
      <trkpt lat="48.47047" lon="-2.48653">
        <ele>74</ele>
        <time>2016-06-07T14:36:08Z</time>
      </trkpt>
      <trkpt lat="48.47048" lon="-2.48654">
        <ele>74</ele>
        <time>2016-06-07T14:36:20Z</time>
      </trkpt>
      <trkpt lat="48.47049" lon="-2.48654">
        <ele>74</ele>
        <time>2016-06-07T14:36:33Z</time>
      </trkpt>
      <trkpt lat="48.47049" lon="-2.48652">
        <ele>74</ele>
        <time>2016-06-07T14:36:49Z</time>
      </trkpt>
      <trkpt lat="48.4705" lon="-2.48653">
        <ele>76</ele>
        <time>2016-06-07T14:37:01Z</time>
      </trkpt>
      <trkpt lat="48.47049" lon="-2.48651">
        <ele>76</ele>
        <time>2016-06-07T14:37:12Z</time>
      </trkpt>
      <trkpt lat="48.47051" lon="-2.4865">
        <ele>80</ele>
        <time>2016-06-07T14:37:43Z</time>
      </trkpt>
      <trkpt lat="48.47054" lon="-2.48652">
        <ele>80</ele>
        <time>2016-06-07T14:37:47Z</time>
      </trkpt>
      <trkpt lat="48.47056" lon="-2.48653">
        <ele>80</ele>
        <time>2016-06-07T14:37:50Z</time>
      </trkpt>
      <trkpt lat="48.47059" lon="-2.48656">
        <ele>80</ele>
        <time>2016-06-07T14:37:54Z</time>
      </trkpt>
      <trkpt lat="48.47062" lon="-2.4866">
        <ele>80</ele>
        <time>2016-06-07T14:37:58Z</time>
      </trkpt>
      <trkpt lat="48.47064" lon="-2.48666">
        <ele>80</ele>
        <time>2016-06-07T14:38:02Z</time>
      </trkpt>
      <trkpt lat="48.47065" lon="-2.48674">
        <ele>78</ele>
        <time>2016-06-07T14:38:07Z</time>
      </trkpt>
      <trkpt lat="48.47066" lon="-2.4868">
        <ele>74</ele>
        <time>2016-06-07T14:38:11Z</time>
      </trkpt>
      <trkpt lat="48.47066" lon="-2.48685">
        <ele>71</ele>
        <time>2016-06-07T14:38:14Z</time>
      </trkpt>
      <trkpt lat="48.47067" lon="-2.4869">
        <ele>69</ele>
        <time>2016-06-07T14:38:17Z</time>
      </trkpt>
      <trkpt lat="48.4707" lon="-2.48697">
        <ele>68</ele>
        <time>2016-06-07T14:38:21Z</time>
      </trkpt>
      <trkpt lat="48.47072" lon="-2.48702">
        <ele>68</ele>
        <time>2016-06-07T14:38:24Z</time>
      </trkpt>
      <trkpt lat="48.47073" lon="-2.48708">
        <ele>68</ele>
        <time>2016-06-07T14:38:28Z</time>
      </trkpt>
      <trkpt lat="48.47074" lon="-2.48715">
        <ele>68</ele>
        <time>2016-06-07T14:38:32Z</time>
      </trkpt>
      <trkpt lat="48.47074" lon="-2.4872">
        <ele>68</ele>
        <time>2016-06-07T14:38:35Z</time>
      </trkpt>
      <trkpt lat="48.47077" lon="-2.48725">
        <ele>68</ele>
        <time>2016-06-07T14:38:38Z</time>
      </trkpt>
      <trkpt lat="48.47078" lon="-2.48729">
        <ele>68</ele>
        <time>2016-06-07T14:38:42Z</time>
      </trkpt>
      <trkpt lat="48.47081" lon="-2.48735">
        <ele>68</ele>
        <time>2016-06-07T14:38:46Z</time>
      </trkpt>
      <trkpt lat="48.47083" lon="-2.48739">
        <ele>68</ele>
        <time>2016-06-07T14:38:49Z</time>
      </trkpt>
      <trkpt lat="48.47084" lon="-2.48746">
        <ele>68</ele>
        <time>2016-06-07T14:38:53Z</time>
      </trkpt>
      <trkpt lat="48.47084" lon="-2.48751">
        <ele>68</ele>
        <time>2016-06-07T14:38:56Z</time>
      </trkpt>
      <trkpt lat="48.47087" lon="-2.48758">
        <ele>68</ele>
        <time>2016-06-07T14:39:00Z</time>
      </trkpt>
      <trkpt lat="48.47087" lon="-2.48762">
        <ele>68</ele>
        <time>2016-06-07T14:39:03Z</time>
      </trkpt>
      <trkpt lat="48.47089" lon="-2.48768">
        <ele>68</ele>
        <time>2016-06-07T14:39:07Z</time>
      </trkpt>
      <trkpt lat="48.47091" lon="-2.48774">
        <ele>68</ele>
        <time>2016-06-07T14:39:10Z</time>
      </trkpt>
      <trkpt lat="48.47094" lon="-2.48782">
        <ele>68</ele>
        <time>2016-06-07T14:39:14Z</time>
      </trkpt>
      <trkpt lat="48.47097" lon="-2.48787">
        <ele>68</ele>
        <time>2016-06-07T14:39:17Z</time>
      </trkpt>
      <trkpt lat="48.471" lon="-2.48791">
        <ele>68</ele>
        <time>2016-06-07T14:39:20Z</time>
      </trkpt>
      <trkpt lat="48.471" lon="-2.48796">
        <ele>68</ele>
        <time>2016-06-07T14:39:23Z</time>
      </trkpt>
      <trkpt lat="48.47102" lon="-2.48802">
        <ele>67</ele>
        <time>2016-06-07T14:39:27Z</time>
      </trkpt>
      <trkpt lat="48.47102" lon="-2.48807">
        <ele>66</ele>
        <time>2016-06-07T14:39:31Z</time>
      </trkpt>
      <trkpt lat="48.47102" lon="-2.48811">
        <ele>66</ele>
        <time>2016-06-07T14:39:34Z</time>
      </trkpt>
      <trkpt lat="48.47102" lon="-2.48814">
        <ele>66</ele>
        <time>2016-06-07T14:39:37Z</time>
      </trkpt>
      <trkpt lat="48.47103" lon="-2.48818">
        <ele>66</ele>
        <time>2016-06-07T14:39:41Z</time>
      </trkpt>
      <trkpt lat="48.47107" lon="-2.48821">
        <ele>66</ele>
        <time>2016-06-07T14:39:45Z</time>
      </trkpt>
      <trkpt lat="48.47108" lon="-2.48824">
        <ele>66</ele>
        <time>2016-06-07T14:39:49Z</time>
      </trkpt>
      <trkpt lat="48.47113" lon="-2.48827">
        <ele>66</ele>
        <time>2016-06-07T14:39:53Z</time>
      </trkpt>
      <trkpt lat="48.47115" lon="-2.48829">
        <ele>66</ele>
        <time>2016-06-07T14:39:56Z</time>
      </trkpt>
      <trkpt lat="48.47119" lon="-2.48833">
        <ele>66</ele>
        <time>2016-06-07T14:40:01Z</time>
      </trkpt>
      <trkpt lat="48.4712" lon="-2.48835">
        <ele>66</ele>
        <time>2016-06-07T14:40:04Z</time>
      </trkpt>
      <trkpt lat="48.47123" lon="-2.48838">
        <ele>65</ele>
        <time>2016-06-07T14:40:07Z</time>
      </trkpt>
      <trkpt lat="48.47125" lon="-2.4884">
        <ele>64</ele>
        <time>2016-06-07T14:40:10Z</time>
      </trkpt>
      <trkpt lat="48.47129" lon="-2.48843">
        <ele>64</ele>
        <time>2016-06-07T14:40:13Z</time>
      </trkpt>
      <trkpt lat="48.47132" lon="-2.48846">
        <ele>64</ele>
        <time>2016-06-07T14:40:16Z</time>
      </trkpt>
      <trkpt lat="48.47137" lon="-2.48849">
        <ele>64</ele>
        <time>2016-06-07T14:40:19Z</time>
      </trkpt>
      <trkpt lat="48.47141" lon="-2.48852">
        <ele>64</ele>
        <time>2016-06-07T14:40:23Z</time>
      </trkpt>
      <trkpt lat="48.47144" lon="-2.48856">
        <ele>64</ele>
        <time>2016-06-07T14:40:27Z</time>
      </trkpt>
      <trkpt lat="48.47147" lon="-2.48859">
        <ele>64</ele>
        <time>2016-06-07T14:40:31Z</time>
      </trkpt>
      <trkpt lat="48.4715" lon="-2.48864">
        <ele>64</ele>
        <time>2016-06-07T14:40:35Z</time>
      </trkpt>
      <trkpt lat="48.47154" lon="-2.48868">
        <ele>64</ele>
        <time>2016-06-07T14:40:39Z</time>
      </trkpt>
      <trkpt lat="48.47155" lon="-2.4887">
        <ele>64</ele>
        <time>2016-06-07T14:40:42Z</time>
      </trkpt>
      <trkpt lat="48.47158" lon="-2.48873">
        <ele>64</ele>
        <time>2016-06-07T14:40:46Z</time>
      </trkpt>
      <trkpt lat="48.47161" lon="-2.48877">
        <ele>64</ele>
        <time>2016-06-07T14:40:50Z</time>
      </trkpt>
      <trkpt lat="48.47165" lon="-2.4888">
        <ele>64</ele>
        <time>2016-06-07T14:40:54Z</time>
      </trkpt>
      <trkpt lat="48.4717" lon="-2.48882">
        <ele>64</ele>
        <time>2016-06-07T14:40:58Z</time>
      </trkpt>
      <trkpt lat="48.47173" lon="-2.48885">
        <ele>64</ele>
        <time>2016-06-07T14:41:01Z</time>
      </trkpt>
      <trkpt lat="48.47176" lon="-2.48888">
        <ele>64</ele>
        <time>2016-06-07T14:41:04Z</time>
      </trkpt>
      <trkpt lat="48.47179" lon="-2.48891">
        <ele>64</ele>
        <time>2016-06-07T14:41:07Z</time>
      </trkpt>
      <trkpt lat="48.47181" lon="-2.48893">
        <ele>64</ele>
        <time>2016-06-07T14:41:10Z</time>
      </trkpt>
      <trkpt lat="48.47184" lon="-2.48897">
        <ele>64</ele>
        <time>2016-06-07T14:41:13Z</time>
      </trkpt>
      <trkpt lat="48.47185" lon="-2.48899">
        <ele>64</ele>
        <time>2016-06-07T14:41:16Z</time>
      </trkpt>
      <trkpt lat="48.47187" lon="-2.48902">
        <ele>64</ele>
        <time>2016-06-07T14:41:19Z</time>
      </trkpt>
      <trkpt lat="48.4719" lon="-2.48905">
        <ele>63</ele>
        <time>2016-06-07T14:41:23Z</time>
      </trkpt>
      <trkpt lat="48.47193" lon="-2.48908">
        <ele>61</ele>
        <time>2016-06-07T14:41:26Z</time>
      </trkpt>
      <trkpt lat="48.47197" lon="-2.48911">
        <ele>61</ele>
        <time>2016-06-07T14:41:29Z</time>
      </trkpt>
      <trkpt lat="48.47202" lon="-2.48915">
        <ele>60</ele>
        <time>2016-06-07T14:41:33Z</time>
      </trkpt>
      <trkpt lat="48.47206" lon="-2.48919">
        <ele>59</ele>
        <time>2016-06-07T14:41:36Z</time>
      </trkpt>
      <trkpt lat="48.47209" lon="-2.48922">
        <ele>59</ele>
        <time>2016-06-07T14:41:41Z</time>
      </trkpt>
      <trkpt lat="48.4721" lon="-2.48923">
        <ele>59</ele>
        <time>2016-06-07T14:41:44Z</time>
      </trkpt>
      <trkpt lat="48.47212" lon="-2.48922">
        <ele>59</ele>
        <time>2016-06-07T14:41:51Z</time>
      </trkpt>
      <trkpt lat="48.47215" lon="-2.48926">
        <ele>59</ele>
        <time>2016-06-07T14:41:54Z</time>
      </trkpt>
      <trkpt lat="48.47219" lon="-2.4893">
        <ele>59</ele>
        <time>2016-06-07T14:41:57Z</time>
      </trkpt>
      <trkpt lat="48.47221" lon="-2.48936">
        <ele>59</ele>
        <time>2016-06-07T14:42:01Z</time>
      </trkpt>
      <trkpt lat="48.47222" lon="-2.48941">
        <ele>59</ele>
        <time>2016-06-07T14:42:04Z</time>
      </trkpt>
      <trkpt lat="48.47223" lon="-2.48946">
        <ele>59</ele>
        <time>2016-06-07T14:42:07Z</time>
      </trkpt>
      <trkpt lat="48.47221" lon="-2.48951">
        <ele>57</ele>
        <time>2016-06-07T14:42:11Z</time>
      </trkpt>
      <trkpt lat="48.4722" lon="-2.48956">
        <ele>56</ele>
        <time>2016-06-07T14:42:17Z</time>
      </trkpt>
      <trkpt lat="48.47216" lon="-2.48961">
        <ele>56</ele>
        <time>2016-06-07T14:42:21Z</time>
      </trkpt>
      <trkpt lat="48.47214" lon="-2.48967">
        <ele>56</ele>
        <time>2016-06-07T14:42:25Z</time>
      </trkpt>
      <trkpt lat="48.47212" lon="-2.48972">
        <ele>56</ele>
        <time>2016-06-07T14:42:29Z</time>
      </trkpt>
      <trkpt lat="48.4721" lon="-2.48977">
        <ele>56</ele>
        <time>2016-06-07T14:42:33Z</time>
      </trkpt>
      <trkpt lat="48.47208" lon="-2.48982">
        <ele>56</ele>
        <time>2016-06-07T14:42:37Z</time>
      </trkpt>
      <trkpt lat="48.47205" lon="-2.48986">
        <ele>56</ele>
        <time>2016-06-07T14:42:41Z</time>
      </trkpt>
      <trkpt lat="48.47202" lon="-2.4899">
        <ele>56</ele>
        <time>2016-06-07T14:42:44Z</time>
      </trkpt>
      <trkpt lat="48.472" lon="-2.48995">
        <ele>56</ele>
        <time>2016-06-07T14:42:47Z</time>
      </trkpt>
      <trkpt lat="48.47197" lon="-2.48999">
        <ele>56</ele>
        <time>2016-06-07T14:42:51Z</time>
      </trkpt>
      <trkpt lat="48.47193" lon="-2.49005">
        <ele>56</ele>
        <time>2016-06-07T14:42:55Z</time>
      </trkpt>
      <trkpt lat="48.4719" lon="-2.49009">
        <ele>56</ele>
        <time>2016-06-07T14:42:59Z</time>
      </trkpt>
      <trkpt lat="48.47187" lon="-2.49015">
        <ele>56</ele>
        <time>2016-06-07T14:43:03Z</time>
      </trkpt>
      <trkpt lat="48.47183" lon="-2.49019">
        <ele>56</ele>
        <time>2016-06-07T14:43:07Z</time>
      </trkpt>
      <trkpt lat="48.47179" lon="-2.49023">
        <ele>56</ele>
        <time>2016-06-07T14:43:11Z</time>
      </trkpt>
      <trkpt lat="48.47176" lon="-2.49025">
        <ele>56</ele>
        <time>2016-06-07T14:43:14Z</time>
      </trkpt>
      <trkpt lat="48.47173" lon="-2.49029">
        <ele>56</ele>
        <time>2016-06-07T14:43:18Z</time>
      </trkpt>
      <trkpt lat="48.47172" lon="-2.49033">
        <ele>56</ele>
        <time>2016-06-07T14:43:21Z</time>
      </trkpt>
      <trkpt lat="48.47169" lon="-2.49036">
        <ele>56</ele>
        <time>2016-06-07T14:43:25Z</time>
      </trkpt>
      <trkpt lat="48.47165" lon="-2.49042">
        <ele>56</ele>
        <time>2016-06-07T14:43:29Z</time>
      </trkpt>
      <trkpt lat="48.47161" lon="-2.49046">
        <ele>56</ele>
        <time>2016-06-07T14:43:33Z</time>
      </trkpt>
      <trkpt lat="48.47158" lon="-2.4905">
        <ele>56</ele>
        <time>2016-06-07T14:43:37Z</time>
      </trkpt>
      <trkpt lat="48.47155" lon="-2.49053">
        <ele>56</ele>
        <time>2016-06-07T14:43:40Z</time>
      </trkpt>
      <trkpt lat="48.47152" lon="-2.49057">
        <ele>56</ele>
        <time>2016-06-07T14:43:44Z</time>
      </trkpt>
      <trkpt lat="48.47147" lon="-2.49062">
        <ele>56</ele>
        <time>2016-06-07T14:43:47Z</time>
      </trkpt>
      <trkpt lat="48.47144" lon="-2.49066">
        <ele>56</ele>
        <time>2016-06-07T14:43:50Z</time>
      </trkpt>
      <trkpt lat="48.47141" lon="-2.4907">
        <ele>56</ele>
        <time>2016-06-07T14:43:54Z</time>
      </trkpt>
      <trkpt lat="48.47137" lon="-2.49074">
        <ele>56</ele>
        <time>2016-06-07T14:43:58Z</time>
      </trkpt>
      <trkpt lat="48.47133" lon="-2.49078">
        <ele>56</ele>
        <time>2016-06-07T14:44:02Z</time>
      </trkpt>
      <trkpt lat="48.4713" lon="-2.49082">
        <ele>56</ele>
        <time>2016-06-07T14:44:06Z</time>
      </trkpt>
      <trkpt lat="48.47126" lon="-2.49086">
        <ele>56</ele>
        <time>2016-06-07T14:44:10Z</time>
      </trkpt>
      <trkpt lat="48.47122" lon="-2.4909">
        <ele>56</ele>
        <time>2016-06-07T14:44:14Z</time>
      </trkpt>
      <trkpt lat="48.47118" lon="-2.49095">
        <ele>56</ele>
        <time>2016-06-07T14:44:18Z</time>
      </trkpt>
      <trkpt lat="48.47115" lon="-2.49099">
        <ele>56</ele>
        <time>2016-06-07T14:44:22Z</time>
      </trkpt>
      <trkpt lat="48.47111" lon="-2.49103">
        <ele>56</ele>
        <time>2016-06-07T14:44:26Z</time>
      </trkpt>
      <trkpt lat="48.47108" lon="-2.49107">
        <ele>56</ele>
        <time>2016-06-07T14:44:30Z</time>
      </trkpt>
      <trkpt lat="48.47105" lon="-2.4911">
        <ele>56</ele>
        <time>2016-06-07T14:44:35Z</time>
      </trkpt>
      <trkpt lat="48.47101" lon="-2.49114">
        <ele>56</ele>
        <time>2016-06-07T14:44:39Z</time>
      </trkpt>
      <trkpt lat="48.47097" lon="-2.49118">
        <ele>56</ele>
        <time>2016-06-07T14:44:42Z</time>
      </trkpt>
      <trkpt lat="48.47093" lon="-2.49122">
        <ele>56</ele>
        <time>2016-06-07T14:44:46Z</time>
      </trkpt>
      <trkpt lat="48.47089" lon="-2.49127">
        <ele>56</ele>
        <time>2016-06-07T14:44:50Z</time>
      </trkpt>
      <trkpt lat="48.47085" lon="-2.49131">
        <ele>56</ele>
        <time>2016-06-07T14:44:54Z</time>
      </trkpt>
      <trkpt lat="48.47082" lon="-2.49135">
        <ele>56</ele>
        <time>2016-06-07T14:44:58Z</time>
      </trkpt>
      <trkpt lat="48.47079" lon="-2.49139">
        <ele>56</ele>
        <time>2016-06-07T14:45:02Z</time>
      </trkpt>
      <trkpt lat="48.47076" lon="-2.49144">
        <ele>56</ele>
        <time>2016-06-07T14:45:06Z</time>
      </trkpt>
      <trkpt lat="48.47072" lon="-2.49148">
        <ele>56</ele>
        <time>2016-06-07T14:45:10Z</time>
      </trkpt>
      <trkpt lat="48.4707" lon="-2.4915">
        <ele>56</ele>
        <time>2016-06-07T14:45:14Z</time>
      </trkpt>
      <trkpt lat="48.47067" lon="-2.49155">
        <ele>56</ele>
        <time>2016-06-07T14:45:18Z</time>
      </trkpt>
      <trkpt lat="48.47063" lon="-2.49159">
        <ele>56</ele>
        <time>2016-06-07T14:45:22Z</time>
      </trkpt>
      <trkpt lat="48.4706" lon="-2.49163">
        <ele>56</ele>
        <time>2016-06-07T14:45:26Z</time>
      </trkpt>
      <trkpt lat="48.47057" lon="-2.49167">
        <ele>56</ele>
        <time>2016-06-07T14:45:30Z</time>
      </trkpt>
      <trkpt lat="48.47054" lon="-2.49171">
        <ele>56</ele>
        <time>2016-06-07T14:45:34Z</time>
      </trkpt>
      <trkpt lat="48.4705" lon="-2.49176">
        <ele>56</ele>
        <time>2016-06-07T14:45:38Z</time>
      </trkpt>
      <trkpt lat="48.47047" lon="-2.4918">
        <ele>56</ele>
        <time>2016-06-07T14:45:42Z</time>
      </trkpt>
      <trkpt lat="48.47043" lon="-2.49184">
        <ele>56</ele>
        <time>2016-06-07T14:45:46Z</time>
      </trkpt>
      <trkpt lat="48.4704" lon="-2.49188">
        <ele>56</ele>
        <time>2016-06-07T14:45:50Z</time>
      </trkpt>
      <trkpt lat="48.47036" lon="-2.49192">
        <ele>56</ele>
        <time>2016-06-07T14:45:54Z</time>
      </trkpt>
      <trkpt lat="48.47033" lon="-2.49196">
        <ele>56</ele>
        <time>2016-06-07T14:45:58Z</time>
      </trkpt>
      <trkpt lat="48.47029" lon="-2.49199">
        <ele>56</ele>
        <time>2016-06-07T14:46:02Z</time>
      </trkpt>
      <trkpt lat="48.47026" lon="-2.49203">
        <ele>56</ele>
        <time>2016-06-07T14:46:06Z</time>
      </trkpt>
      <trkpt lat="48.47023" lon="-2.49207">
        <ele>56</ele>
        <time>2016-06-07T14:46:10Z</time>
      </trkpt>
      <trkpt lat="48.4702" lon="-2.49211">
        <ele>56</ele>
        <time>2016-06-07T14:46:14Z</time>
      </trkpt>
      <trkpt lat="48.47017" lon="-2.49216">
        <ele>56</ele>
        <time>2016-06-07T14:46:18Z</time>
      </trkpt>
      <trkpt lat="48.47013" lon="-2.4922">
        <ele>56</ele>
        <time>2016-06-07T14:46:22Z</time>
      </trkpt>
      <trkpt lat="48.47009" lon="-2.49226">
        <ele>56</ele>
        <time>2016-06-07T14:46:26Z</time>
      </trkpt>
      <trkpt lat="48.47004" lon="-2.49232">
        <ele>56</ele>
        <time>2016-06-07T14:46:30Z</time>
      </trkpt>
      <trkpt lat="48.47002" lon="-2.49235">
        <ele>56</ele>
        <time>2016-06-07T14:46:33Z</time>
      </trkpt>
      <trkpt lat="48.46998" lon="-2.49239">
        <ele>56</ele>
        <time>2016-06-07T14:46:36Z</time>
      </trkpt>
      <trkpt lat="48.46995" lon="-2.49242">
        <ele>56</ele>
        <time>2016-06-07T14:46:39Z</time>
      </trkpt>
      <trkpt lat="48.46991" lon="-2.49246">
        <ele>56</ele>
        <time>2016-06-07T14:46:43Z</time>
      </trkpt>
      <trkpt lat="48.46988" lon="-2.49251">
        <ele>56</ele>
        <time>2016-06-07T14:46:47Z</time>
      </trkpt>
      <trkpt lat="48.46984" lon="-2.49254">
        <ele>56</ele>
        <time>2016-06-07T14:46:51Z</time>
      </trkpt>
      <trkpt lat="48.4698" lon="-2.49258">
        <ele>56</ele>
        <time>2016-06-07T14:46:55Z</time>
      </trkpt>
      <trkpt lat="48.46977" lon="-2.49262">
        <ele>56</ele>
        <time>2016-06-07T14:46:59Z</time>
      </trkpt>
      <trkpt lat="48.46973" lon="-2.49266">
        <ele>56</ele>
        <time>2016-06-07T14:47:03Z</time>
      </trkpt>
      <trkpt lat="48.46969" lon="-2.4927">
        <ele>56</ele>
        <time>2016-06-07T14:47:07Z</time>
      </trkpt>
      <trkpt lat="48.46966" lon="-2.49274">
        <ele>56</ele>
        <time>2016-06-07T14:47:11Z</time>
      </trkpt>
      <trkpt lat="48.46962" lon="-2.49278">
        <ele>55</ele>
        <time>2016-06-07T14:47:15Z</time>
      </trkpt>
      <trkpt lat="48.46959" lon="-2.49281">
        <ele>55</ele>
        <time>2016-06-07T14:47:19Z</time>
      </trkpt>
      <trkpt lat="48.46956" lon="-2.49284">
        <ele>54</ele>
        <time>2016-06-07T14:47:23Z</time>
      </trkpt>
      <trkpt lat="48.46953" lon="-2.49288">
        <ele>54</ele>
        <time>2016-06-07T14:47:27Z</time>
      </trkpt>
      <trkpt lat="48.46951" lon="-2.49291">
        <ele>53</ele>
        <time>2016-06-07T14:47:31Z</time>
      </trkpt>
      <trkpt lat="48.46947" lon="-2.49295">
        <ele>53</ele>
        <time>2016-06-07T14:47:35Z</time>
      </trkpt>
      <trkpt lat="48.46944" lon="-2.49299">
        <ele>53</ele>
        <time>2016-06-07T14:47:39Z</time>
      </trkpt>
      <trkpt lat="48.46941" lon="-2.49303">
        <ele>53</ele>
        <time>2016-06-07T14:47:43Z</time>
      </trkpt>
      <trkpt lat="48.46938" lon="-2.49306">
        <ele>52</ele>
        <time>2016-06-07T14:47:47Z</time>
      </trkpt>
      <trkpt lat="48.46934" lon="-2.49309">
        <ele>52</ele>
        <time>2016-06-07T14:47:51Z</time>
      </trkpt>
      <trkpt lat="48.46931" lon="-2.49313">
        <ele>51</ele>
        <time>2016-06-07T14:47:55Z</time>
      </trkpt>
      <trkpt lat="48.46928" lon="-2.49315">
        <ele>50</ele>
        <time>2016-06-07T14:47:59Z</time>
      </trkpt>
      <trkpt lat="48.46925" lon="-2.49318">
        <ele>49</ele>
        <time>2016-06-07T14:48:03Z</time>
      </trkpt>
      <trkpt lat="48.46923" lon="-2.49322">
        <ele>48</ele>
        <time>2016-06-07T14:48:06Z</time>
      </trkpt>
      <trkpt lat="48.46919" lon="-2.49326">
        <ele>48</ele>
        <time>2016-06-07T14:48:09Z</time>
      </trkpt>
      <trkpt lat="48.46915" lon="-2.49332">
        <ele>46</ele>
        <time>2016-06-07T14:48:13Z</time>
      </trkpt>
      <trkpt lat="48.46913" lon="-2.49335">
        <ele>46</ele>
        <time>2016-06-07T14:48:17Z</time>
      </trkpt>
      <trkpt lat="48.4691" lon="-2.49338">
        <ele>45</ele>
        <time>2016-06-07T14:48:21Z</time>
      </trkpt>
      <trkpt lat="48.46907" lon="-2.49342">
        <ele>45</ele>
        <time>2016-06-07T14:48:24Z</time>
      </trkpt>
      <trkpt lat="48.46904" lon="-2.49345">
        <ele>44</ele>
        <time>2016-06-07T14:48:27Z</time>
      </trkpt>
      <trkpt lat="48.46901" lon="-2.49348">
        <ele>44</ele>
        <time>2016-06-07T14:48:31Z</time>
      </trkpt>
      <trkpt lat="48.46898" lon="-2.49351">
        <ele>44</ele>
        <time>2016-06-07T14:48:34Z</time>
      </trkpt>
      <trkpt lat="48.46895" lon="-2.49354">
        <ele>44</ele>
        <time>2016-06-07T14:48:38Z</time>
      </trkpt>
      <trkpt lat="48.46891" lon="-2.49357">
        <ele>44</ele>
        <time>2016-06-07T14:48:42Z</time>
      </trkpt>
      <trkpt lat="48.46888" lon="-2.49359">
        <ele>44</ele>
        <time>2016-06-07T14:48:46Z</time>
      </trkpt>
      <trkpt lat="48.46885" lon="-2.49362">
        <ele>45</ele>
        <time>2016-06-07T14:48:50Z</time>
      </trkpt>
      <trkpt lat="48.46881" lon="-2.49365">
        <ele>49</ele>
        <time>2016-06-07T14:48:54Z</time>
      </trkpt>
      <trkpt lat="48.46878" lon="-2.49368">
        <ele>52</ele>
        <time>2016-06-07T14:48:58Z</time>
      </trkpt>
      <trkpt lat="48.46875" lon="-2.49372">
        <ele>54</ele>
        <time>2016-06-07T14:49:02Z</time>
      </trkpt>
      <trkpt lat="48.46872" lon="-2.49377">
        <ele>54</ele>
        <time>2016-06-07T14:49:06Z</time>
      </trkpt>
      <trkpt lat="48.46869" lon="-2.49383">
        <ele>54</ele>
        <time>2016-06-07T14:49:10Z</time>
      </trkpt>
      <trkpt lat="48.46866" lon="-2.49387">
        <ele>52</ele>
        <time>2016-06-07T14:49:14Z</time>
      </trkpt>
      <trkpt lat="48.46863" lon="-2.49391">
        <ele>51</ele>
        <time>2016-06-07T14:49:18Z</time>
      </trkpt>
      <trkpt lat="48.46863" lon="-2.49396">
        <ele>50</ele>
        <time>2016-06-07T14:49:21Z</time>
      </trkpt>
      <trkpt lat="48.46864" lon="-2.49401">
        <ele>50</ele>
        <time>2016-06-07T14:49:24Z</time>
      </trkpt>
      <trkpt lat="48.46864" lon="-2.49406">
        <ele>50</ele>
        <time>2016-06-07T14:49:28Z</time>
      </trkpt>
      <trkpt lat="48.46866" lon="-2.49411">
        <ele>50</ele>
        <time>2016-06-07T14:49:31Z</time>
      </trkpt>
      <trkpt lat="48.4687" lon="-2.49415">
        <ele>50</ele>
        <time>2016-06-07T14:49:35Z</time>
      </trkpt>
      <trkpt lat="48.46871" lon="-2.49419">
        <ele>50</ele>
        <time>2016-06-07T14:49:39Z</time>
      </trkpt>
      <trkpt lat="48.46873" lon="-2.49423">
        <ele>50</ele>
        <time>2016-06-07T14:49:43Z</time>
      </trkpt>
      <trkpt lat="48.46876" lon="-2.49427">
        <ele>50</ele>
        <time>2016-06-07T14:49:47Z</time>
      </trkpt>
      <trkpt lat="48.46879" lon="-2.49432">
        <ele>50</ele>
        <time>2016-06-07T14:49:51Z</time>
      </trkpt>
      <trkpt lat="48.46882" lon="-2.49436">
        <ele>50</ele>
        <time>2016-06-07T14:49:55Z</time>
      </trkpt>
      <trkpt lat="48.46886" lon="-2.49439">
        <ele>50</ele>
        <time>2016-06-07T14:49:59Z</time>
      </trkpt>
      <trkpt lat="48.46888" lon="-2.49443">
        <ele>50</ele>
        <time>2016-06-07T14:50:03Z</time>
      </trkpt>
      <trkpt lat="48.46891" lon="-2.49448">
        <ele>50</ele>
        <time>2016-06-07T14:50:07Z</time>
      </trkpt>
      <trkpt lat="48.46894" lon="-2.49453">
        <ele>50</ele>
        <time>2016-06-07T14:50:11Z</time>
      </trkpt>
      <trkpt lat="48.46897" lon="-2.49458">
        <ele>50</ele>
        <time>2016-06-07T14:50:15Z</time>
      </trkpt>
      <trkpt lat="48.46898" lon="-2.49463">
        <ele>49</ele>
        <time>2016-06-07T14:50:18Z</time>
      </trkpt>
      <trkpt lat="48.46898" lon="-2.49468">
        <ele>49</ele>
        <time>2016-06-07T14:50:22Z</time>
      </trkpt>
      <trkpt lat="48.46901" lon="-2.49472">
        <ele>49</ele>
        <time>2016-06-07T14:50:26Z</time>
      </trkpt>
      <trkpt lat="48.46902" lon="-2.49477">
        <ele>49</ele>
        <time>2016-06-07T14:50:29Z</time>
      </trkpt>
      <trkpt lat="48.46904" lon="-2.49482">
        <ele>49</ele>
        <time>2016-06-07T14:50:33Z</time>
      </trkpt>
      <trkpt lat="48.46906" lon="-2.49487">
        <ele>49</ele>
        <time>2016-06-07T14:50:37Z</time>
      </trkpt>
      <trkpt lat="48.46908" lon="-2.49493">
        <ele>49</ele>
        <time>2016-06-07T14:50:41Z</time>
      </trkpt>
      <trkpt lat="48.4691" lon="-2.49499">
        <ele>49</ele>
        <time>2016-06-07T14:50:45Z</time>
      </trkpt>
      <trkpt lat="48.46912" lon="-2.49504">
        <ele>49</ele>
        <time>2016-06-07T14:50:49Z</time>
      </trkpt>
      <trkpt lat="48.46915" lon="-2.4951">
        <ele>49</ele>
        <time>2016-06-07T14:50:53Z</time>
      </trkpt>
      <trkpt lat="48.46918" lon="-2.49514">
        <ele>49</ele>
        <time>2016-06-07T14:50:56Z</time>
      </trkpt>
      <trkpt lat="48.46922" lon="-2.49519">
        <ele>49</ele>
        <time>2016-06-07T14:51:00Z</time>
      </trkpt>
      <trkpt lat="48.46925" lon="-2.49522">
        <ele>49</ele>
        <time>2016-06-07T14:51:04Z</time>
      </trkpt>
      <trkpt lat="48.46928" lon="-2.49522">
        <ele>49</ele>
        <time>2016-06-07T14:51:07Z</time>
      </trkpt>
      <trkpt lat="48.46929" lon="-2.49521">
        <ele>49</ele>
        <time>2016-06-07T14:51:10Z</time>
      </trkpt>
      <trkpt lat="48.4693" lon="-2.49522">
        <ele>49</ele>
        <time>2016-06-07T14:51:16Z</time>
      </trkpt>
      <trkpt lat="48.46931" lon="-2.49522">
        <ele>52</ele>
        <time>2016-06-07T14:51:19Z</time>
      </trkpt>
      <trkpt lat="48.46933" lon="-2.49522">
        <ele>55</ele>
        <time>2016-06-07T14:51:25Z</time>
      </trkpt>
      <trkpt lat="48.46933" lon="-2.49524">
        <ele>57</ele>
        <time>2016-06-07T14:51:38Z</time>
      </trkpt>
      <trkpt lat="48.46931" lon="-2.49524">
        <ele>57</ele>
        <time>2016-06-07T14:51:51Z</time>
      </trkpt>
      <trkpt lat="48.4693" lon="-2.49524">
        <ele>57</ele>
        <time>2016-06-07T14:52:04Z</time>
      </trkpt>
      <trkpt lat="48.4693" lon="-2.49526">
        <ele>57</ele>
        <time>2016-06-07T14:52:14Z</time>
      </trkpt>
      <trkpt lat="48.46928" lon="-2.49531">
        <ele>57</ele>
        <time>2016-06-07T14:52:18Z</time>
      </trkpt>
      <trkpt lat="48.46925" lon="-2.49535">
        <ele>57</ele>
        <time>2016-06-07T14:52:22Z</time>
      </trkpt>
      <trkpt lat="48.46924" lon="-2.49537">
        <ele>56</ele>
        <time>2016-06-07T14:52:26Z</time>
      </trkpt>
      <trkpt lat="48.46923" lon="-2.49541">
        <ele>56</ele>
        <time>2016-06-07T14:52:31Z</time>
      </trkpt>
      <trkpt lat="48.46921" lon="-2.49542">
        <ele>55</ele>
        <time>2016-06-07T14:52:36Z</time>
      </trkpt>
      <trkpt lat="48.46918" lon="-2.49542">
        <ele>54</ele>
        <time>2016-06-07T14:52:41Z</time>
      </trkpt>
      <trkpt lat="48.46915" lon="-2.49544">
        <ele>54</ele>
        <time>2016-06-07T14:52:44Z</time>
      </trkpt>
      <trkpt lat="48.46911" lon="-2.49546">
        <ele>54</ele>
        <time>2016-06-07T14:52:48Z</time>
      </trkpt>
      <trkpt lat="48.4691" lon="-2.49546">
        <ele>54</ele>
        <time>2016-06-07T14:52:51Z</time>
      </trkpt>
      <trkpt lat="48.46906" lon="-2.49549">
        <ele>53</ele>
        <time>2016-06-07T14:52:55Z</time>
      </trkpt>
      <trkpt lat="48.46902" lon="-2.49552">
        <ele>52</ele>
        <time>2016-06-07T14:52:59Z</time>
      </trkpt>
      <trkpt lat="48.46899" lon="-2.49552">
        <ele>52</ele>
        <time>2016-06-07T14:53:03Z</time>
      </trkpt>
      <trkpt lat="48.46894" lon="-2.49552">
        <ele>52</ele>
        <time>2016-06-07T14:53:07Z</time>
      </trkpt>
      <trkpt lat="48.4689" lon="-2.49553">
        <ele>52</ele>
        <time>2016-06-07T14:53:11Z</time>
      </trkpt>
      <trkpt lat="48.46886" lon="-2.49553">
        <ele>52</ele>
        <time>2016-06-07T14:53:15Z</time>
      </trkpt>
      <trkpt lat="48.46883" lon="-2.49553">
        <ele>52</ele>
        <time>2016-06-07T14:53:19Z</time>
      </trkpt>
      <trkpt lat="48.4688" lon="-2.49552">
        <ele>52</ele>
        <time>2016-06-07T14:53:22Z</time>
      </trkpt>
      <trkpt lat="48.46877" lon="-2.49552">
        <ele>52</ele>
        <time>2016-06-07T14:53:26Z</time>
      </trkpt>
      <trkpt lat="48.46874" lon="-2.49551">
        <ele>52</ele>
        <time>2016-06-07T14:53:29Z</time>
      </trkpt>
      <trkpt lat="48.4687" lon="-2.49551">
        <ele>52</ele>
        <time>2016-06-07T14:53:32Z</time>
      </trkpt>
      <trkpt lat="48.46867" lon="-2.4955">
        <ele>52</ele>
        <time>2016-06-07T14:53:35Z</time>
      </trkpt>
      <trkpt lat="48.46864" lon="-2.49549">
        <ele>52</ele>
        <time>2016-06-07T14:53:38Z</time>
      </trkpt>
      <trkpt lat="48.46859" lon="-2.49549">
        <ele>52</ele>
        <time>2016-06-07T14:53:42Z</time>
      </trkpt>
      <trkpt lat="48.46856" lon="-2.4955">
        <ele>52</ele>
        <time>2016-06-07T14:53:45Z</time>
      </trkpt>
      <trkpt lat="48.46851" lon="-2.49552">
        <ele>52</ele>
        <time>2016-06-07T14:53:49Z</time>
      </trkpt>
      <trkpt lat="48.46848" lon="-2.49556">
        <ele>52</ele>
        <time>2016-06-07T14:53:53Z</time>
      </trkpt>
      <trkpt lat="48.46846" lon="-2.49558">
        <ele>52</ele>
        <time>2016-06-07T14:53:56Z</time>
      </trkpt>
      <trkpt lat="48.46844" lon="-2.49562">
        <ele>52</ele>
        <time>2016-06-07T14:54:00Z</time>
      </trkpt>
      <trkpt lat="48.46842" lon="-2.49567">
        <ele>52</ele>
        <time>2016-06-07T14:54:04Z</time>
      </trkpt>
      <trkpt lat="48.46841" lon="-2.49572">
        <ele>52</ele>
        <time>2016-06-07T14:54:08Z</time>
      </trkpt>
      <trkpt lat="48.4684" lon="-2.49577">
        <ele>52</ele>
        <time>2016-06-07T14:54:11Z</time>
      </trkpt>
      <trkpt lat="48.4684" lon="-2.49582">
        <ele>52</ele>
        <time>2016-06-07T14:54:14Z</time>
      </trkpt>
      <trkpt lat="48.4684" lon="-2.49587">
        <ele>52</ele>
        <time>2016-06-07T14:54:17Z</time>
      </trkpt>
      <trkpt lat="48.4684" lon="-2.49592">
        <ele>52</ele>
        <time>2016-06-07T14:54:20Z</time>
      </trkpt>
      <trkpt lat="48.4684" lon="-2.49598">
        <ele>52</ele>
        <time>2016-06-07T14:54:24Z</time>
      </trkpt>
      <trkpt lat="48.46841" lon="-2.49604">
        <ele>52</ele>
        <time>2016-06-07T14:54:28Z</time>
      </trkpt>
      <trkpt lat="48.46842" lon="-2.49609">
        <ele>52</ele>
        <time>2016-06-07T14:54:31Z</time>
      </trkpt>
      <trkpt lat="48.46843" lon="-2.49614">
        <ele>52</ele>
        <time>2016-06-07T14:54:34Z</time>
      </trkpt>
      <trkpt lat="48.46843" lon="-2.49619">
        <ele>52</ele>
        <time>2016-06-07T14:54:37Z</time>
      </trkpt>
      <trkpt lat="48.46845" lon="-2.49624">
        <ele>52</ele>
        <time>2016-06-07T14:54:40Z</time>
      </trkpt>
      <trkpt lat="48.46846" lon="-2.49629">
        <ele>52</ele>
        <time>2016-06-07T14:54:43Z</time>
      </trkpt>
      <trkpt lat="48.46846" lon="-2.49635">
        <ele>52</ele>
        <time>2016-06-07T14:54:46Z</time>
      </trkpt>
      <trkpt lat="48.46846" lon="-2.4964">
        <ele>52</ele>
        <time>2016-06-07T14:54:49Z</time>
      </trkpt>
      <trkpt lat="48.46847" lon="-2.49645">
        <ele>52</ele>
        <time>2016-06-07T14:54:52Z</time>
      </trkpt>
      <trkpt lat="48.46848" lon="-2.49651">
        <ele>52</ele>
        <time>2016-06-07T14:54:55Z</time>
      </trkpt>
      <trkpt lat="48.46849" lon="-2.49656">
        <ele>52</ele>
        <time>2016-06-07T14:54:58Z</time>
      </trkpt>
      <trkpt lat="48.4685" lon="-2.49661">
        <ele>52</ele>
        <time>2016-06-07T14:55:01Z</time>
      </trkpt>
      <trkpt lat="48.46851" lon="-2.49667">
        <ele>52</ele>
        <time>2016-06-07T14:55:04Z</time>
      </trkpt>
      <trkpt lat="48.46852" lon="-2.49673">
        <ele>52</ele>
        <time>2016-06-07T14:55:07Z</time>
      </trkpt>
      <trkpt lat="48.46853" lon="-2.49678">
        <ele>52</ele>
        <time>2016-06-07T14:55:10Z</time>
      </trkpt>
      <trkpt lat="48.46854" lon="-2.49683">
        <ele>52</ele>
        <time>2016-06-07T14:55:18Z</time>
      </trkpt>
      <trkpt lat="48.46854" lon="-2.49687">
        <ele>52</ele>
        <time>2016-06-07T14:55:22Z</time>
      </trkpt>
      <trkpt lat="48.46855" lon="-2.49693">
        <ele>52</ele>
        <time>2016-06-07T14:55:26Z</time>
      </trkpt>
      <trkpt lat="48.46856" lon="-2.49697">
        <ele>52</ele>
        <time>2016-06-07T14:55:29Z</time>
      </trkpt>
      <trkpt lat="48.46856" lon="-2.49702">
        <ele>52</ele>
        <time>2016-06-07T14:55:32Z</time>
      </trkpt>
      <trkpt lat="48.46857" lon="-2.49707">
        <ele>52</ele>
        <time>2016-06-07T14:55:35Z</time>
      </trkpt>
      <trkpt lat="48.46857" lon="-2.49712">
        <ele>51</ele>
        <time>2016-06-07T14:55:39Z</time>
      </trkpt>
      <trkpt lat="48.46859" lon="-2.49717">
        <ele>51</ele>
        <time>2016-06-07T14:55:43Z</time>
      </trkpt>
      <trkpt lat="48.4686" lon="-2.49723">
        <ele>51</ele>
        <time>2016-06-07T14:55:47Z</time>
      </trkpt>
      <trkpt lat="48.46861" lon="-2.49728">
        <ele>51</ele>
        <time>2016-06-07T14:55:51Z</time>
      </trkpt>
      <trkpt lat="48.46862" lon="-2.49733">
        <ele>51</ele>
        <time>2016-06-07T14:55:55Z</time>
      </trkpt>
      <trkpt lat="48.46864" lon="-2.49739">
        <ele>51</ele>
        <time>2016-06-07T14:55:59Z</time>
      </trkpt>
      <trkpt lat="48.46865" lon="-2.49744">
        <ele>51</ele>
        <time>2016-06-07T14:56:02Z</time>
      </trkpt>
      <trkpt lat="48.46866" lon="-2.49749">
        <ele>51</ele>
        <time>2016-06-07T14:56:05Z</time>
      </trkpt>
      <trkpt lat="48.46867" lon="-2.49754">
        <ele>51</ele>
        <time>2016-06-07T14:56:08Z</time>
      </trkpt>
      <trkpt lat="48.46869" lon="-2.4976">
        <ele>51</ele>
        <time>2016-06-07T14:56:12Z</time>
      </trkpt>
      <trkpt lat="48.46871" lon="-2.49767">
        <ele>51</ele>
        <time>2016-06-07T14:56:16Z</time>
      </trkpt>
      <trkpt lat="48.46873" lon="-2.49773">
        <ele>51</ele>
        <time>2016-06-07T14:56:20Z</time>
      </trkpt>
      <trkpt lat="48.46877" lon="-2.49777">
        <ele>51</ele>
        <time>2016-06-07T14:56:24Z</time>
      </trkpt>
      <trkpt lat="48.4688" lon="-2.49781">
        <ele>51</ele>
        <time>2016-06-07T14:56:28Z</time>
      </trkpt>
      <trkpt lat="48.46883" lon="-2.49784">
        <ele>51</ele>
        <time>2016-06-07T14:56:32Z</time>
      </trkpt>
      <trkpt lat="48.46887" lon="-2.49788">
        <ele>51</ele>
        <time>2016-06-07T14:56:36Z</time>
      </trkpt>
      <trkpt lat="48.4689" lon="-2.49792">
        <ele>51</ele>
        <time>2016-06-07T14:56:40Z</time>
      </trkpt>
      <trkpt lat="48.46894" lon="-2.49795">
        <ele>51</ele>
        <time>2016-06-07T14:56:44Z</time>
      </trkpt>
      <trkpt lat="48.46897" lon="-2.49799">
        <ele>51</ele>
        <time>2016-06-07T14:56:48Z</time>
      </trkpt>
      <trkpt lat="48.469" lon="-2.49804">
        <ele>51</ele>
        <time>2016-06-07T14:56:52Z</time>
      </trkpt>
      <trkpt lat="48.46902" lon="-2.4981">
        <ele>51</ele>
        <time>2016-06-07T14:56:56Z</time>
      </trkpt>
      <trkpt lat="48.46903" lon="-2.49815">
        <ele>51</ele>
        <time>2016-06-07T14:57:00Z</time>
      </trkpt>
      <trkpt lat="48.46905" lon="-2.49821">
        <ele>51</ele>
        <time>2016-06-07T14:57:04Z</time>
      </trkpt>
      <trkpt lat="48.46905" lon="-2.49825">
        <ele>51</ele>
        <time>2016-06-07T14:57:07Z</time>
      </trkpt>
      <trkpt lat="48.46905" lon="-2.4983">
        <ele>51</ele>
        <time>2016-06-07T14:57:10Z</time>
      </trkpt>
      <trkpt lat="48.46906" lon="-2.49837">
        <ele>51</ele>
        <time>2016-06-07T14:57:14Z</time>
      </trkpt>
      <trkpt lat="48.46906" lon="-2.49842">
        <ele>51</ele>
        <time>2016-06-07T14:57:17Z</time>
      </trkpt>
      <trkpt lat="48.46906" lon="-2.49847">
        <ele>51</ele>
        <time>2016-06-07T14:57:20Z</time>
      </trkpt>
      <trkpt lat="48.46906" lon="-2.49853">
        <ele>51</ele>
        <time>2016-06-07T14:57:24Z</time>
      </trkpt>
      <trkpt lat="48.46907" lon="-2.49859">
        <ele>51</ele>
        <time>2016-06-07T14:57:28Z</time>
      </trkpt>
      <trkpt lat="48.46907" lon="-2.49865">
        <ele>51</ele>
        <time>2016-06-07T14:57:32Z</time>
      </trkpt>
      <trkpt lat="48.46907" lon="-2.4987">
        <ele>51</ele>
        <time>2016-06-07T14:57:35Z</time>
      </trkpt>
      <trkpt lat="48.46907" lon="-2.49875">
        <ele>51</ele>
        <time>2016-06-07T14:57:38Z</time>
      </trkpt>
      <trkpt lat="48.46908" lon="-2.4988">
        <ele>51</ele>
        <time>2016-06-07T14:57:41Z</time>
      </trkpt>
      <trkpt lat="48.46908" lon="-2.49884">
        <ele>51</ele>
        <time>2016-06-07T14:57:44Z</time>
      </trkpt>
      <trkpt lat="48.46909" lon="-2.49891">
        <ele>51</ele>
        <time>2016-06-07T14:57:48Z</time>
      </trkpt>
      <trkpt lat="48.4691" lon="-2.49896">
        <ele>51</ele>
        <time>2016-06-07T14:57:51Z</time>
      </trkpt>
      <trkpt lat="48.4691" lon="-2.499">
        <ele>51</ele>
        <time>2016-06-07T14:57:54Z</time>
      </trkpt>
      <trkpt lat="48.46912" lon="-2.49906">
        <ele>51</ele>
        <time>2016-06-07T14:57:58Z</time>
      </trkpt>
      <trkpt lat="48.46913" lon="-2.49911">
        <ele>51</ele>
        <time>2016-06-07T14:58:01Z</time>
      </trkpt>
      <trkpt lat="48.46914" lon="-2.49917">
        <ele>51</ele>
        <time>2016-06-07T14:58:05Z</time>
      </trkpt>
      <trkpt lat="48.46915" lon="-2.49923">
        <ele>51</ele>
        <time>2016-06-07T14:58:09Z</time>
      </trkpt>
      <trkpt lat="48.46915" lon="-2.49928">
        <ele>51</ele>
        <time>2016-06-07T14:58:12Z</time>
      </trkpt>
      <trkpt lat="48.46916" lon="-2.49932">
        <ele>51</ele>
        <time>2016-06-07T14:58:15Z</time>
      </trkpt>
      <trkpt lat="48.46917" lon="-2.49937">
        <ele>51</ele>
        <time>2016-06-07T14:58:18Z</time>
      </trkpt>
      <trkpt lat="48.46917" lon="-2.49941">
        <ele>51</ele>
        <time>2016-06-07T14:58:21Z</time>
      </trkpt>
      <trkpt lat="48.46918" lon="-2.49948">
        <ele>51</ele>
        <time>2016-06-07T14:58:25Z</time>
      </trkpt>
      <trkpt lat="48.46918" lon="-2.49953">
        <ele>51</ele>
        <time>2016-06-07T14:58:28Z</time>
      </trkpt>
      <trkpt lat="48.46919" lon="-2.49957">
        <ele>51</ele>
        <time>2016-06-07T14:58:31Z</time>
      </trkpt>
      <trkpt lat="48.46919" lon="-2.49963">
        <ele>51</ele>
        <time>2016-06-07T14:58:35Z</time>
      </trkpt>
      <trkpt lat="48.4692" lon="-2.49968">
        <ele>51</ele>
        <time>2016-06-07T14:58:38Z</time>
      </trkpt>
      <trkpt lat="48.46921" lon="-2.49975">
        <ele>51</ele>
        <time>2016-06-07T14:58:42Z</time>
      </trkpt>
      <trkpt lat="48.46922" lon="-2.49981">
        <ele>51</ele>
        <time>2016-06-07T14:58:46Z</time>
      </trkpt>
      <trkpt lat="48.46923" lon="-2.49987">
        <ele>51</ele>
        <time>2016-06-07T14:58:50Z</time>
      </trkpt>
      <trkpt lat="48.46924" lon="-2.49993">
        <ele>51</ele>
        <time>2016-06-07T14:58:54Z</time>
      </trkpt>
      <trkpt lat="48.46925" lon="-2.49999">
        <ele>51</ele>
        <time>2016-06-07T14:58:58Z</time>
      </trkpt>
      <trkpt lat="48.46927" lon="-2.50005">
        <ele>51</ele>
        <time>2016-06-07T14:59:02Z</time>
      </trkpt>
      <trkpt lat="48.46929" lon="-2.5001">
        <ele>51</ele>
        <time>2016-06-07T14:59:06Z</time>
      </trkpt>
      <trkpt lat="48.4693" lon="-2.50016">
        <ele>51</ele>
        <time>2016-06-07T14:59:10Z</time>
      </trkpt>
      <trkpt lat="48.46932" lon="-2.50022">
        <ele>51</ele>
        <time>2016-06-07T14:59:14Z</time>
      </trkpt>
      <trkpt lat="48.46935" lon="-2.50027">
        <ele>51</ele>
        <time>2016-06-07T14:59:18Z</time>
      </trkpt>
      <trkpt lat="48.46937" lon="-2.50032">
        <ele>51</ele>
        <time>2016-06-07T14:59:22Z</time>
      </trkpt>
      <trkpt lat="48.4694" lon="-2.50038">
        <ele>51</ele>
        <time>2016-06-07T14:59:26Z</time>
      </trkpt>
      <trkpt lat="48.46944" lon="-2.50043">
        <ele>51</ele>
        <time>2016-06-07T14:59:30Z</time>
      </trkpt>
      <trkpt lat="48.46946" lon="-2.50047">
        <ele>51</ele>
        <time>2016-06-07T14:59:34Z</time>
      </trkpt>
      <trkpt lat="48.4695" lon="-2.50052">
        <ele>51</ele>
        <time>2016-06-07T14:59:38Z</time>
      </trkpt>
      <trkpt lat="48.46953" lon="-2.50055">
        <ele>51</ele>
        <time>2016-06-07T14:59:41Z</time>
      </trkpt>
      <trkpt lat="48.46956" lon="-2.50059">
        <ele>51</ele>
        <time>2016-06-07T14:59:45Z</time>
      </trkpt>
      <trkpt lat="48.4696" lon="-2.50063">
        <ele>51</ele>
        <time>2016-06-07T14:59:49Z</time>
      </trkpt>
      <trkpt lat="48.46964" lon="-2.50066">
        <ele>51</ele>
        <time>2016-06-07T14:59:53Z</time>
      </trkpt>
      <trkpt lat="48.46967" lon="-2.50069">
        <ele>51</ele>
        <time>2016-06-07T14:59:56Z</time>
      </trkpt>
      <trkpt lat="48.46971" lon="-2.50072">
        <ele>51</ele>
        <time>2016-06-07T15:00:00Z</time>
      </trkpt>
      <trkpt lat="48.46976" lon="-2.50075">
        <ele>51</ele>
        <time>2016-06-07T15:00:04Z</time>
      </trkpt>
      <trkpt lat="48.46979" lon="-2.50078">
        <ele>51</ele>
        <time>2016-06-07T15:00:07Z</time>
      </trkpt>
      <trkpt lat="48.46983" lon="-2.50081">
        <ele>51</ele>
        <time>2016-06-07T15:00:11Z</time>
      </trkpt>
      <trkpt lat="48.46987" lon="-2.50084">
        <ele>51</ele>
        <time>2016-06-07T15:00:15Z</time>
      </trkpt>
      <trkpt lat="48.4699" lon="-2.50087">
        <ele>51</ele>
        <time>2016-06-07T15:00:18Z</time>
      </trkpt>
      <trkpt lat="48.46993" lon="-2.50092">
        <ele>51</ele>
        <time>2016-06-07T15:00:22Z</time>
      </trkpt>
      <trkpt lat="48.46994" lon="-2.50097">
        <ele>51</ele>
        <time>2016-06-07T15:00:26Z</time>
      </trkpt>
      <trkpt lat="48.46995" lon="-2.50101">
        <ele>51</ele>
        <time>2016-06-07T15:00:29Z</time>
      </trkpt>
      <trkpt lat="48.46997" lon="-2.50107">
        <ele>51</ele>
        <time>2016-06-07T15:00:33Z</time>
      </trkpt>
      <trkpt lat="48.46999" lon="-2.50113">
        <ele>51</ele>
        <time>2016-06-07T15:00:37Z</time>
      </trkpt>
      <trkpt lat="48.47" lon="-2.50118">
        <ele>51</ele>
        <time>2016-06-07T15:00:41Z</time>
      </trkpt>
      <trkpt lat="48.47001" lon="-2.50124">
        <ele>51</ele>
        <time>2016-06-07T15:00:45Z</time>
      </trkpt>
      <trkpt lat="48.47001" lon="-2.50131">
        <ele>51</ele>
        <time>2016-06-07T15:00:49Z</time>
      </trkpt>
      <trkpt lat="48.47002" lon="-2.50135">
        <ele>51</ele>
        <time>2016-06-07T15:00:52Z</time>
      </trkpt>
      <trkpt lat="48.47003" lon="-2.50141">
        <ele>51</ele>
        <time>2016-06-07T15:00:56Z</time>
      </trkpt>
      <trkpt lat="48.47003" lon="-2.50146">
        <ele>51</ele>
        <time>2016-06-07T15:00:59Z</time>
      </trkpt>
      <trkpt lat="48.47004" lon="-2.50151">
        <ele>51</ele>
        <time>2016-06-07T15:01:02Z</time>
      </trkpt>
      <trkpt lat="48.47005" lon="-2.50156">
        <ele>51</ele>
        <time>2016-06-07T15:01:06Z</time>
      </trkpt>
      <trkpt lat="48.47008" lon="-2.50162">
        <ele>51</ele>
        <time>2016-06-07T15:01:10Z</time>
      </trkpt>
      <trkpt lat="48.47011" lon="-2.50167">
        <ele>51</ele>
        <time>2016-06-07T15:01:14Z</time>
      </trkpt>
      <trkpt lat="48.47014" lon="-2.50172">
        <ele>51</ele>
        <time>2016-06-07T15:01:18Z</time>
      </trkpt>
      <trkpt lat="48.47017" lon="-2.50176">
        <ele>51</ele>
        <time>2016-06-07T15:01:22Z</time>
      </trkpt>
      <trkpt lat="48.4702" lon="-2.50181">
        <ele>51</ele>
        <time>2016-06-07T15:01:26Z</time>
      </trkpt>
      <trkpt lat="48.47023" lon="-2.50185">
        <ele>51</ele>
        <time>2016-06-07T15:01:30Z</time>
      </trkpt>
      <trkpt lat="48.47026" lon="-2.50189">
        <ele>51</ele>
        <time>2016-06-07T15:01:34Z</time>
      </trkpt>
      <trkpt lat="48.47029" lon="-2.50193">
        <ele>51</ele>
        <time>2016-06-07T15:01:38Z</time>
      </trkpt>
      <trkpt lat="48.47033" lon="-2.50197">
        <ele>51</ele>
        <time>2016-06-07T15:01:42Z</time>
      </trkpt>
      <trkpt lat="48.47036" lon="-2.50202">
        <ele>51</ele>
        <time>2016-06-07T15:01:46Z</time>
      </trkpt>
      <trkpt lat="48.47039" lon="-2.50205">
        <ele>51</ele>
        <time>2016-06-07T15:01:50Z</time>
      </trkpt>
      <trkpt lat="48.47042" lon="-2.5021">
        <ele>51</ele>
        <time>2016-06-07T15:01:54Z</time>
      </trkpt>
      <trkpt lat="48.47045" lon="-2.50214">
        <ele>51</ele>
        <time>2016-06-07T15:01:58Z</time>
      </trkpt>
      <trkpt lat="48.47048" lon="-2.50219">
        <ele>51</ele>
        <time>2016-06-07T15:02:02Z</time>
      </trkpt>
      <trkpt lat="48.47051" lon="-2.50224">
        <ele>51</ele>
        <time>2016-06-07T15:02:06Z</time>
      </trkpt>
      <trkpt lat="48.47054" lon="-2.5023">
        <ele>51</ele>
        <time>2016-06-07T15:02:10Z</time>
      </trkpt>
      <trkpt lat="48.47055" lon="-2.50235">
        <ele>51</ele>
        <time>2016-06-07T15:02:14Z</time>
      </trkpt>
      <trkpt lat="48.47057" lon="-2.5024">
        <ele>51</ele>
        <time>2016-06-07T15:02:18Z</time>
      </trkpt>
      <trkpt lat="48.47057" lon="-2.50245">
        <ele>51</ele>
        <time>2016-06-07T15:02:21Z</time>
      </trkpt>
      <trkpt lat="48.47058" lon="-2.5025">
        <ele>51</ele>
        <time>2016-06-07T15:02:24Z</time>
      </trkpt>
      <trkpt lat="48.4706" lon="-2.50255">
        <ele>51</ele>
        <time>2016-06-07T15:02:28Z</time>
      </trkpt>
      <trkpt lat="48.47061" lon="-2.5026">
        <ele>51</ele>
        <time>2016-06-07T15:02:31Z</time>
      </trkpt>
      <trkpt lat="48.47062" lon="-2.50266">
        <ele>51</ele>
        <time>2016-06-07T15:02:35Z</time>
      </trkpt>
      <trkpt lat="48.47063" lon="-2.50272">
        <ele>51</ele>
        <time>2016-06-07T15:02:39Z</time>
      </trkpt>
      <trkpt lat="48.47064" lon="-2.50276">
        <ele>51</ele>
        <time>2016-06-07T15:02:42Z</time>
      </trkpt>
      <trkpt lat="48.47066" lon="-2.50281">
        <ele>51</ele>
        <time>2016-06-07T15:02:45Z</time>
      </trkpt>
      <trkpt lat="48.47068" lon="-2.50287">
        <ele>51</ele>
        <time>2016-06-07T15:02:49Z</time>
      </trkpt>
      <trkpt lat="48.4707" lon="-2.50293">
        <ele>51</ele>
        <time>2016-06-07T15:02:53Z</time>
      </trkpt>
      <trkpt lat="48.47071" lon="-2.50299">
        <ele>51</ele>
        <time>2016-06-07T15:02:57Z</time>
      </trkpt>
      <trkpt lat="48.47072" lon="-2.50303">
        <ele>51</ele>
        <time>2016-06-07T15:03:00Z</time>
      </trkpt>
      <trkpt lat="48.47073" lon="-2.50309">
        <ele>51</ele>
        <time>2016-06-07T15:03:04Z</time>
      </trkpt>
      <trkpt lat="48.47075" lon="-2.50315">
        <ele>51</ele>
        <time>2016-06-07T15:03:08Z</time>
      </trkpt>
      <trkpt lat="48.47076" lon="-2.50319">
        <ele>51</ele>
        <time>2016-06-07T15:03:11Z</time>
      </trkpt>
      <trkpt lat="48.47076" lon="-2.50324">
        <ele>51</ele>
        <time>2016-06-07T15:03:14Z</time>
      </trkpt>
      <trkpt lat="48.47078" lon="-2.5033">
        <ele>51</ele>
        <time>2016-06-07T15:03:18Z</time>
      </trkpt>
      <trkpt lat="48.47079" lon="-2.50335">
        <ele>51</ele>
        <time>2016-06-07T15:03:21Z</time>
      </trkpt>
      <trkpt lat="48.4708" lon="-2.50339">
        <ele>51</ele>
        <time>2016-06-07T15:03:24Z</time>
      </trkpt>
      <trkpt lat="48.47081" lon="-2.50345">
        <ele>51</ele>
        <time>2016-06-07T15:03:28Z</time>
      </trkpt>
      <trkpt lat="48.47083" lon="-2.5035">
        <ele>51</ele>
        <time>2016-06-07T15:03:32Z</time>
      </trkpt>
      <trkpt lat="48.47085" lon="-2.50356">
        <ele>51</ele>
        <time>2016-06-07T15:03:36Z</time>
      </trkpt>
      <trkpt lat="48.47087" lon="-2.50361">
        <ele>51</ele>
        <time>2016-06-07T15:03:40Z</time>
      </trkpt>
      <trkpt lat="48.47088" lon="-2.50367">
        <ele>51</ele>
        <time>2016-06-07T15:03:44Z</time>
      </trkpt>
      <trkpt lat="48.47091" lon="-2.50371">
        <ele>51</ele>
        <time>2016-06-07T15:03:48Z</time>
      </trkpt>
      <trkpt lat="48.47094" lon="-2.50377">
        <ele>51</ele>
        <time>2016-06-07T15:03:52Z</time>
      </trkpt>
      <trkpt lat="48.47095" lon="-2.50381">
        <ele>51</ele>
        <time>2016-06-07T15:03:57Z</time>
      </trkpt>
      <trkpt lat="48.47096" lon="-2.50386">
        <ele>51</ele>
        <time>2016-06-07T15:04:01Z</time>
      </trkpt>
      <trkpt lat="48.47098" lon="-2.50392">
        <ele>51</ele>
        <time>2016-06-07T15:04:05Z</time>
      </trkpt>
      <trkpt lat="48.471" lon="-2.50396">
        <ele>51</ele>
        <time>2016-06-07T15:04:09Z</time>
      </trkpt>
      <trkpt lat="48.47101" lon="-2.50401">
        <ele>51</ele>
        <time>2016-06-07T15:04:13Z</time>
      </trkpt>
      <trkpt lat="48.47103" lon="-2.50406">
        <ele>51</ele>
        <time>2016-06-07T15:04:17Z</time>
      </trkpt>
      <trkpt lat="48.47103" lon="-2.5041">
        <ele>51</ele>
        <time>2016-06-07T15:04:21Z</time>
      </trkpt>
      <trkpt lat="48.47104" lon="-2.50411">
        <ele>51</ele>
        <time>2016-06-07T15:04:25Z</time>
      </trkpt>
      <trkpt lat="48.47107" lon="-2.5041">
        <ele>51</ele>
        <time>2016-06-07T15:04:29Z</time>
      </trkpt>
      <trkpt lat="48.4711" lon="-2.50408">
        <ele>51</ele>
        <time>2016-06-07T15:04:33Z</time>
      </trkpt>
      <trkpt lat="48.47113" lon="-2.50405">
        <ele>51</ele>
        <time>2016-06-07T15:04:37Z</time>
      </trkpt>
      <trkpt lat="48.47115" lon="-2.50403">
        <ele>51</ele>
        <time>2016-06-07T15:04:41Z</time>
      </trkpt>
      <trkpt lat="48.47118" lon="-2.504">
        <ele>51</ele>
        <time>2016-06-07T15:04:45Z</time>
      </trkpt>
      <trkpt lat="48.47122" lon="-2.50398">
        <ele>51</ele>
        <time>2016-06-07T15:04:49Z</time>
      </trkpt>
      <trkpt lat="48.47125" lon="-2.50395">
        <ele>51</ele>
        <time>2016-06-07T15:04:53Z</time>
      </trkpt>
      <trkpt lat="48.47128" lon="-2.50393">
        <ele>51</ele>
        <time>2016-06-07T15:04:57Z</time>
      </trkpt>
      <trkpt lat="48.47131" lon="-2.5039">
        <ele>50</ele>
        <time>2016-06-07T15:05:01Z</time>
      </trkpt>
      <trkpt lat="48.47132" lon="-2.50388">
        <ele>50</ele>
        <time>2016-06-07T15:05:04Z</time>
      </trkpt>
      <trkpt lat="48.47134" lon="-2.50383">
        <ele>50</ele>
        <time>2016-06-07T15:05:14Z</time>
      </trkpt>
    </trkseg>
  </trk>
</gpx>